[[{"header":{"parameterUnit":"m.s-1","parameterCategory":1,"la1":30.6,"la2":29.2853,"lo1":-89.7004,"lo2":-87.6739,"dy":0.0162,"dx":0.0183,"nx":112,"ny":82,"refTime":"2025-04-10T06:00:00:Z","depth":0,"parameterNumber":2,"parameterNumberName":"U-component_of_WINDS"},"data":[0.0,0.0,0.0,0.0,0.0,0.0,0.0,0.0,0.0,0.0,0.0,0.0,0.0,0.0,0.0,0.0,0.0,0.0,0.0,0.0,0.0,0.0,0.0,0.0,0.0,0.0,0.0,0.0,0.0,0.0,0.0,0.0,0.0,0.0,0.0,0.0,0.0,0.0,0.0,0.0,0.0,0.0,0.0,0.0,0.0,0.0,0.0,0.0,0.0,0.0,0.0,0.0,0.0,0.0,0.0,0.0,0.0,0.0,0.0,0.0,0.0,0.0,0.0,0.0,0.0,0.0,0.0,0.0,0.0,0.0,0.0,0.0,0.0,0.0,0.0,0.0,0.0,0.0,0.0,0.0,0.0,0.0,0.0,0.0,0.0,0.0,0.0,0.0,0.0,0.0,4.2134,4.2591,4.3809,4.4587,4.4587,4.3859,4.2794,4.1305,0.0,0.0,0.0,0.0,0.0,0.0,0.0,0.0,0.0,0.0,0.0,0.0,0.0,0.0,0.0,0.0,0.0,0.0,0.0,0.0,0.0,0.0,0.0,0.0,0.0,0.0,0.0,0.0,0.0,0.0,0.0,0.0,0.0,0.0,0.0,0.0,0.0,0.0,0.0,0.0,0.0,0.0,0.0,0.0,0.0,0.0,0.0,0.0,0.0,0.0,0.0,0.0,0.0,0.0,0.0,0.0,0.0,0.0,0.0,0.0,0.0,0.0,0.0,0.0,0.0,0.0,0.0,0.0,0.0,0.0,0.0,0.0,0.0,0.0,0.0,0.0,0.0,0.0,0.0,0.0,0.0,0.0,0.0,0.0,0.0,0.0,0.0,0.0,0.0,0.0,0.0,0.0,0.0,0.0,0.0,0.0,0.0,0.0,0.0,0.0,0.0,0.0,0.0,0.0,4.1424,4.3961,4.4434,4.4587,4.4587,4.3859,4.2794,4.1305,0.0,0.0,0.0,0.0,0.0,0.0,0.0,0.0,0.0,0.0,0.0,0.0,0.0,0.0,0.0,0.0,0.0,0.0,0.0,0.0,0.0,0.0,0.0,0.0,0.0,0.0,0.0,0.0,0.0,0.0,0.0,0.0,0.0,0.0,0.0,0.0,0.0,0.0,0.0,0.0,0.0,0.0,0.0,0.0,0.0,0.0,0.0,0.0,0.0,0.0,0.0,0.0,0.0,0.0,0.0,0.0,0.0,0.0,0.0,0.0,0.0,0.0,0.0,0.0,0.0,0.0,0.0,0.0,0.0,0.0,0.0,0.0,0.0,0.0,0.0,0.0,0.0,0.0,0.0,0.0,0.0,0.0,0.0,0.0,0.0,0.0,0.0,0.0,0.0,0.0,0.0,0.0,0.0,0.0,0.0,0.0,0.0,0.0,0.0,0.0,0.0,0.0,0.0,4.073,4.1694,4.4299,4.4587,4.4587,4.4587,4.3859,4.2794,4.1305,4.0138,0.0,0.0,0.0,0.0,0.0,0.0,0.0,0.0,0.0,0.0,0.0,0.0,0.0,0.0,0.0,0.0,0.0,0.0,0.0,0.0,0.0,0.0,0.0,0.0,0.0,0.0,0.0,0.0,0.0,0.0,0.0,0.0,0.0,0.0,0.0,0.0,0.0,0.0,0.0,0.0,0.0,0.0,0.0,0.0,0.0,0.0,0.0,0.0,0.0,0.0,0.0,0.0,0.0,0.0,0.0,0.0,0.0,0.0,0.0,0.0,0.0,0.0,0.0,0.0,0.0,0.0,0.0,0.0,0.0,0.0,0.0,0.0,0.0,0.0,0.0,0.0,0.0,0.0,0.0,0.0,0.0,0.0,0.0,0.0,0.0,0.0,0.0,0.0,0.0,0.0,0.0,0.0,0.0,0.0,0.0,0.0,0.0,0.0,0.0,0.0,0.0,0.0,4.1897,4.2658,4.4401,4.4587,4.4587,4.4587,4.3707,4.2523,4.1035,3.9563,0.0,0.0,0.0,0.0,0.0,0.0,0.0,0.0,0.0,0.0,0.0,0.0,0.0,0.0,0.0,0.0,0.0,0.0,0.0,0.0,0.0,0.0,0.0,0.0,0.0,0.0,0.0,0.0,0.0,0.0,0.0,0.0,0.0,0.0,0.0,0.0,0.0,0.0,0.0,0.0,0.0,0.0,0.0,0.0,0.0,0.0,0.0,0.0,0.0,0.0,0.0,0.0,0.0,0.0,0.0,0.0,0.0,0.0,0.0,0.0,0.0,0.0,0.0,0.0,0.0,0.0,0.0,0.0,0.0,0.0,0.0,0.0,0.0,0.0,0.0,0.0,0.0,0.0,0.0,0.0,0.0,0.0,0.0,0.0,0.0,0.0,0.0,0.0,0.0,0.0,0.0,0.0,0.0,0.0,0.0,0.0,0.0,0.0,0.0,0.0,0.0,0.0,4.2642,4.4401,4.4553,4.4587,4.4587,4.4587,4.3217,4.1745,4.0257,3.8785,0.0,0.0,0.0,0.0,0.0,0.0,0.0,0.0,0.0,0.0,0.0,0.0,0.0,0.0,0.0,0.0,0.0,0.0,0.0,0.0,0.0,0.0,0.0,0.0,0.0,0.0,0.0,0.0,0.0,0.0,0.0,0.0,0.0,0.0,0.0,0.0,0.0,0.0,0.0,0.0,0.0,0.0,0.0,0.0,0.0,0.0,0.0,0.0,0.0,0.0,0.0,0.0,0.0,0.0,0.0,0.0,0.0,0.0,0.0,0.0,0.0,0.0,0.0,0.0,0.0,0.0,0.0,0.0,0.0,0.0,0.0,0.0,0.0,0.0,0.0,0.0,0.0,0.0,0.0,0.0,0.0,0.0,0.0,0.0,0.0,0.0,0.0,0.0,0.0,0.0,0.0,0.0,0.0,0.0,0.0,0.0,0.0,0.0,0.0,0.0,0.0,0.0,4.1474,4.3014,0.0,4.4587,4.4587,4.4587,4.3606,4.2354,4.0882,0.0,0.0,0.0,0.0,0.0,0.0,0.0,0.0,0.0,0.0,0.0,0.0,0.0,0.0,0.0,0.0,0.0,0.0,0.0,0.0,0.0,0.0,0.0,0.0,0.0,0.0,0.0,0.0,0.0,0.0,0.0,0.0,0.0,0.0,0.0,0.0,0.0,0.0,0.0,0.0,0.0,0.0,0.0,0.0,0.0,0.0,0.0,0.0,0.0,0.0,0.0,0.0,0.0,0.0,0.0,0.0,0.0,0.0,0.0,0.0,0.0,0.0,0.0,0.0,0.0,0.0,0.0,0.0,0.0,0.0,0.0,0.0,0.0,0.0,0.0,0.0,0.0,0.0,0.0,0.0,0.0,0.0,0.0,0.0,0.0,0.0,0.0,0.0,0.0,0.0,0.0,0.0,0.0,0.0,0.0,0.0,0.0,0.0,0.0,0.0,0.0,0.0,3.9834,4.1153,4.2591,0.0,4.4587,4.4587,4.4587,4.3436,4.2185,4.095,0.0,0.0,0.0,0.0,0.0,0.0,0.0,0.0,0.0,0.0,0.0,0.0,0.0,0.0,0.0,0.0,0.0,0.0,0.0,0.0,0.0,0.0,0.0,0.0,0.0,0.0,0.0,0.0,0.0,0.0,0.0,0.0,0.0,0.0,0.0,0.0,0.0,0.0,0.0,0.0,0.0,0.0,0.0,0.0,0.0,0.0,0.0,0.0,0.0,0.0,0.0,0.0,0.0,0.0,0.0,0.0,0.0,0.0,0.0,0.0,0.0,0.0,0.0,0.0,0.0,0.0,0.0,0.0,0.0,0.0,0.0,0.0,0.0,0.0,0.0,0.0,0.0,0.0,0.0,0.0,0.0,0.0,0.0,0.0,0.0,0.0,0.0,0.0,0.0,0.0,0.0,0.0,0.0,0.0,0.0,0.0,0.0,0.0,0.0,0.0,0.0,0.0,3.9884,4.2016,4.3707,4.4485,4.4587,4.4587,4.4587,4.2523,4.0899,0.0,0.0,0.0,0.0,0.0,0.0,0.0,0.0,0.0,0.0,0.0,0.0,0.0,0.0,0.0,0.0,0.0,0.0,0.0,0.0,0.0,0.0,0.0,0.0,0.0,0.0,0.0,0.0,0.0,0.0,0.0,0.0,0.0,0.0,0.0,0.0,0.0,0.0,0.0,0.0,0.0,0.0,0.0,0.0,0.0,0.0,0.0,0.0,0.0,0.0,0.0,0.0,0.0,0.0,0.0,0.0,0.0,0.0,0.0,0.0,0.0,0.0,0.0,0.0,0.0,0.0,0.0,0.0,0.0,0.0,0.0,0.0,0.0,0.0,0.0,0.0,0.0,0.0,0.0,0.0,0.0,0.0,0.0,0.0,0.0,0.0,0.0,0.0,0.0,0.0,0.0,0.0,0.0,0.0,0.0,0.0,0.0,0.0,0.0,0.0,0.0,0.0,0.0,3.9123,4.1255,4.3132,4.4434,4.4587,4.4587,4.4587,4.298,4.1221,3.9445,0.0,0.0,0.0,0.0,0.0,0.0,0.0,0.0,0.0,0.0,0.0,0.0,0.0,0.0,0.0,0.0,0.0,0.0,0.0,0.0,0.0,0.0,0.0,0.0,0.0,0.0,0.0,0.0,0.0,0.0,0.0,0.0,0.0,0.0,0.0,0.0,0.0,0.0,0.0,0.0,0.0,0.0,0.0,0.0,0.0,0.0,0.0,0.0,0.0,0.0,0.0,0.0,0.0,0.0,0.0,0.0,0.0,0.0,0.0,0.0,0.0,0.0,0.0,0.0,0.0,0.0,0.0,0.0,0.0,0.0,0.0,0.0,0.0,0.0,0.0,0.0,0.0,0.0,0.0,0.0,0.0,0.0,0.0,0.0,0.0,0.0,0.0,0.0,0.0,0.0,0.0,0.0,0.0,0.0,0.0,0.0,0.0,0.0,0.0,0.0,0.0,0.0,3.8775,4.0951,4.2878,4.4418,4.4587,4.4587,4.4587,4.3209,4.1483,3.9564,0.0,0.0,0.0,0.0,0.0,0.0,0.0,0.0,0.0,0.0,0.0,0.0,0.0,0.0,0.0,0.0,0.0,0.0,0.0,0.0,0.0,0.0,0.0,0.0,0.0,0.0,0.0,0.0,0.0,0.0,0.0,0.0,0.0,0.0,0.0,0.0,0.0,0.0,0.0,0.0,0.0,0.0,0.0,0.0,0.0,0.0,0.0,0.0,0.0,0.0,0.0,0.0,0.0,0.0,0.0,0.0,0.0,0.0,0.0,0.0,0.0,0.0,0.0,0.0,0.0,0.0,0.0,0.0,0.0,0.0,0.0,0.0,0.0,0.0,0.0,0.0,0.0,0.0,0.0,0.0,0.0,0.0,0.0,0.0,0.0,0.0,0.0,0.0,0.0,0.0,0.0,0.0,0.0,0.0,0.0,0.0,0.0,0.0,0.0,0.0,0.0,0.0,3.8716,4.0917,4.2861,4.4418,4.4587,4.4587,4.4587,4.3188,4.1694,4.0171,0.0,0.0,0.0,0.0,0.0,0.0,0.0,0.0,0.0,0.0,0.0,0.0,0.0,0.0,0.0,0.0,0.0,0.0,0.0,0.0,0.0,0.0,0.0,0.0,0.0,0.0,0.0,0.0,0.0,0.0,0.0,0.0,0.0,0.0,0.0,0.0,0.0,0.0,0.0,0.0,0.0,0.0,0.0,0.0,0.0,0.0,0.0,0.0,0.0,0.0,0.0,0.0,0.0,0.0,0.0,0.0,0.0,0.0,0.0,0.0,3.3677,0.0,0.0,0.0,0.0,0.0,0.0,0.0,0.0,0.0,0.0,0.0,0.0,0.0,0.0,0.0,0.0,0.0,0.0,0.0,0.0,0.0,0.0,0.0,0.0,0.0,0.0,0.0,0.0,0.0,0.0,0.0,0.0,0.0,0.0,0.0,0.0,0.0,0.0,0.0,0.0,0.0,3.8687,4.0949,4.2884,4.4456,4.4587,4.4587,4.4587,4.3188,4.1694,4.0171,3.8034,0.0,0.0,0.0,0.0,0.0,0.0,0.0,0.0,0.0,0.0,0.0,0.0,0.0,0.0,0.0,0.0,0.0,0.0,0.0,0.0,0.0,0.0,0.0,0.0,0.0,0.0,0.0,0.0,0.0,0.0,0.0,0.0,0.0,0.0,0.0,0.0,0.0,0.0,0.0,0.0,0.0,0.0,0.0,0.0,0.0,0.0,0.0,0.0,0.0,0.0,0.0,0.0,0.0,0.0,0.0,0.0,0.0,0.0,0.0,0.0,3.5098,0.0,0.0,0.0,0.0,0.0,0.0,0.0,0.0,0.0,0.0,0.0,0.0,0.0,0.0,0.0,0.0,0.0,0.0,0.0,0.0,0.0,0.0,0.0,0.0,0.0,0.0,0.0,0.0,0.0,0.0,0.0,0.0,0.0,0.0,0.0,0.0,0.0,0.0,0.0,0.0,3.872,4.0574,4.227,4.3794,4.3603,4.3362,4.3362,4.2311,4.1017,3.9558,3.7686,0.0,0.0,0.0,0.0,0.0,0.0,0.0,0.0,0.0,0.0,0.0,0.0,0.0,0.0,0.0,0.0,0.0,0.0,0.0,0.0,0.0,0.0,0.0,0.0,0.0,0.0,0.0,0.0,0.0,0.0,0.0,0.0,0.0,0.0,0.0,0.0,0.0,0.0,0.0,0.0,0.0,0.0,0.0,0.0,0.0,0.0,0.0,0.0,0.0,0.0,0.0,0.0,0.0,3.6959,3.7326,3.7696,3.7814,3.7949,3.7999,3.6578,3.6706,3.7855,0.0,0.0,0.0,0.0,0.0,0.0,0.0,0.0,0.0,0.0,0.0,0.0,0.0,0.0,0.0,0.0,0.0,0.0,0.0,0.0,0.0,0.0,0.0,0.0,0.0,3.5448,3.5622,0.0,0.0,0.0,0.0,0.0,0.0,0.0,0.0,0.0,0.0,0.0,0.0,3.8478,3.9995,4.1365,4.2932,4.2417,4.1986,4.1986,4.1334,4.0369,3.9089,3.7539,3.5915,0.0,0.0,0.0,0.0,0.0,0.0,0.0,0.0,0.0,0.0,0.0,0.0,0.0,0.0,0.0,0.0,0.0,0.0,0.0,0.0,0.0,0.0,0.0,0.0,0.0,0.0,0.0,0.0,0.0,0.0,0.0,0.0,3.2831,3.432,0.0,0.0,0.0,0.0,0.0,0.0,0.0,0.0,0.0,0.0,0.0,0.0,0.0,3.5337,3.5448,3.6719,3.6803,3.576,3.7691,3.7992,3.6901,3.7529,3.8121,3.8644,3.7776,0.0,3.7841,3.7053,0.0,0.0,0.0,0.0,0.0,0.0,0.0,0.0,0.0,0.0,0.0,0.0,0.0,0.0,0.0,0.0,0.0,0.0,0.0,0.0,0.0,0.0,3.8199,3.7416,3.728,3.7156,0.0,3.4743,3.3214,3.2359,0.0,0.0,0.0,0.0,0.0,0.0,0.0,0.0,3.7688,3.9166,4.0618,4.2013,4.2062,4.2015,4.2015,4.1318,4.06,3.9795,3.8369,3.7187,3.6305,3.4403,0.0,0.0,0.0,0.0,0.0,0.0,0.0,0.0,0.0,0.0,0.0,0.0,0.0,0.0,0.0,0.0,0.0,0.0,0.0,0.0,0.0,0.0,0.0,0.0,0.0,0.0,0.0,0.0,0.0,3.3068,3.3914,3.4996,3.4844,3.4489,0.0,0.0,0.0,0.0,0.0,0.0,0.0,0.0,0.0,3.4415,3.4759,3.5326,3.6201,3.7219,3.7617,3.7387,3.8785,3.9062,3.8448,3.8383,3.8497,3.8771,3.804,3.781,3.7789,3.7432,3.7064,3.6675,0.0,0.0,0.0,0.0,3.5133,3.5147,3.514,3.5112,0.0,0.0,0.0,0.0,0.0,0.0,0.0,0.0,0.0,0.0,0.0,0.0,0.0,3.7121,3.7025,3.6811,3.6144,3.5233,3.4202,0.0,3.3572,3.3777,3.2542,0.0,0.0,0.0,0.0,3.5958,3.8091,3.8854,3.9747,4.1092,4.0846,4.0535,4.0535,4.0209,3.9778,3.9101,3.8122,3.7105,3.6045,3.4748,3.3532,0.0,0.0,0.0,0.0,0.0,0.0,0.0,0.0,0.0,0.0,0.0,0.0,0.0,0.0,0.0,0.0,0.0,0.0,0.0,0.0,0.0,0.0,0.0,0.0,0.0,0.0,0.0,0.0,3.4032,3.4776,3.552,3.5977,3.5734,0.0,0.0,0.0,0.0,0.0,0.0,3.3991,3.4463,3.4943,3.5211,3.5243,3.5888,3.7186,3.7666,3.8128,3.8465,3.9171,3.947,3.947,3.9009,3.8772,3.874,3.7975,3.76,3.7487,3.7401,3.7144,3.6646,3.5855,3.5482,3.5324,3.5324,3.5338,3.529,3.5274,3.5262,3.5201,3.4774,0.0,3.4326,3.3751,0.0,0.0,0.0,0.0,3.5704,3.6325,3.6712,3.6971,3.6791,3.6748,3.6571,3.5923,3.5644,3.5165,0.0,3.4557,3.4816,3.3156,0.0,0.0,0.0,0.0,3.6229,3.8003,3.8446,3.9056,4.0209,3.9793,3.9424,3.9424,3.9424,3.9101,3.8426,3.7931,3.7162,3.6029,3.5195,3.4025,3.2527,0.0,0.0,0.0,0.0,0.0,0.0,0.0,0.0,0.0,0.0,0.0,0.0,0.0,0.0,0.0,0.0,0.0,0.0,0.0,0.0,0.0,0.0,0.0,0.0,0.0,0.0,0.0,0.0,0.0,3.552,3.6907,0.0,0.0,0.0,0.0,3.4441,3.508,3.5511,3.5511,3.5543,3.6182,3.7467,3.7514,3.7844,3.8521,3.8567,3.8223,3.7481,3.8284,3.8676,3.8676,3.866,3.8629,3.8565,3.7773,3.7091,3.6571,3.6661,3.6676,3.6637,3.5814,3.51,3.457,3.457,3.4545,3.4553,3.452,3.4553,3.4676,3.5239,3.5001,3.448,3.4456,3.4016,0.0,0.0,3.5036,3.5659,3.6325,3.7389,3.8117,3.752,3.7351,3.7162,3.6607,3.5969,3.532,0.0,3.449,3.4525,3.4401,0.0,3.3737,3.4322,3.5031,3.5789,3.6496,3.7664,3.8718,3.9409,3.9439,3.9424,3.9424,3.9424,3.9101,3.8426,3.8337,3.8078,3.7353,3.6125,3.5429,3.531,3.2736,0.0,0.0,0.0,0.0,0.0,0.0,0.0,0.0,0.0,0.0,0.0,0.0,0.0,0.0,0.0,0.0,0.0,0.0,0.0,0.0,0.0,0.0,0.0,0.0,0.0,0.0,0.0,0.0,3.5592,3.65,0.0,3.532,3.5265,3.5237,3.5179,3.5424,3.5587,3.5544,3.6372,3.6908,3.695,3.7284,3.7613,3.7849,3.8288,3.8295,3.8048,3.8747,3.9098,3.9083,3.8698,3.8273,3.7767,3.7106,3.6447,3.5833,3.5872,3.5932,3.5891,3.5609,3.5332,3.512,3.512,3.516,3.513,3.513,3.5115,3.5209,3.5415,3.535,3.5165,3.5165,3.5011,3.4916,3.5629,3.5969,3.6391,3.744,3.773,3.7724,3.7433,3.7103,3.6637,3.5999,3.5674,3.5394,3.5195,3.5165,3.5026,3.4579,3.4633,3.4733,3.4555,3.5474,3.64,3.7001,3.7849,3.8631,3.9307,3.9424,3.9424,3.9424,3.8969,3.8616,3.8411,3.7608,3.7053,3.6807,3.5945,3.5312,3.4887,3.3509,3.2049,0.0,0.0,0.0,0.0,0.0,0.0,0.0,0.0,0.0,0.0,0.0,0.0,0.0,0.0,0.0,0.0,0.0,0.0,0.0,0.0,0.0,0.0,0.0,0.0,0.0,0.0,3.5594,3.5619,3.6474,3.666,3.5638,3.5361,3.5326,3.5549,3.5552,3.5569,3.5523,3.6626,3.7101,3.6791,3.7404,3.7853,3.8078,3.8527,3.8736,3.8736,3.92,3.9424,3.9409,3.8945,3.8257,3.7389,3.6971,3.6312,3.5504,3.5504,3.5428,3.5311,3.5448,3.5504,3.5504,3.5504,3.5504,3.5504,3.5504,3.5504,3.5504,3.5504,3.5504,3.5504,3.5504,3.5504,3.5659,3.631,3.6646,3.7037,3.7822,3.7899,3.7664,3.7187,3.6791,3.631,3.5659,3.5504,3.5504,3.5504,3.5504,3.5365,3.4901,3.521,3.535,3.4901,3.5969,3.6947,3.7386,3.8206,3.8924,3.9322,3.9424,3.9292,3.9086,3.8631,3.8332,3.8053,3.7282,3.6807,3.6807,3.6175,3.5654,3.521,3.4103,3.2727,3.1167,0.0,0.0,0.0,0.0,0.0,0.0,0.0,0.0,0.0,0.0,0.0,0.0,0.0,0.0,0.0,0.0,0.0,0.0,0.0,0.0,0.0,0.0,0.0,3.3237,3.4677,3.5587,3.5607,3.686,3.7144,3.5656,3.6182,3.6275,3.5554,3.5504,3.5504,3.5504,3.6148,3.6791,3.7389,3.8063,3.8736,3.9409,3.9424,3.9424,3.9424,3.9424,3.9424,3.9424,3.9424,3.8691,3.7404,3.7336,3.6619,3.5439,3.5454,3.5169,3.485,3.5318,3.5519,3.5469,3.5489,3.5394,3.5394,3.5394,3.5394,3.5394,3.5394,3.5394,3.5394,3.5474,3.5474,3.5629,3.6325,3.693,3.7404,3.7433,3.7884,3.8035,3.6803,3.6496,3.6295,3.5659,3.5504,3.5504,3.5504,3.5504,3.5504,3.5504,3.5504,3.5504,3.5504,3.6591,0.0,3.7416,3.8572,3.9409,3.9424,3.9424,3.9116,3.844,3.8366,3.8068,3.743,3.7323,3.7323,3.7323,3.6793,3.6466,3.6466,3.4549,3.3156,3.253,0.0,0.0,0.0,0.0,0.0,0.0,0.0,0.0,0.0,0.0,0.0,0.0,0.0,0.0,0.0,0.0,0.0,0.0,0.0,0.0,0.0,0.0,3.3051,3.3446,3.4244,3.498,3.5486,3.5907,3.5961,3.5525,3.5676,3.5733,3.5504,3.5504,3.5504,3.5504,3.6552,3.724,3.7404,3.8527,3.923,3.9424,3.9424,3.9424,3.9424,3.9424,3.9424,3.9424,3.9424,3.8691,3.7336,3.6652,3.5642,3.4356,3.41,3.3677,3.3353,3.4913,3.5347,3.5004,3.4596,3.398,3.3398,3.3398,3.3398,3.3398,3.3398,3.3398,3.3521,3.4242,3.4425,3.4777,3.6637,3.7261,3.7608,3.8587,3.8237,3.7576,3.7258,3.6466,3.5704,3.5534,3.5504,3.5504,3.5504,3.5504,3.5504,3.5504,3.5504,3.5504,3.5504,3.6185,0.0,3.73,3.8119,3.8894,3.9322,3.9424,3.9116,3.844,3.7976,3.7425,3.6808,3.6295,3.6014,3.6014,3.5844,3.5799,3.5799,3.4286,3.3427,0.0,0.0,0.0,0.0,0.0,0.0,0.0,0.0,0.0,0.0,0.0,0.0,0.0,0.0,0.0,0.0,0.0,0.0,0.0,0.0,0.0,0.0,3.2045,3.2975,3.3774,3.4523,3.5045,3.5461,3.5492,3.5504,3.5504,3.5504,3.5504,3.5504,3.5504,3.5504,3.5504,3.6462,3.715,3.7404,3.8437,3.9125,3.9424,3.8943,3.8708,3.8708,3.8294,3.8055,3.8055,3.8055,3.7345,0.0,3.5596,3.4753,3.3691,3.3239,3.29,0.0,0.0,0.0,0.0,0.0,3.3097,3.2623,3.2623,3.2624,3.2611,3.2611,3.2611,3.2723,3.3213,3.3589,3.4103,3.5689,3.63,3.678,3.803,3.7519,3.6836,3.6955,3.6265,3.5504,3.5504,3.5504,3.5504,3.5504,0.0,0.0,3.5504,3.5504,3.5504,3.5504,3.6045,3.6667,3.6966,3.7585,3.8235,3.8924,3.8954,3.8792,3.8426,3.782,0.0,0.0,0.0,3.5504,3.5504,3.5504,0.0,0.0,0.0,0.0,0.0,0.0,0.0,0.0,3.3442,3.3517,0.0,0.0,0.0,0.0,0.0,0.0,0.0,0.0,0.0,0.0,0.0,0.0,0.0,0.0,0.0,0.0,3.2019,3.2482,3.4233,3.5064,3.5523,3.5494,3.5504,3.5504,3.5504,3.5504,3.5504,3.5504,3.5504,3.5504,3.5504,0.0,0.0,0.0,0.0,3.8478,3.9002,3.8069,3.7587,3.7587,3.6682,3.6198,3.6198,3.6198,3.5535,3.4375,3.4252,3.3853,3.3124,3.2621,3.2482,3.2712,3.3163,3.299,3.2554,3.2552,3.2431,0.0,0.0,0.0,0.0,3.2266,3.2266,3.2356,3.2513,3.2849,3.3431,3.424,3.4909,3.5501,3.6456,3.6214,3.5825,3.6163,3.5799,3.5335,3.5335,3.5394,3.5504,3.5504,3.5504,3.5504,3.5504,3.5504,3.5504,3.5504,3.5999,0.0,3.6481,3.6936,3.7617,3.8317,0.0,0.0,3.8411,3.7835,3.7253,3.6526,3.5954,3.5659,3.5689,3.5689,3.5954,3.6436,3.5493,3.5274,3.571,3.4873,3.4352,3.421,3.3394,3.325,0.0,0.0,0.0,0.0,0.0,0.0,0.0,0.0,0.0,0.0,0.0,0.0,0.0,0.0,0.0,3.1607,3.2916,3.4038,3.4427,3.5078,3.5469,3.5489,3.5504,3.5504,3.5504,3.5504,3.5504,3.5504,3.5504,3.5504,3.5504,3.6133,0.0,3.6228,3.6765,3.6989,3.6838,3.6604,3.6526,3.6526,0.0,0.0,3.6198,3.6198,3.5571,3.4367,3.3594,3.2662,3.1577,3.1138,3.128,3.1787,3.2593,3.2595,3.2093,3.2152,3.1376,3.0312,3.0312,3.033,3.0329,3.0329,3.0329,3.0573,3.1798,3.2193,0.0,3.4593,3.5176,3.5455,3.6109,3.5499,3.4725,3.4765,3.4564,3.4286,3.4286,3.4916,3.5504,3.5504,3.5504,3.5504,3.5504,3.5504,3.5504,3.5504,3.5629,3.5859,3.6451,3.6607,3.711,3.8274,3.8387,3.8411,3.8411,3.8288,3.7749,3.6587,3.6356,3.6496,3.6995,3.701,3.6682,3.6014,3.582,3.5349,3.4574,3.4979,3.4624,3.3791,3.3966,3.4373,0.0,0.0,0.0,0.0,0.0,0.0,0.0,0.0,0.0,0.0,0.0,3.0038,3.0488,0.0,3.2243,3.2901,3.3829,3.4607,3.4936,3.5295,3.5504,3.5504,3.5504,3.5504,3.5504,3.5504,3.5504,3.5504,3.5504,3.5504,3.5504,3.5363,3.5477,3.5856,3.5726,3.5769,3.617,3.5709,3.5432,3.5432,3.4914,3.4637,3.4637,3.4637,3.4146,3.3249,3.2497,3.185,3.1277,3.1079,3.1351,3.1851,3.2288,3.2143,3.1636,3.1365,3.0842,3.0175,2.9907,2.9792,2.9804,3.0072,3.0188,3.0431,3.1397,3.1911,3.2352,3.3458,3.3776,3.3951,3.474,3.4084,3.3352,3.3838,3.3648,3.3283,3.3281,3.4089,3.4747,3.4747,3.518,3.5504,3.5504,3.5504,3.5504,3.5504,3.5504,3.5644,3.5969,3.5999,3.6481,3.7778,3.7883,3.8206,3.8807,3.8587,3.7983,3.699,3.6933,3.7118,3.7366,3.6945,3.6532,3.6345,3.5348,3.4739,3.4525,3.4276,3.3938,3.3379,3.3639,3.3926,0.0,0.0,0.0,0.0,0.0,0.0,0.0,0.0,2.9804,2.9939,3.0357,3.0911,3.1541,3.2258,3.3095,3.4277,3.4592,3.4861,3.5429,3.5504,3.5504,3.5504,3.5504,3.5504,3.5504,3.5504,3.5439,3.5213,3.5213,3.5133,3.492,3.4187,3.4225,3.5265,3.4536,3.4543,3.5562,3.482,3.4366,3.4366,3.352,3.3081,3.3081,3.3081,3.2771,3.2142,3.1637,3.1401,3.1435,3.1472,3.1786,3.2204,3.2327,3.211,3.1652,3.0988,3.0696,3.0482,3.0022,2.9894,3.0047,3.0457,3.0633,3.0846,3.1391,3.182,3.2204,3.2339,3.2314,3.2388,3.3255,3.2588,3.1964,3.283,3.2669,3.2328,3.2305,3.3182,3.397,3.4002,3.4777,3.5504,3.5504,3.5504,3.5504,3.5504,3.5504,3.5504,3.5504,3.5629,3.614,3.7292,3.7535,3.8074,3.9292,3.8778,3.8221,3.778,3.7634,3.7564,3.7448,3.6722,3.6344,3.6358,3.4788,3.4088,3.4401,3.3515,3.3081,3.3081,3.3081,3.3081,3.136,2.9983,2.8876,2.9998,2.949,2.916,0.0,0.0,3.0567,3.118,3.1317,3.1556,3.2273,3.2946,3.3619,3.4352,3.4996,3.5415,3.5489,3.5504,3.5504,3.5504,3.5504,3.5504,3.5504,3.5504,3.5133,3.4245,3.4177,3.3808,3.2961,3.2849,3.2874,3.3144,3.3036,3.3144,3.3395,3.3322,3.3322,3.3322,3.3129,3.3081,3.3081,3.3081,3.2771,3.2203,3.1589,3.1397,3.1448,3.1884,3.2179,3.2216,3.2771,3.293,3.2814,3.1699,3.1028,3.0482,3.0022,3.0072,3.0482,3.0585,3.0954,3.1406,3.1967,3.2153,3.2327,3.2882,3.2623,3.2199,3.2341,3.1538,3.0775,3.0919,3.1139,3.1332,3.1341,3.2774,3.4007,3.3987,3.4777,3.5504,3.5504,3.5504,3.5504,3.5504,3.5504,3.5504,3.5504,3.6014,3.6637,3.7323,3.7913,3.8587,3.9307,3.8778,3.8629,3.9167,3.8614,3.8104,3.7753,3.7622,3.6736,3.4952,3.4671,3.4126,3.3242,3.3192,3.3081,3.3081,3.3081,3.3081,3.1046,3.0627,0.0,0.0,3.0402,3.0522,3.1287,3.13,3.118,3.1422,3.1839,3.2302,3.2961,3.3619,3.4277,0.0,3.5325,3.5504,3.5504,3.5504,3.5504,3.5504,3.5504,3.5504,3.5504,3.5504,3.5067,3.4095,3.397,3.3571,3.2612,3.2346,3.2453,3.2796,3.2546,3.2697,3.3056,3.3081,3.3081,3.3081,3.3081,3.3081,3.3081,3.3081,3.2771,3.2154,3.1651,3.1567,3.1896,3.2114,3.245,3.2759,3.3031,3.3081,3.3031,3.2179,3.17,3.1423,3.0881,3.0868,3.1099,3.1417,3.1717,3.1933,3.2512,3.2746,3.2746,3.261,3.2179,3.1685,3.1327,3.0714,3.0163,3.0163,3.0291,3.0431,3.0431,3.1423,3.2345,3.2354,3.3122,3.3812,3.3812,3.4271,3.4608,3.4608,3.5165,3.5659,3.6014,3.6325,3.6884,3.7848,3.859,3.9101,3.9409,3.9116,3.9101,3.9409,3.8572,3.7943,3.7783,3.6683,3.5559,3.4702,3.4101,3.3528,3.3081,3.3081,3.3081,3.3081,3.3081,3.3081,3.0926,0.0,0.0,3.0821,3.1016,3.1243,3.1437,3.1482,3.1482,3.1482,3.1913,3.2437,3.3095,3.3769,3.4427,3.5115,3.5385,3.5504,3.5504,3.5504,3.5504,3.5504,3.5504,3.5359,3.5133,3.5067,3.4595,3.3338,3.3218,3.2817,3.1864,3.1712,3.1842,3.2391,3.2239,3.2465,3.3068,3.3081,3.3081,3.3081,3.3081,3.3081,3.3068,3.292,3.2594,3.219,3.1797,3.1884,3.2191,3.2031,3.2352,3.3043,3.2339,3.2314,3.2475,3.1737,3.1506,3.1647,3.1099,3.0813,3.0816,3.1843,3.2056,3.2056,3.2895,3.3081,3.3043,3.2598,3.2052,3.151,3.0993,3.056,3.0175,2.9894,2.9919,2.9945,2.9804,3.0573,3.1235,3.1377,3.2192,3.2803,3.2803,3.3514,3.4008,3.3864,3.444,3.532,3.634,3.6803,3.7473,3.8555,3.9101,3.9424,3.9424,3.9116,3.8939,3.8939,3.7929,3.72,3.6973,3.5517,3.4551,3.4251,3.3503,3.3081,3.3081,3.3081,3.3081,3.3081,3.3081,3.3081,0.0,0.0,2.9939,3.1195,3.1016,3.0717,3.1317,3.1482,3.1482,3.1482,3.1497,3.1764,3.2422,3.308,3.3739,3.4397,3.507,3.5504,3.5504,3.5504,3.5504,3.5504,3.5504,3.5133,0.0,3.4027,3.3254,3.1422,3.1263,3.09,2.9921,3.0368,3.0907,3.1448,3.1958,3.2536,3.3068,3.3081,3.3081,3.3081,3.3081,3.3081,3.3068,3.2487,3.2205,3.2202,3.2152,3.2191,3.2179,3.1491,3.1933,3.2895,3.0491,3.0236,3.1076,2.9945,2.991,3.0396,2.9863,2.9211,2.9067,3.1443,3.1761,3.1467,3.2746,3.3081,3.3081,3.3068,3.2649,3.2058,3.1539,3.1384,3.1113,3.0047,3.0188,3.0444,2.9919,3.0573,3.1371,3.1849,3.2694,3.3386,3.3386,3.3846,3.4085,3.3535,3.3412,3.4177,3.6265,3.7575,3.8644,3.9277,3.9409,3.9424,3.9424,3.844,3.787,3.787,3.6809,3.5843,3.4842,3.4762,3.4238,3.3192,3.3081,3.3081,3.3081,3.3081,3.3081,3.3081,3.3081,3.3081,3.0851,0.0,3.0986,3.1362,3.1302,3.124,3.1422,3.1482,3.1482,3.1482,3.1482,3.1676,3.2392,3.2691,3.32,3.4292,3.4666,3.4981,3.5444,3.492,3.4476,3.4476,3.3973,0.0,0.0,0.0,0.0,3.1322,3.1196,3.0818,2.9806,3.0611,3.1248,3.1369,3.2274,3.2907,3.3081,3.3081,3.3081,3.3068,3.1933,3.1602,3.1773,3.0102,2.9677,3.0341,3.0002,3.0474,3.1467,3.0393,3.0725,3.1681,3.008,2.9653,2.9862,2.8636,2.8362,2.8636,2.9289,2.9342,2.9283,3.0045,3.0157,3.0236,3.1479,3.1884,3.1921,3.2352,3.2381,3.2097,3.1539,3.142,3.1265,3.0939,3.0716,3.0611,3.0842,3.0842,3.0984,3.1526,3.1822,3.2084,3.2084,3.2735,3.3419,3.3951,3.4399,3.503,3.6069,3.7225,3.8381,3.9292,3.9424,3.9101,3.8411,3.8045,3.7469,3.6782,3.5805,3.5054,3.4676,3.3977,3.349,3.3081,3.3081,3.3081,3.3081,3.3081,3.3081,3.3081,3.3081,3.3328,3.0806,3.1016,3.1225,3.1422,3.1482,3.1482,3.1482,3.1482,3.1407,3.121,3.1165,3.1285,3.1719,3.2003,3.2602,3.3903,3.4322,3.4711,3.5415,3.461,3.4027,3.4027,3.3171,3.2222,0.0,0.0,0.0,3.0826,3.0695,3.0427,2.9819,3.0611,3.1082,3.1125,3.2191,3.2598,3.2167,3.2771,3.2895,3.2364,3.0905,3.0307,3.0474,2.8924,2.8508,2.9078,2.8553,2.8982,2.9917,2.8745,2.9139,3.0207,2.8543,2.8222,2.8568,2.7339,2.6926,2.7073,2.8289,2.843,2.8214,2.9159,2.9074,2.9015,3.0235,3.0849,3.132,3.1749,3.2179,3.2352,3.1786,3.1868,3.1889,3.1467,3.1286,3.1175,3.1332,3.1105,3.1065,3.1614,3.1676,3.1651,3.1651,3.218,3.2826,3.3436,3.4068,3.4797,3.5642,3.6642,3.7462,3.8206,3.825,3.7943,3.7273,3.6939,3.638,3.5667,3.4702,3.4114,3.4114,3.349,3.3081,3.3081,3.3081,3.3081,3.3081,3.3081,3.3081,3.3081,3.3328,3.3528,3.13,3.1031,3.0717,3.1317,3.1482,3.1482,3.1482,3.1452,3.13,3.0642,3.0477,3.0447,0.0,0.0,3.1913,3.323,3.3993,3.4603,3.532,3.4543,3.3876,0.0,0.0,0.0,0.0,0.0,0.0,2.9908,0.0,2.9792,2.9792,3.0316,3.0603,3.0579,3.1614,3.1639,3.0369,3.2044,3.2265,3.1122,2.9879,2.9254,2.9255,2.8653,2.8408,2.8408,2.799,2.78,2.771,2.663,2.7147,2.8421,2.5995,2.6025,2.7329,2.6142,2.5742,2.5879,2.7063,2.6681,2.6132,2.8429,2.8418,2.7734,2.8955,3.0158,3.111,3.1222,3.2167,3.2932,3.2352,3.2648,3.2796,3.1749,3.1884,3.2062,3.1613,3.1455,3.1614,3.2167,3.2216,3.2216,3.2216,3.2216,3.2216,3.2216,3.2759,3.3639,3.5029,3.5747,3.6142,3.6171,3.6185,3.6171,3.6142,3.5224,3.4689,3.4577,3.3652,3.3081,3.3081,3.3081,3.3081,3.3081,3.3081,3.3081,3.3081,3.3081,3.3081,3.3081,3.3652,3.3878,3.0717,3.1016,3.1315,3.1437,3.1482,3.1482,3.1482,3.1135,3.0717,3.0537,3.0133,2.9819,0.0,0.0,0.0,3.2542,3.2706,0.0,3.4234,3.2961,0.0,3.1888,0.0,3.0419,3.0165,3.0164,0.0,0.0,2.9792,2.9792,2.9792,3.0316,3.0595,3.0595,3.1608,3.1518,2.9957,2.9945,2.9854,2.9864,2.7967,2.7463,2.7978,2.6217,2.5625,2.6005,2.5879,2.6158,2.661,2.5409,2.5664,2.6812,2.5609,2.5363,2.5742,2.5742,2.5742,2.5752,2.6025,2.5995,2.5762,2.6416,2.6416,2.6406,2.7723,2.885,3.006,3.0942,3.2167,3.3056,3.2907,3.2945,3.3043,3.2759,3.2462,3.2313,3.2622,3.2347,3.2179,3.2771,3.2895,3.2895,3.2895,3.2895,3.2895,3.2895,3.3031,3.3354,3.4101,3.4756,3.5381,3.6156,3.6183,3.5883,3.511,3.4881,3.4388,3.3528,3.323,3.3081,3.3081,3.3081,3.3081,3.3081,3.3081,3.3081,3.3081,3.3081,3.3081,3.3081,3.3652,3.4098,3.1465,3.1659,3.1898,3.1541,3.1482,3.1392,3.115,3.0776,3.0342,2.9774,2.94,0.0,2.9146,2.9669,0.0,0.0,0.0,0.0,3.3494,3.2228,3.118,0.0,3.0343,0.0,2.9792,2.9792,2.9792,0.0,2.9792,2.9792,2.9792,3.0072,3.0213,3.0213,3.0585,3.0233,2.908,2.7553,2.7294,2.8011,2.6279,2.5727,2.6145,2.491,2.4579,2.4802,0.0,2.4786,2.5165,2.421,2.4456,2.5409,2.4965,2.5059,2.5373,2.5616,2.5742,2.5742,2.5742,2.5742,2.5742,2.5742,2.5742,2.5898,2.7201,2.8418,2.9609,3.0849,3.2167,3.3081,3.3081,3.3081,3.3081,3.3081,3.2796,3.2648,3.3043,3.2796,3.2746,3.3043,3.3081,3.3081,3.3081,3.3081,3.3081,3.3081,3.3081,3.3205,3.349,3.3801,3.4238,3.474,3.4852,3.4577,3.4075,3.3977,3.3776,3.3179,3.3081,3.3081,3.3081,3.3081,3.3081,3.3081,3.3081,3.3081,3.3081,3.3081,3.3217,3.349,3.3977,3.454,3.2542,3.2377,3.2243,3.1616,3.1482,3.1287,3.0657,3.0432,3.0043,2.8846,0.0,2.8472,2.8472,2.9011,2.9879,3.1008,0.0,3.1911,3.2673,3.1684,3.0952,3.1031,3.0279,2.9792,2.9792,2.9792,2.9792,2.9792,2.9792,2.9792,2.9792,2.9792,2.9779,2.9664,2.8954,2.8315,2.7908,2.5528,2.49,2.6038,2.489,2.4365,2.4388,2.4339,2.4277,2.4307,0.0,0.0,2.372,2.3271,2.3515,2.424,2.4354,2.4901,2.5499,2.5625,2.5742,2.5742,2.5742,2.5742,2.5742,2.5742,2.5742,2.5888,2.7053,2.8208,2.9448,3.0607,3.1896,3.2907,3.3056,3.3081,3.3081,3.3081,3.3081,3.3081,3.3081,3.3081,3.3081,3.3081,3.3081,3.3081,3.3081,3.3081,3.3081,3.3081,3.3081,3.3081,3.3081,3.3081,3.3081,3.3081,3.3081,3.3081,3.3081,3.3081,3.3081,3.3081,3.3081,3.3081,3.3081,3.3081,3.3081,3.3081,3.3081,3.3081,3.3081,3.3192,3.3477,3.3938,3.4546,3.5098,3.1734,3.1646,3.1616,3.1497,3.1482,3.1287,3.0657,3.0103,0.0,0.0,2.8143,2.7754,2.7754,2.8308,2.8961,2.9595,2.952,2.9714,3.0764,2.993,2.9454,0.0,2.9934,2.9792,2.9792,0.0,0.0,0.0,0.0,2.9792,2.9792,2.9792,2.9549,2.9105,2.7693,2.6812,2.6649,2.4781,2.4197,2.4694,2.4197,2.4048,2.4358,2.4058,2.386,2.393,2.3859,0.0,2.3251,2.3144,2.3164,2.3408,2.4124,2.4477,2.4723,2.5479,2.5742,2.5742,2.5742,2.5742,2.5742,2.5742,2.5742,2.5752,2.5995,2.6879,2.8141,2.9398,3.0625,3.1761,3.2796,3.3081,3.3081,3.3081,3.3081,3.3081,3.3081,3.3081,3.3081,3.3081,3.3081,3.3081,3.3081,3.3081,3.3081,3.3081,3.3081,3.3081,3.3081,3.3081,3.3081,3.3081,3.3081,3.3081,3.3081,3.3081,3.3081,3.3081,3.3081,3.3081,3.3081,3.3081,3.3081,3.3081,3.3081,3.3081,3.3081,3.3528,3.3801,3.3964,3.4914,3.5369,3.2138,3.2048,3.1958,3.1556,3.1482,3.127,3.0253,0.0,0.0,0.0,2.7799,2.7625,2.7625,2.8128,0.0,2.9351,2.9114,2.9118,2.9943,2.9404,0.0,2.9315,2.9616,2.9792,0.0,0.0,0.0,0.0,0.0,2.9792,2.9792,2.9792,2.9142,2.7717,2.6931,2.5911,2.4682,2.3857,2.3505,2.373,2.3505,2.3515,2.373,2.3505,2.374,2.4317,2.373,0.0,2.3964,2.3378,2.3612,2.4301,2.4323,2.4847,2.5616,2.5635,2.5742,2.5742,2.5742,2.5742,2.5762,2.6513,2.6259,2.5869,2.6523,2.7138,2.8001,2.9782,3.0749,3.1479,3.2771,3.3081,3.3081,3.3081,3.3081,3.3081,3.3081,3.3081,3.3081,3.3081,3.3081,3.3081,3.3081,3.3081,3.3081,3.3081,3.3081,3.3081,3.3081,3.3081,3.3081,3.3081,3.3081,3.3081,3.3081,3.3081,3.3081,3.3081,3.3081,3.3081,3.3081,3.3081,3.3081,3.3081,3.3081,3.3081,3.3081,3.3652,3.4072,3.4329,3.509,3.568,3.2437,3.2302,3.2183,3.1601,3.1362,3.1001,2.9849,2.9475,0.0,0.0,2.7625,2.7625,2.7625,0.0,2.8584,0.0,2.8954,2.8878,2.9436,2.9091,2.876,0.0,2.9151,0.0,0.0,0.0,0.0,0.0,0.0,0.0,2.9792,2.9792,2.8762,2.6605,2.6473,2.5424,2.3144,2.3378,2.3378,2.3144,2.3612,2.3612,2.3144,2.3622,2.42,2.4779,2.4135,0.0,0.0,2.421,2.4563,2.5609,2.4974,2.5702,2.6808,2.6005,2.5762,2.5995,2.6025,2.6015,2.6152,2.7585,2.6936,2.5898,2.7201,2.7447,2.7616,2.9808,3.0595,3.1076,3.2352,3.2907,3.3081,3.3081,3.3081,3.3081,3.3081,3.3081,3.3081,3.3081,3.3081,3.3081,3.3081,3.3081,3.3081,3.3081,3.3081,3.3081,3.3081,3.3081,3.3081,3.3081,3.3081,3.3081,3.3081,3.3081,3.3081,3.3081,3.3081,3.3081,3.3081,3.3081,3.3081,3.3081,3.3081,3.3192,3.323,3.3801,3.4337,3.4899,3.5404,3.5981,3.1586,3.1556,3.1556,3.1497,3.1061,3.0417,2.9729,0.0,0.0,2.7775,2.7625,2.7625,2.7625,2.7619,0.0,0.0,0.0,0.0,2.8585,2.8578,2.8459,2.8176,0.0,0.0,0.0,0.0,0.0,0.0,0.0,0.0,2.9792,2.9792,2.8762,2.6605,2.6473,2.5424,2.3144,2.4102,2.4102,2.3144,2.5186,2.5068,2.3154,2.5197,2.5672,2.4836,2.5772,0.0,0.0,2.6269,2.6279,2.6357,2.6049,2.6735,2.7606,2.6259,2.6142,2.6808,2.7319,2.7181,2.7063,2.8686,2.7606,2.5898,2.7201,2.6798,2.6142,2.7585,2.8679,2.9836,3.1063,3.2204,3.3081,3.3081,3.3081,3.3081,3.3081,3.3081,3.3081,3.3081,3.3081,3.3081,3.3081,3.3081,3.3081,3.3081,3.3081,3.3081,3.3081,3.3081,3.3081,3.3081,3.3081,3.3081,3.3081,3.3081,3.3081,3.3081,3.3081,3.3081,3.3081,3.3081,3.3081,3.3081,3.3081,3.3354,3.3814,3.4388,3.4933,3.5404,3.6018,3.6345,3.1362,3.1482,3.1482,3.1482,3.1016,3.0342,2.9729,0.0,2.8412,2.776,2.7625,2.7625,2.7625,2.7625,0.0,0.0,0.0,0.0,2.9464,2.9394,2.904,2.8446,2.8622,0.0,0.0,0.0,0.0,0.0,0.0,0.0,2.9257,2.9639,2.9118,2.749,2.6836,2.5683,2.4102,2.4574,2.4235,2.3114,2.5445,2.5296,2.3145,2.5477,2.6247,2.585,2.6299,0.0,0.0,2.6758,2.6873,2.7406,2.6878,2.7599,2.8796,2.7817,2.7806,2.8389,2.8272,2.8112,2.8116,2.9568,2.888,2.7581,2.8413,2.8289,2.815,2.9397,3.0108,3.0813,3.2042,3.2746,3.3081,3.3081,3.3081,3.3081,3.3081,3.3081,3.3081,3.3081,3.3081,3.3081,3.3081,3.3081,3.3081,3.3081,3.3081,3.3081,3.3081,3.3081,3.3081,3.3081,3.3081,3.3081,3.3081,3.3081,3.3081,3.3081,3.3081,3.3081,3.3081,3.3081,3.3081,3.3081,3.3421,3.3644,3.3909,3.4738,3.5311,3.5523,3.615,3.6358,3.1106,3.1375,3.1482,3.1482,3.1016,3.0342,0.0,2.9086,2.8427,2.7724,2.7625,2.7625,2.7625,2.7625,2.8032,0.0,0.0,0.0,0.0,3.0104,2.9536,0.0,0.0,0.0,0.0,0.0,0.0,0.0,0.0,0.0,0.0,2.9245,2.9118,2.8118,2.7346,2.6431,2.5295,2.5651,2.5167,2.4094,2.6422,2.6312,2.4138,2.6466,2.7284,2.699,0.0,0.0,0.0,2.7753,2.7878,2.8509,2.7854,2.8585,2.975,2.8692,2.8813,2.9509,2.9001,2.8963,2.9106,3.0301,3.0266,2.9753,3.0066,2.9858,2.9592,3.0435,3.0876,3.146,3.2735,3.3081,3.3081,3.3081,3.3081,3.3081,3.3081,3.3081,3.3081,3.3081,3.3081,3.3081,3.3081,3.3081,3.3081,3.3081,3.3081,3.3081,3.3081,3.3081,3.3081,3.3081,3.3081,3.3081,3.3081,3.3081,3.3081,3.3081,3.3081,3.3081,3.3081,3.3081,3.3081,3.3081,3.3593,3.3983,3.4139,3.5034,3.5561,3.5824,3.6188,3.6358,3.0507,3.1016,3.1482,3.1482,3.1016,3.0342,2.9729,2.9077,2.8435,2.7724,2.7625,2.7625,2.7625,2.7625,2.8032,0.0,0.0,0.0,0.0,3.0279,0.0,0.0,0.0,0.0,0.0,0.0,0.0,0.0,0.0,0.0,0.0,2.8623,2.8635,2.8118,2.8118,2.7533,2.6508,2.7557,2.7504,2.6527,2.871,2.8605,2.6562,2.8757,2.9189,0.0,0.0,0.0,0.0,2.9779,2.9779,2.9677,2.9015,2.9537,3.0375,2.844,2.862,2.975,2.9679,2.9709,2.9957,3.1035,3.1719,3.2179,3.2204,3.0843,2.9437,2.9449,3.0272,3.1504,3.2771,3.3081,3.3081,3.3081,3.3081,3.3081,3.3081,3.3081,3.3081,3.3081,3.3081,3.3081,3.3081,3.3081,3.3081,3.3081,3.3081,3.3081,3.3081,3.3081,3.3081,3.3081,3.3081,3.3081,3.3081,3.3081,3.3081,3.3081,3.3081,3.3081,3.3081,3.3081,3.3081,3.3081,3.3593,3.4176,3.4719,3.5223,3.5837,3.6358,3.6358,3.6358,2.9864,3.0324,3.073,3.0297,3.0024,2.9708,2.9028,2.8744,2.8393,2.773,2.7625,2.7625,2.7625,2.7625,2.8032,2.9408,0.0,0.0,0.0,0.0,0.0,2.8811,0.0,0.0,0.0,0.0,0.0,0.0,0.0,0.0,0.0,2.8092,2.8445,2.8676,2.8256,2.7963,2.7591,2.7962,2.7584,2.6516,2.8754,2.8614,2.6551,2.879,0.0,0.0,0.0,0.0,0.0,2.9792,2.9792,2.9779,2.9549,2.9932,3.0533,2.9898,3.0418,3.1347,3.0979,3.082,3.0997,3.1694,3.1784,3.1805,3.2591,3.2364,3.1921,3.1921,3.2191,3.261,3.3031,3.3081,3.3081,3.3081,3.3081,3.3081,3.3081,3.3081,3.3081,3.3081,3.3081,3.3081,3.3081,3.3081,3.3081,3.3081,3.3081,3.3081,3.3081,3.3081,3.3081,3.3081,3.3081,3.3081,3.3081,3.3081,3.3081,3.3081,3.3081,3.3081,3.3081,3.3081,3.3257,3.3633,3.4197,3.4757,3.522,3.5843,3.6188,3.637,3.6747,3.6923,0.0,3.0063,3.0048,2.9714,2.9607,2.9444,2.8771,2.8586,2.8405,2.7739,2.7625,2.7625,2.7625,2.7625,2.7936,2.9042,0.0,0.0,0.0,0.0,0.0,2.9223,0.0,0.0,0.0,0.0,0.0,0.0,0.0,0.0,0.0,2.7503,2.794,2.825,2.8332,2.8382,2.8382,2.8623,2.8382,2.7741,2.9142,2.9118,2.7753,2.9142,0.0,0.0,0.0,0.0,0.0,2.9792,2.9792,2.9792,2.9792,3.0035,3.0316,3.0316,3.0984,3.185,3.1292,3.1339,3.172,3.1837,3.1836,3.1851,3.2802,3.3081,3.3081,3.3081,3.3081,3.3081,3.3081,3.3081,3.3081,3.3081,3.3081,3.3081,3.3081,3.3081,3.3081,3.3081,3.3081,3.3081,3.3081,3.3081,3.3081,3.3081,3.3081,3.3081,3.3081,3.3081,3.3081,3.3081,3.3081,3.3081,3.3081,3.3081,3.3081,3.3081,3.3081,3.3081,3.3081,3.3081,3.3332,3.3884,3.4449,3.4989,3.5542,3.6094,3.6358,3.637,3.6923,3.7186,0.0,3.0129,2.9555,2.9559,2.9529,2.9357,2.8669,2.8555,0.0,2.772,2.7625,2.7625,2.7625,2.7625,2.7795,2.8505,0.0,0.0,0.0,3.1025,0.0,0.0,0.0,0.0,0.0,0.0,0.0,0.0,0.0,0.0,0.0,2.6998,2.725,2.725,2.8225,2.8842,2.8889,2.9512,2.9792,2.9792,2.9792,2.9792,2.9792,2.9792,0.0,0.0,0.0,0.0,0.0,2.9792,2.9792,2.9792,2.9792,2.9792,2.9792,2.9792,3.0457,3.1305,3.0784,3.1332,3.2029,3.1634,3.182,3.2352,3.292,3.3081,3.3081,3.3081,3.3081,3.3081,3.3081,3.3081,3.3081,3.3081,3.3081,3.3081,3.3081,3.3081,3.3081,3.3081,3.3081,3.3081,3.3081,3.3081,3.3081,3.3081,3.3081,3.3081,3.3081,3.3081,3.3081,3.3081,3.3081,3.3081,3.3081,3.3081,3.3081,3.3081,3.3081,3.3081,3.3081,3.3119,3.3395,3.3947,3.4537,3.509,3.5604,3.6119,3.6383,3.6433,3.6985,3.7262,3.1275,0.0,2.941,2.8899,2.8783,2.8686,0.0,2.8234,0.0,0.0,0.0,0.0,0.0,0.0,0.0,0.0,0.0,0.0,3.0436,0.0,0.0,0.0,0.0,0.0,0.0,0.0,0.0,0.0,0.0,0.0,0.0,2.6653,2.6678,2.6678,2.7316,2.8059,2.8876,2.9512,2.9792,2.9792,2.9792,2.9792,2.9792,2.9792,0.0,0.0,0.0,0.0,2.9792,2.9792,2.9792,2.9792,2.9792,2.9792,2.9792,2.9792,3.02,3.08,3.1146,3.1357,3.1663,3.1903,3.2372,3.2907,3.3056,3.3081,3.3081,3.3081,3.3081,3.3081,3.3081,3.3081,3.3081,3.3081,3.3081,3.3081,3.3081,3.3081,3.3081,3.3081,3.3081,3.3081,3.3081,3.3081,3.3081,3.3081,3.3081,3.3081,3.3081,3.3081,3.3081,3.3081,3.3081,3.3081,3.3081,3.3081,3.3081,3.3081,3.3081,3.3081,3.3081,3.3483,3.396,3.4512,3.5479,3.6044,3.6169,3.6295,3.6571,3.6998,3.755,3.8052,3.1913,3.0696,2.9469,2.9443,2.92,2.8915,2.8617,0.0,0.0,0.0,0.0,0.0,0.0,0.0,0.0,0.0,2.9169,0.0,0.0,0.0,0.0,0.0,0.0,0.0,0.0,0.0,0.0,0.0,0.0,0.0,0.0,2.6533,2.6533,2.6533,2.7023,2.7738,2.8484,2.9118,2.9524,2.9792,2.9792,2.9792,2.9792,2.9792,2.9792,0.0,0.0,0.0,2.9792,2.9792,2.9792,2.9792,2.9792,2.9792,2.9792,2.9792,3.0316,3.1022,3.1291,3.1776,3.2204,3.25,3.2796,3.3081,3.3081,3.3081,3.3081,3.3081,3.3081,3.3081,3.3081,3.3081,3.3081,3.3081,3.3081,3.3081,3.3081,3.3081,3.3081,3.3081,3.3081,3.3081,3.3081,3.3081,3.3081,3.3081,3.3081,3.3081,3.3081,3.3081,3.3081,3.3081,3.3081,3.3081,3.3081,3.3081,3.3081,3.3081,3.3081,3.3194,3.3445,3.3746,3.4274,3.509,3.5931,3.6358,3.6358,3.6358,3.6646,3.7199,3.7751,3.8316,3.2474,3.1157,3.0055,3.0376,3.0057,2.9645,0.0,0.0,0.0,0.0,0.0,0.0,0.0,0.0,0.0,0.0,0.0,0.0,3.1357,3.1482,0.0,0.0,0.0,0.0,0.0,0.0,0.0,0.0,0.0,0.0,0.0,2.6533,2.6533,2.6533,2.6917,2.7452,2.7983,2.859,2.9142,2.9651,2.9779,2.9792,2.9792,2.9792,2.9792,0.0,0.0,0.0,2.9792,2.9792,2.9792,2.9792,2.9792,2.9792,2.9792,2.9792,3.0444,3.1306,3.1512,3.2212,3.3081,3.3081,3.3081,3.3081,3.3081,3.3081,3.3081,3.3081,3.3081,3.3081,3.3081,3.3081,3.3081,3.3081,3.3081,3.3081,3.3081,3.3081,3.3081,3.3081,3.3081,3.3081,3.3081,3.3081,3.3081,3.3081,3.3081,3.3081,3.3081,3.3081,3.3081,3.3081,3.3081,3.3106,3.3194,3.3206,3.3244,3.3319,3.3257,3.3483,3.4123,3.4148,3.4625,3.5655,3.6119,3.6358,3.6358,3.6445,3.6772,3.7324,3.7877,3.8442,3.2332,3.2139,3.1666,3.0593,3.033,3.0206,0.0,0.0,0.0,0.0,0.0,0.0,0.0,0.0,0.0,0.0,0.0,0.0,0.0,0.0,0.0,0.0,0.0,0.0,0.0,0.0,0.0,0.0,0.0,0.0,0.0,2.6533,2.6533,2.6533,2.6559,2.6854,2.7424,2.8438,2.8978,2.9015,2.9537,2.9792,2.9792,2.9792,2.9792,0.0,0.0,2.9792,2.9792,2.9792,2.9792,2.9792,2.9792,2.9792,2.9792,2.9792,3.0188,3.0853,3.1768,3.2509,3.3081,3.3081,3.3081,3.3081,3.3081,3.3081,3.3081,3.3081,3.3081,3.3081,3.3081,3.3081,3.3081,3.3081,3.3081,3.3081,3.3081,3.3081,3.3081,3.3081,3.3081,3.3081,3.3081,3.3081,3.3081,3.3081,3.3081,3.3081,3.3081,3.3081,3.3081,3.3081,3.3081,3.3269,3.3734,3.3771,3.3972,3.4449,3.4035,3.4223,3.5253,3.529,3.5592,3.6219,3.632,3.6358,3.6358,3.6835,3.7337,3.7889,3.8467,3.9032,3.1805,3.2023,3.2193,3.1512,3.1765,0.0,0.0,0.0,0.0,0.0,0.0,0.0,0.0,0.0,0.0,0.0,0.0,0.0,0.0,0.0,0.0,0.0,0.0,0.0,0.0,0.0,0.0,0.0,0.0,0.0,0.0,0.0,2.6533,2.6533,2.6533,2.6653,2.6891,2.7675,2.8338,2.8889,2.9155,2.9512,2.9792,2.9792,2.9792,2.9792,0.0,2.9792,2.9792,2.9792,2.9792,2.9792,2.9792,2.9792,2.9867,3.0444,3.1022,3.1567,3.2409,3.2895,3.3081,3.3081,3.3081,3.3081,3.3081,3.3081,3.3081,3.3081,3.3081,3.3081,3.3081,3.3081,3.3081,3.3081,3.3081,3.3081,3.3081,3.3081,3.3081,3.3081,3.3081,3.3081,3.3081,3.3081,3.3081,3.3081,3.3081,3.3081,3.3081,3.3081,3.3081,3.3081,3.3345,3.3621,3.3872,3.4173,3.4449,3.47,3.4763,3.5014,3.5516,3.583,3.6107,3.6358,3.6358,3.6358,3.6358,3.691,3.7462,3.8015,3.8605,3.917,3.1613,3.1875,3.2337,0.0,0.0,0.0,0.0,0.0,0.0,0.0,0.0,0.0,0.0,0.0,0.0,0.0,0.0,0.0,0.0,0.0,0.0,0.0,0.0,0.0,0.0,0.0,0.0,0.0,0.0,0.0,0.0,0.0,2.6904,2.6533,2.6678,2.6678,2.6533,2.6904,2.7561,2.8512,2.8768,2.9142,2.9549,2.9767,2.9792,2.9792,2.9792,2.9792,2.9792,2.9792,2.9792,2.9792,2.9792,2.9917,3.014,3.1217,3.1875,3.2314,3.2907,3.3081,3.3081,3.3081,3.3081,3.3081,3.3081,3.3081,3.3081,3.3081,3.3081,3.3081,3.3081,3.3081,3.3081,3.3081,3.3081,3.3081,3.3081,3.3081,3.3081,3.3081,3.3081,3.3081,3.3081,3.3081,3.3081,3.3081,3.3081,3.3081,3.3081,3.3194,3.3269,3.3269,3.3759,3.4148,3.4274,3.4788,3.5102,3.5102,3.5504,3.573,3.573,3.6132,3.6358,3.6358,3.6358,3.642,3.6558,3.7111,3.7663,3.8216,3.8793,3.9295,3.2264,3.2275,3.2463,0.0,0.0,0.0,0.0,0.0,0.0,0.0,0.0,0.0,0.0,0.0,0.0,0.0,0.0,0.0,0.0,0.0,0.0,0.0,0.0,0.0,0.0,0.0,0.0,0.0,0.0,0.0,0.0,0.0,0.0,2.6546,2.725,2.7263,2.6533,2.6546,2.686,2.7423,2.8413,2.8889,2.8991,2.9537,2.9792,2.9792,2.9792,2.9792,2.9792,2.9792,2.9792,2.9792,2.9792,3.0111,3.0704,3.1782,3.2142,3.2314,3.2907,3.3081,3.3081,3.3081,3.3081,3.3081,3.3081,3.3081,3.3081,3.3081,3.3081,3.3081,3.3081,3.3081,3.3081,3.3081,3.3081,3.3081,3.3081,3.3081,3.3081,3.3081,3.3081,3.3081,3.3081,3.3081,3.3081,3.3081,3.3081,3.3081,3.3081,3.352,3.3847,3.3847,3.4336,3.4864,3.5378,3.5931,3.6245,3.6245,3.6282,3.6307,3.6307,3.6345,3.6358,3.6358,3.6358,3.6609,3.7123,3.7676,3.8241,3.8818,3.9383,3.9647,3.163,3.1964,3.2349,0.0,0.0,0.0,0.0,0.0,0.0,0.0,0.0,0.0,0.0,0.0,0.0,0.0,0.0,0.0,0.0,0.0,0.0,0.0,0.0,0.0,0.0,0.0,0.0,0.0,0.0,0.0,0.0,0.0,0.0,2.8085,2.7842,2.7838,2.8023,2.7023,2.6878,2.7528,2.7792,2.8287,2.8889,2.9142,2.9422,2.9792,2.9792,2.9792,2.9792,2.9792,2.9792,2.9829,3.0165,3.0842,3.1598,3.2062,3.2459,3.2771,3.3043,3.3081,3.3081,3.3081,3.3081,3.3081,3.3081,3.3081,3.3081,3.3081,3.3081,3.3081,3.3081,3.3081,3.3081,3.3081,3.3081,3.3081,3.3081,3.3081,3.3081,3.3081,3.3081,3.3081,3.3081,3.3081,3.3081,3.3081,3.3081,3.3206,3.3545,3.3771,3.4035,3.4374,3.4901,3.5454,3.6006,3.6245,3.6358,3.6358,3.6358,3.6358,3.6358,3.6358,3.6358,3.6358,3.6697,3.6973,3.7186,3.8103,3.8655,3.8881,3.9433,3.9697,3.128,3.1557,3.2026,0.0,0.0,0.0,0.0,0.0,0.0,0.0,0.0,0.0,0.0,0.0,0.0,0.0,0.0,0.0,0.0,0.0,0.0,0.0,0.0,0.0,0.0,0.0,0.0,0.0,0.0,0.0,0.0,0.0,0.0,0.0,2.8712,2.8652,2.8992,2.7881,2.755,2.8118,2.789,2.8106,2.8637,2.882,2.9245,2.9792,2.9792,2.9792,2.9792,2.9792,2.9892,3.0118,3.0641,3.1365,3.2201,3.2419,3.2742,3.3081,3.3081,3.3081,3.3081,3.3081,3.3081,3.3081,3.3081,3.3081,3.3081,3.3081,3.3081,3.3081,3.3081,3.3081,3.3081,3.3081,3.3081,3.3081,3.3081,3.3081,3.3081,3.3081,3.3081,3.3081,3.3081,3.3081,3.3131,3.3307,3.3332,3.3533,3.4085,3.4311,3.4625,3.5177,3.5579,3.5956,3.632,3.6358,3.6358,3.6358,3.6358,3.6358,3.6358,3.6358,3.6445,3.6621,3.6998,3.7362,3.7713,3.8492,3.8956,3.9145,3.9521,3.9697,3.1365,3.119,0.0,0.0,0.0,0.0,0.0,0.0,0.0,0.0,0.0,0.0,0.0,0.0,0.0,0.0,0.0,0.0,0.0,0.0,0.0,0.0,0.0,0.0,0.0,0.0,0.0,0.0,0.0,0.0,0.0,0.0,0.0,0.0,2.9842,2.9875,2.9035,2.9021,2.9021,2.9048,2.8966,2.8697,2.817,2.865,2.9245,2.9869,2.9792,2.9792,2.9869,2.9792,3.0118,3.067,3.1185,3.1725,3.229,3.2867,3.3081,3.3081,3.3081,3.3081,3.3081,3.3081,3.3081,3.3081,3.3081,3.3081,3.3081,3.3081,3.3081,3.3081,3.3081,3.3081,3.3081,3.3081,3.3081,3.3081,3.3081,3.3081,3.3081,3.3081,3.3081,3.3081,3.3081,3.3081,3.3269,3.3822,3.3909,3.411,3.4663,3.5215,3.5755,3.6389,3.6452,3.6358,3.6452,3.6452,3.6452,3.6452,3.6452,3.6452,3.6358,3.637,3.6621,3.7174,3.7199,3.7751,3.8868,3.8881,3.9157,3.9697,3.9697,3.9697,2.9861,3.0395,0.0,0.0,0.0,0.0,0.0,0.0,0.0,0.0,0.0,0.0,0.0,0.0,0.0,0.0,0.0,0.0,0.0,0.0,0.0,0.0,0.0,0.0,0.0,0.0,0.0,0.0,0.0,0.0,0.0,0.0,0.0,0.0,3.0468,3.047,3.078,2.9593,2.9317,2.9893,2.9261,2.9324,3.0006,2.9484,3.0189,3.1696,3.0355,3.053,3.1748,3.104,3.0894,3.1173,3.1336,3.1976,3.2842,3.3018,3.3081,3.3081,3.3081,3.3081,3.3081,3.3081,3.3081,3.3081,3.3081,3.3081,3.3081,3.3081,3.3081,3.3081,3.3081,3.3628,3.4037,3.3326,3.3081,3.3081,3.3081,3.3081,3.3081,3.3081,3.3081,3.3206,3.3583,3.3658,3.3847,3.4399,3.4474,3.4675,3.5228,3.578,3.6531,3.7481,3.6883,3.6709,3.7494,3.7586,3.7586,3.7586,3.8751,3.853,3.6465,3.6734,3.7023,3.7186,3.7965,3.853,3.8868,3.9258,3.9534,3.9697,3.9697,3.9697,2.9909,0.0,0.0,0.0,0.0,0.0,0.0,0.0,0.0,0.0,0.0,0.0,0.0,0.0,0.0,0.0,0.0,0.0,0.0,0.0,0.0,0.0,0.0,0.0,0.0,0.0,0.0,0.0,0.0,0.0,0.0,0.0,0.0,0.0,3.1025,3.101,3.1482,3.0498,3.0235,3.0761,3.0235,3.0511,3.1424,3.0427,3.078,3.2166,3.1316,3.1516,3.2556,3.1951,3.208,3.2594,3.2594,3.3313,3.4332,3.4332,3.4332,3.4332,3.4332,3.4332,3.4332,3.4332,3.4332,3.4332,3.4332,3.4332,3.4332,3.4332,3.4332,3.4332,3.4332,3.4802,3.4884,3.3471,3.3398,3.3641,3.3154,3.3081,3.324,3.3641,3.3713,3.4049,3.5018,3.5208,3.5469,3.6279,3.6593,3.6701,3.6506,3.7299,3.7861,3.8121,3.7952,3.8043,3.8738,3.8827,3.8922,3.9137,4.0193,4.0164,3.8622,3.8411,3.8613,3.9393,3.9543,3.9735,3.9953,4.0763,4.0642,3.9697,4.0275,4.0173,3.0818,0.0,0.0,0.0,0.0,0.0,0.0,0.0,0.0,0.0,0.0,0.0,0.0,0.0,0.0,0.0,0.0,0.0,0.0,0.0,0.0,0.0,0.0,0.0,0.0,0.0,0.0,0.0,0.0,0.0,0.0,0.0,0.0,3.1482,3.1482,3.1482,3.1482,3.1482,3.1482,0.0,3.1482,3.184,3.2392,3.1389,3.118,3.1769,3.2486,3.2749,3.2593,3.2678,3.3384,3.4402,3.4402,3.5134,3.6198,3.6198,3.6198,3.6198,3.6198,3.6198,3.6198,3.6198,3.6198,3.6198,3.6198,3.6198,3.6198,3.6198,3.6198,3.6198,3.6198,3.6277,3.5814,3.3856,3.4108,3.4581,3.3543,3.3398,3.3628,3.4664,3.4868,3.541,3.7056,3.7356,3.7785,3.8948,3.9526,3.9536,3.8379,3.9183,3.9536,3.8545,3.9271,3.9899,4.0073,4.0114,4.0378,4.0891,4.1221,4.1602,4.2161,4.0922,4.1005,4.2685,4.1625,4.1272,4.1789,4.293,4.2266,3.989,4.1219,4.1032,0.0,3.0412,0.0,0.0,0.0,0.0,0.0,0.0,0.0,0.0,0.0,0.0,0.0,0.0,0.0,0.0,0.0,0.0,0.0,0.0,0.0,0.0,0.0,0.0,0.0,0.0,0.0,0.0,0.0,0.0,0.0,0.0,0.0,3.1482,3.1482,3.1482,3.1482,3.1482,3.1482,0.0,3.1482,3.1556,3.1707,3.1818,3.2036,3.25,3.4172,3.3973,3.2664,3.338,3.3973,3.4402,3.4402,3.5134,3.6198,3.6198,3.6198,3.6198,3.6198,3.6198,3.6198,3.6198,3.6198,3.6198,3.6198,3.6198,3.6198,3.6198,3.6198,3.6198,3.6198,3.6852,3.7098,3.5814,3.5734,3.5814,3.5574,3.5494,3.5574,3.5814,3.6291,3.6907,3.7744,3.8339,3.8822,3.9581,3.9816,3.9812,3.9536,3.9724,4.0145,4.0817,4.0318,4.0232,4.1169,4.1696,4.2038,4.2167,4.4035,4.5209,4.5356,4.3223,4.2268,4.2685,4.2873,4.2985,4.3122,4.3409,4.2738,4.1219,4.2461,4.1887,0.0,0.0,0.0,0.0,0.0,0.0,0.0,0.0,0.0,0.0,0.0,0.0,0.0,0.0,0.0,0.0,0.0,0.0,0.0,0.0,0.0,0.0,0.0,0.0,0.0,0.0,0.0,0.0,0.0,0.0,0.0,3.0941,3.0881,3.1452,3.1172,3.1172,3.1482,3.1482,3.1482,3.1482,3.1482,3.1869,3.2437,3.2654,3.3245,3.4041,3.5067,3.492,3.4041,3.4543,3.515,3.5827,3.5827,3.6603,3.7724,3.7724,3.7724,3.7724,3.7724,3.7724,3.7724,3.7724,3.7724,3.7724,3.7724,3.7724,3.7724,3.7724,3.7724,3.7724,3.7724,3.8144,3.8472,3.789,3.7329,3.6852,3.629,3.6198,3.6452,3.731,3.7726,3.8408,3.9923,4.068,4.113,4.1475,4.1532,4.1351,4.0746,4.1183,4.1518,4.1587,4.1518,4.1782,4.2371,4.3054,4.3554,4.3862,4.5387,4.6471,4.6785,4.5566,4.4913,4.4913,4.4564,4.4442,4.4442,4.5024,4.4349,4.2558,4.3787,4.3409,0.0,0.0,0.0,0.0,0.0,0.0,0.0,0.0,0.0,0.0,0.0,0.0,0.0,0.0,0.0,0.0,0.0,0.0,0.0,0.0,0.0,0.0,0.0,0.0,0.0,0.0,0.0,0.0,0.0,0.0,3.1276,3.0348,3.0223,3.13,3.0802,3.0789,3.1467,3.1482,3.1482,3.1482,3.1482,3.2213,3.3499,3.3499,3.4233,3.5504,3.5504,3.5504,3.5504,3.5504,3.6252,3.7404,3.7404,3.8227,3.9424,3.9424,3.9424,3.9424,3.9424,3.9424,3.9424,3.9424,3.9424,3.9424,3.9424,3.9424,3.9424,3.9424,3.9424,3.9424,3.9424,3.9424,3.9424,3.9424,3.8708,3.7829,3.693,3.676,3.719,3.8804,3.9276,4.0125,4.2157,4.297,4.3329,4.3329,4.3329,4.2981,4.2029,4.2725,4.29,4.2029,4.2725,4.3389,4.3494,4.4107,4.4766,4.5424,4.6112,4.6741,4.7279,4.7309,4.7309,4.7309,4.6255,4.5689,4.5689,4.6829,4.6062,4.3882,4.5115,4.4918,0.0,0.0,0.0,0.0,0.0,0.0,0.0,0.0,0.0,0.0,0.0,0.0,0.0,0.0,0.0,0.0,0.0,0.0,0.0,0.0,0.0,0.0,0.0,0.0,0.0,0.0,0.0,0.0,0.0,0.0,3.0675,3.0479,3.0428,3.0608,3.0567,3.0824,3.1467,3.1482,3.1482,3.1482,3.1482,3.2213,3.3499,3.3499,3.4233,3.5504,3.5504,3.5504,3.5504,3.5504,3.6252,3.7404,3.7404,3.8227,3.9424,3.9424,3.9424,3.9424,3.9424,3.9424,3.9424,3.9424,3.9424,3.9424,3.9424,3.9424,3.9424,3.9424,3.9424,3.9424,3.9424,3.9424,3.9424,3.9424,3.9265,3.9177,3.9017,3.8929,3.9209,4.0025,4.1143,4.2171,4.2996,4.3284,4.3329,4.3329,4.3329,4.325,4.3076,4.325,4.325,4.3076,4.325,4.3569,4.4137,4.4781,4.5454,4.6142,4.6815,4.7219,4.7309,4.7309,4.7309,4.7309,4.7121,4.7019,4.7019,4.7207,4.655,4.5207,4.6447,4.5779,3.0624,0.0,0.0,0.0,0.0,0.0,0.0,0.0,0.0,0.0,0.0,0.0,0.0,0.0,0.0,0.0,0.0,0.0,0.0,0.0,0.0,0.0,0.0,0.0,0.0,0.0,0.0,0.0,0.0,3.198,3.1678,3.0612,3.0335,3.1057,3.0357,3.0492,3.1467,3.1482,3.1482,3.1482,3.1482,3.2213,3.3499,3.3499,3.4233,3.5504,3.5504,3.5504,3.5534,3.5908,3.6582,3.7449,3.7808,3.8556,3.9424,3.9424,3.9424,3.9424,3.9424,3.9424,3.9424,3.9424,3.9424,3.9424,3.9424,3.9424,3.9424,3.9424,3.9424,3.9424,3.9424,3.9424,3.9424,3.9424,3.9424,3.9544,4.0038,3.9768,3.9723,4.0756,4.1998,4.3,4.3284,4.3329,4.3329,4.3329,4.3329,4.3329,4.3329,4.3329,4.3329,4.3329,4.3329,4.3599,4.4257,4.4915,4.5589,4.6277,4.6935,4.7309,4.7309,4.7309,4.7309,4.7309,4.7309,4.7309,4.7309,4.7309,4.7019,4.6447,4.7019,4.6726,0.0,0.0,3.2905,0.0,0.0,0.0,0.0,0.0,0.0,0.0,0.0,0.0,0.0,0.0,0.0,0.0,0.0,0.0,0.0,0.0,0.0,0.0,0.0,0.0,0.0,0.0,0.0,0.0,0.0,3.232,3.1865,3.039,3.0001,3.0986,3.0088,3.0208,3.1467,3.1482,3.1482,3.1482,3.1482,3.2138,3.3245,3.3425,3.4143,3.525,3.5429,3.5504,3.5549,3.6207,3.6851,3.7479,3.8138,3.8811,3.9424,3.9424,3.9424,3.9424,3.9424,3.9424,3.9424,3.9424,3.9424,3.9424,3.9424,3.9424,3.9424,3.9424,3.9424,3.9424,3.9424,3.9424,3.9424,3.9424,3.9544,3.9843,4.0502,4.0397,4.0457,4.1444,4.2551,4.3329,4.3329,4.3329,4.3329,4.3329,4.3329,4.3329,4.3329,4.3329,4.3329,4.3329,4.3329,4.3658,4.4496,4.5005,4.5663,4.6516,4.704,4.7309,4.7309,4.7309,4.7309,4.7309,4.7309,4.7309,4.7309,4.7309,4.7309,4.7309,4.7309,4.7309,0.0,0.0,0.0,0.0,0.0,0.0,0.0,0.0,0.0,0.0,0.0,0.0,0.0,0.0,0.0,0.0,0.0,0.0,0.0,0.0,0.0,0.0,0.0,0.0,0.0,0.0,0.0,0.0,0.0,3.1652,2.9751,2.9531,2.9536,2.9708,2.9609,3.0208,3.1467,3.1482,3.1482,3.1482,3.1482,3.1898,3.2587,3.3215,3.3873,3.4562,3.522,3.5504,3.5549,3.6207,3.6851,3.7479,3.8138,3.8811,3.9424,3.9424,3.9424,3.9424,3.9424,3.9424,3.9424,3.9424,3.9424,3.9424,3.9424,3.9424,3.9424,3.9424,3.9424,3.9424,3.9424,3.9424,3.9424,3.9424,3.9903,4.0367,4.0412,4.1354,4.2222,4.2297,4.2865,4.3329,4.3329,4.3329,4.3329,4.3329,4.3329,4.3329,4.3329,4.3329,4.3329,4.3329,4.3329,4.3853,4.514,4.5274,4.5858,4.7174,4.7279,4.7309,4.7309,4.7309,4.7309,4.7309,4.7309,4.7309,4.7309,4.7309,4.7309,4.7309,4.7309,4.7309,0.0,0.0,0.0,0.0,0.0,0.0,0.0,0.0,0.0,0.0,0.0,0.0,0.0,0.0,0.0,0.0,0.0,0.0,0.0,0.0,0.0,0.0,0.0,0.0,0.0,0.0,0.0,0.0,0.0,0.0,3.1402,3.0965,3.0927,3.1471,3.1049,3.1296,3.2216,3.1754,3.1482,3.1482,3.1482,3.1884,3.2542,3.32,3.3858,3.4517,3.5205,3.5504,3.5594,3.6641,3.721,3.7524,3.8616,3.92,3.9424,3.9424,3.9424,3.9424,3.9424,3.9424,3.9424,3.9424,3.9424,3.9424,3.9424,3.9424,3.9424,3.9424,3.9424,3.9424,3.9424,3.9424,3.9529,3.9948,4.119,4.2177,4.1743,4.2028,4.2357,4.2357,4.2895,4.3329,4.3329,4.3329,4.3329,4.3329,4.3329,4.3329,4.3329,4.3329,4.3329,4.3329,4.3718,4.4332,4.5214,4.5693,4.6337,4.7249,4.7309,4.7309,4.7309,4.7309,4.7309,4.7309,4.7309,4.7309,4.7309,4.7309,4.7309,4.7309,4.7309,4.7309,2.9659,0.0,0.0,0.0,0.0,0.0,0.0,0.0,0.0,0.0,0.0,0.0,0.0,0.0,0.0,0.0,0.0,0.0,0.0,0.0,0.0,0.0,0.0,0.0,0.0,0.0,0.0,0.0,0.0,0.0,3.2105,3.1858,3.1998,3.2526,3.2318,3.2352,3.2586,3.2312,3.1992,3.1539,3.2235,3.257,3.2542,3.3698,3.4348,3.4517,3.5205,3.5504,3.5609,3.6881,3.7404,3.7539,3.8886,3.9424,3.9424,3.9424,3.9424,3.9424,3.9424,3.9424,3.9424,3.9424,3.9424,3.9424,3.9424,3.9424,3.9424,3.9424,3.9424,3.9469,3.9694,3.9903,4.0247,4.0905,4.2058,4.294,4.2731,4.2686,4.2686,4.2686,4.3045,4.3329,4.3329,4.3329,4.3329,4.3329,4.3329,4.3329,4.3329,4.3329,4.3419,4.3643,4.4047,4.4676,4.5559,4.6052,4.6606,4.7264,4.7309,4.7309,4.7309,4.7309,4.7309,4.7309,4.7309,4.7309,4.7309,4.7309,4.7309,4.7309,4.7309,4.7429,0.0,0.0,0.0,0.0,0.0,0.0,0.0,0.0,0.0,0.0,0.0,0.0,0.0,0.0,0.0,0.0,0.0,0.0,0.0,0.0,0.0,0.0,0.0,0.0,0.0,0.0,0.0,0.0,0.0,3.2841,3.1517,3.2177,3.2613,3.2658,3.3265,3.3339,3.2641,3.3287,3.2917,3.1597,3.3661,3.3936,3.2616,3.4678,3.5186,3.4517,3.5269,3.5569,3.5609,3.6866,3.7389,3.7539,3.8871,3.9394,3.9424,3.9424,3.9424,3.9424,3.9424,3.9424,3.9424,3.9424,3.9424,3.9424,3.9424,3.9424,3.9424,3.9424,3.9424,3.9604,4.0262,4.092,4.1564,4.2207,4.2372,4.2566,4.3195,4.3329,4.3329,4.3329,4.3329,4.3329,4.3329,4.3329,4.3329,4.3329,4.3329,4.3329,4.3329,4.3344,4.3599,4.4242,4.4347,4.49,4.6217,4.6337,4.6636,4.7264,4.7309,4.7309,4.7309,4.7309,4.7309,4.7309,4.7309,4.7309,4.7309,4.7309,4.7309,4.7309,4.7324,4.7683,2.8994,0.0,0.0,0.0,0.0,0.0,0.0,0.0,0.0,0.0,0.0,0.0,0.0,0.0,0.0,0.0,0.0,0.0,0.0,0.0,0.0,0.0,0.0,0.0,0.0,0.0,0.0,0.0,3.3829,3.322,3.2874,3.3547,3.3946,3.3996,3.4213,3.4235,3.4037,3.3735,3.3375,3.3024,3.3634,3.3666,3.3269,3.4902,3.526,3.4628,3.6412,3.6554,3.5564,3.6402,3.7,3.7494,3.8332,3.8975,3.9424,3.9424,3.9424,3.9424,3.9424,3.9424,3.9424,3.9424,3.9424,3.9424,3.9424,3.9424,3.9424,3.9424,3.9768,4.0277,4.0935,4.1594,4.2132,4.2389,4.2716,4.312,4.3284,4.3329,4.3329,4.3329,4.3329,4.3329,4.3329,4.3329,4.3329,4.3329,4.3329,4.3329,4.3329,4.3748,4.4107,4.4287,4.5185,4.5918,4.6292,4.6756,4.7115,4.7294,4.7309,4.7309,4.7309,4.7309,4.7309,4.7309,4.7309,4.7309,4.7309,4.7309,4.7309,4.7309,4.7803,4.8117,0.0,0.0,0.0,0.0,0.0,0.0,0.0,3.1935,0.0,0.0,0.0,0.0,0.0,0.0,0.0,0.0,0.0,0.0,0.0,0.0,0.0,0.0,0.0,0.0,0.0,0.0,0.0,3.4945,3.4286,3.3998,3.432,3.4438,3.4641,3.4962,3.499,3.4894,3.4576,3.4496,3.4153,3.3582,3.4821,3.5053,3.4502,3.6204,3.6612,3.5952,3.7223,3.7115,3.6052,3.709,3.744,3.7479,3.8138,3.8811,3.9424,3.9424,3.9424,3.9424,3.9424,3.9424,3.9424,3.9424,3.9424,3.9424,3.9424,3.9424,3.9424,3.9424,4.0083,4.0965,4.1609,4.2267,4.2776,4.2776,4.3045,4.3329,4.3329,4.3329,4.3329,4.3329,4.3329,4.3329,4.3329,4.3329,4.3329,4.3329,4.3329,4.3434,4.3703,4.4077,4.4526,4.5095,4.5858,4.6426,4.6711,4.7085,4.7309,4.7309,4.7309,4.7309,4.7309,4.7309,4.7309,4.7309,4.7309,4.7309,4.7309,4.7309,4.7309,4.7324,4.7982,4.8431,0.0,0.0,0.0,0.0,0.0,0.0,3.177,3.2284,3.2742,0.0,0.0,0.0,0.0,0.0,0.0,0.0,0.0,0.0,0.0,0.0,0.0,0.0,0.0,0.0,0.0,3.4573,3.4895,3.5571,3.4996,3.4912,3.5588,3.4979,3.4928,3.5605,3.5622,3.5299,3.4736,3.5316,3.5005,3.3853,3.6502,3.7103,3.5905,3.7953,3.8515,3.7822,3.7978,3.7557,3.6845,3.8424,3.8466,3.7601,3.8262,3.8938,3.9553,3.9424,3.9424,3.9424,3.9424,3.9424,3.9424,3.9424,3.9424,3.9424,3.9424,3.9424,3.9454,3.9589,4.0472,4.1549,4.2282,4.2895,4.3329,4.3329,4.3329,4.3329,4.3329,4.3329,4.3329,4.3329,4.3329,4.3329,4.3329,4.3329,4.3329,4.3329,4.3329,4.3569,4.4227,4.4377,4.4915,4.6187,4.6396,4.6666,4.7249,4.7309,4.7309,4.7309,4.7309,4.7309,4.7309,4.7309,4.7309,4.7309,4.7309,4.7309,4.7309,4.7309,4.7309,4.7324,4.8057,4.8701,0.0,0.0,0.0,0.0,0.0,0.0,2.9898,3.021,3.076,0.0,0.0,0.0,0.0,0.0,0.0,0.0,0.0,0.0,0.0,0.0,0.0,0.0,0.0,0.0,0.0,3.5047,3.547,3.5605,3.5487,3.547,3.556,3.547,3.547,3.5622,3.5622,3.5532,3.5407,3.5515,3.547,3.5224,3.646,3.6816,3.6577,3.822,3.8573,3.7879,3.9119,3.8887,3.7695,3.9211,3.9305,3.8527,3.9205,3.9831,4.0363,3.9666,3.9424,3.9424,3.9424,3.9424,3.9424,3.9424,3.9424,3.9424,3.9424,3.9424,3.9649,4.0696,4.119,4.1654,4.2836,4.324,4.3329,4.3329,4.3329,4.3329,4.3329,4.3329,4.3329,4.3329,4.3329,4.3329,4.3329,4.3329,4.3329,4.3329,4.3329,4.3569,4.4227,4.4781,4.5424,4.6232,4.68,4.7174,4.7294,4.7309,4.7309,4.7309,4.7309,4.7309,4.7309,4.7309,4.7309,4.7309,4.7309,4.7309,4.7309,4.7309,4.7309,4.7339,4.8521,4.9134,0.0,0.0,0.0,2.9604,0.0,0.0,0.0,3.021,3.032,3.0723,0.0,0.0,0.0,0.0,0.0,0.0,0.0,0.0,0.0,0.0,0.0,0.0,0.0,0.0,0.0,3.5562,3.5622,3.5622,3.5622,3.5622,3.5622,3.5622,3.5622,3.5622,3.5622,3.5622,3.5622,3.5622,3.5808,3.6214,3.6975,3.7494,3.7887,3.9025,3.9344,3.8995,3.9731,3.9437,3.8495,4.0403,4.0713,3.995,4.023,4.0732,4.1213,4.0378,4.006,3.999,3.9538,3.9424,3.9424,3.9424,3.9424,3.9424,3.9424,3.9649,4.0113,4.11,4.1609,4.2102,4.3075,4.3329,4.3329,4.3329,4.3329,4.3329,4.3329,4.3329,4.3329,4.3329,4.3329,4.3329,4.3329,4.3329,4.3329,4.3329,4.3614,4.4062,4.4721,4.5394,4.6067,4.6741,4.7115,4.7309,4.7309,4.7309,4.7309,4.7309,4.7309,4.7309,4.7309,4.7309,4.7309,4.7309,4.7309,4.7309,4.7309,4.7309,4.7474,4.7818,4.8805,4.9434,0.0,0.0,0.0,0.0,0.0,2.9916,0.0,0.0,0.0,3.0834,0.0,0.0,0.0,0.0,0.0,0.0,0.0,0.0,0.0,0.0,0.0,0.0,0.0,0.0,0.0,3.5899,3.5657,3.5605,3.5559,3.5542,3.5622,3.5622,3.5622,3.5622,3.5622,3.5622,3.5622,3.5774,3.6163,3.6789,3.7686,3.843,3.9022,3.9749,4.007,4.007,4.007,3.9798,3.9524,4.1499,4.203,4.1584,4.1508,4.1753,4.2125,4.128,4.0946,4.0826,4.0115,3.9864,3.9864,3.9864,3.9809,3.9696,3.9832,4.0109,4.0636,4.1625,4.2091,4.2506,4.3165,4.3329,4.3329,4.3329,4.3329,4.3329,4.3329,4.3329,4.3329,4.3329,4.3329,4.3329,4.3329,4.3329,4.3374,4.3509,4.3973,4.4601,4.5394,4.5978,4.6576,4.7234,4.7309,4.7309,4.7309,4.7309,4.7309,4.7309,4.7309,4.7309,4.7309,4.7309,4.7309,4.7309,4.7309,4.7309,4.7309,4.7429,4.7773,4.8297,4.8955,4.9613,0.0,0.0,0.0,0.0,3.1201,0.0,0.0,0.0,3.0026,2.9402,0.0,0.0,0.0,0.0,0.0,0.0,0.0,0.0,0.0,0.0,0.0,0.0,0.0,0.0,0.0,0.0,3.5779,3.5599,3.5394,3.5351,3.5588,3.5622,3.5622,3.5622,3.5622,3.5622,3.5622,3.6299,3.6688,3.6806,3.8193,3.892,3.9022,3.9749,4.007,4.007,4.007,4.0408,4.1015,4.1895,4.2638,4.3132,4.3072,4.3103,4.3047,4.2189,4.1869,4.1869,4.1739,4.1674,4.1674,4.1674,4.1213,4.0677,4.1349,4.1005,4.0858,4.2928,4.3,4.2506,4.3165,4.3329,4.3329,4.3329,4.3329,4.3329,4.3329,4.3329,4.3329,4.3329,4.3329,4.3329,4.3329,4.3329,4.3524,4.4122,4.4272,4.4781,4.6037,4.6277,4.6576,4.7234,4.7309,4.7309,4.7309,4.7309,4.7309,4.7309,4.7309,4.7309,4.7309,4.7309,4.7309,4.7309,4.7309,4.7309,4.7309,4.7893,4.8222,4.8297,4.8955,4.9613,0.0,0.0,0.0,0.0,0.0,0.0,2.9934,0.0,2.942,0.0,0.0,0.0,0.0,0.0,0.0,0.0,0.0,0.0,0.0,0.0,0.0,0.0,0.0,0.0,0.0,0.0,0.0,0.0,0.0,3.5332,3.5571,3.5622,3.5622,3.5622,3.5622,3.5825,3.6282,3.662,3.7212,3.8075,3.87,3.9208,3.9631,3.9935,4.007,4.007,4.007,4.051,4.1271,4.1999,4.2726,4.3432,4.3893,4.4064,4.3948,4.3108,4.2785,4.2645,4.2189,4.1997,4.1997,4.1997,4.1723,4.1604,4.2351,4.2532,4.2731,4.3552,4.3771,4.3731,4.3412,4.3693,4.3989,4.3394,4.3786,4.3989,4.3409,4.3329,4.3329,4.3329,4.3329,4.3449,4.3838,4.3584,4.3554,4.4212,4.4631,4.5229,4.6202,4.6651,4.6995,4.7279,4.7309,4.7309,4.7309,4.7309,4.7309,4.7309,4.7309,4.7309,4.7309,4.7309,4.7309,4.7309,4.7309,4.7489,4.7878,4.8147,4.8671,4.9419,4.9703,5.0182,3.221,0.0,0.0,0.0,0.0,0.0,0.0,0.0,0.0,0.0,0.0,0.0,0.0,0.0,0.0,0.0,0.0,0.0,0.0,0.0,0.0,0.0,0.0,0.0,0.0,0.0,0.0,0.0,0.0,0.0,3.6002,3.5898,3.5912,3.61,3.6017,3.6315,3.7077,3.728,3.7922,3.8988,3.9191,3.9563,4.007,4.007,4.007,4.0087,4.029,4.0815,4.1559,4.2303,4.3047,4.3792,4.435,4.4587,4.4514,4.3873,4.368,4.3562,4.2892,4.2707,4.2691,4.2442,4.2508,4.2799,4.3557,4.4071,4.4457,4.474,4.5038,4.5005,4.4251,4.4631,4.5005,4.4266,4.4631,4.5005,4.4266,4.4113,4.4113,4.4113,4.4266,4.4478,4.4664,4.4058,4.3883,4.4736,4.5274,4.5828,4.6501,4.701,4.7309,4.7309,4.7309,4.7309,4.7309,4.7309,4.7309,4.7309,4.7309,4.7309,4.7309,4.7309,4.7309,4.7309,4.7309,4.7623,4.8282,4.8461,4.9134,5.0242,5.0242,5.0586,0.0,0.0,0.0,3.1788,0.0,0.0,0.0,0.0,3.0173,0.0,0.0,0.0,0.0,0.0,0.0,0.0,0.0,0.0,0.0,0.0,0.0,0.0,0.0,0.0,0.0,0.0,0.0,0.0,0.0,0.0,3.7102,3.6643,3.6703,3.743,3.7007,3.711,3.7872,3.8565,3.8937,3.9005,3.9698,4.0054,4.007,4.007,4.007,4.0121,4.0849,4.1576,4.232,4.3064,4.3842,4.4536,4.457,4.4587,4.4587,4.457,4.457,4.457,4.4514,4.4514,4.4384,4.3562,4.3767,4.4459,4.523,4.5277,4.552,4.706,4.6867,4.6173,4.6103,4.6103,4.6173,4.6103,4.6103,4.6173,4.6103,4.6103,4.6103,4.6103,4.6662,4.685,4.5834,4.4868,4.4736,4.6067,4.6277,4.6531,4.7189,4.7294,4.7309,4.7309,4.7309,4.7309,4.7309,4.7309,4.7309,4.7309,4.7309,4.7309,4.7309,4.7309,4.7309,4.7309,4.7309,4.7623,4.8282,4.8925,4.9583,5.0242,5.0242,5.0586,0.0,0.0,3.3532,3.2467,0.0,0.0,0.0,0.0,0.0,0.0,0.0,0.0,0.0,0.0,0.0,0.0,0.0,0.0,0.0,0.0,0.0,0.0,0.0,0.0,0.0,0.0,0.0,0.0,0.0,0.0,0.0,3.7514,3.784,3.8104,3.7542,3.7875,3.9129,3.9078,3.9225,3.9715,3.9952,4.007,4.007,4.007,4.0358,4.0832,4.1085,4.1897,4.3064,4.3318,4.3876,4.4587,4.4587,4.4587,4.4587,4.4587,4.4587,4.4587,4.4587,4.4587,4.457,4.4253,4.4641,4.5379,4.6159,4.6619,4.7085,4.7457,4.7373,4.6952,4.6384,4.6662,4.6952,4.6314,4.6662,4.6952,4.6314,4.6173,4.6317,4.6853,4.7157,4.746,4.8072,4.7867,4.7355,4.6401,4.6322,4.6561,4.7219,4.7309,4.7309,4.7309,4.7309,4.7309,4.7309,4.7309,4.7309,4.7309,4.7309,4.7309,4.7309,4.7309,4.7309,4.7309,4.7743,4.8282,4.894,4.9583,5.0242,5.0885,5.0885,5.1005,3.3807,3.3807,0.0,3.2816,3.221,0.0,3.0815,0.0,0.0,0.0,0.0,0.0,0.0,0.0,0.0,0.0,0.0,0.0,0.0,0.0,0.0,0.0,0.0,0.0,0.0,0.0,3.51,3.6391,0.0,0.0,0.0,0.0,3.92,3.9468,3.8936,3.9215,4.049,3.9967,3.989,4.0368,4.0204,4.007,4.0087,4.0358,4.0747,4.1238,4.1762,4.254,4.3436,4.3724,4.413,4.4587,4.4587,4.4587,4.4587,4.4587,4.4587,4.4587,4.4587,4.4587,4.4621,4.4891,4.5483,4.6227,4.6972,4.7716,4.827,4.8155,4.808,4.795,4.7373,4.7655,4.795,4.7306,4.7655,4.7933,4.7306,4.7435,4.7746,4.822,4.8728,4.9279,4.9831,5.0131,4.9693,4.8044,4.7748,4.7901,4.8331,4.8072,4.8003,4.8392,4.8072,4.7834,4.7834,4.7834,4.7679,4.7309,4.7309,4.7309,4.7309,4.7309,4.7309,4.7309,4.7952,4.8611,4.9269,4.9927,5.0571,5.1214,5.1214,5.1214]},{"header":{"parameterUnit":"m.s-1","parameterCategory":1,"la1":30.6,"la2":29.2853,"lo1":-89.7004,"lo2":-87.6739,"dy":0.0162,"dx":0.0183,"nx":112,"ny":82,"refTime":"2025-04-10T06:00:00:Z","depth":0,"parameterNumber":3,"parameterNumberName":"V-component_of_WINDS"},"data":[0.0,0.0,0.0,0.0,0.0,0.0,0.0,0.0,0.0,0.0,0.0,0.0,0.0,0.0,0.0,0.0,0.0,0.0,0.0,0.0,0.0,0.0,0.0,0.0,0.0,0.0,0.0,0.0,0.0,0.0,0.0,0.0,0.0,0.0,0.0,0.0,0.0,0.0,0.0,0.0,0.0,0.0,0.0,0.0,0.0,0.0,0.0,0.0,0.0,0.0,0.0,0.0,0.0,0.0,0.0,0.0,0.0,0.0,0.0,0.0,0.0,0.0,0.0,0.0,0.0,0.0,0.0,0.0,0.0,0.0,0.0,0.0,0.0,0.0,0.0,0.0,0.0,0.0,0.0,0.0,0.0,0.0,0.0,0.0,0.0,0.0,0.0,0.0,0.0,0.0,-2.4326,-2.459,-2.5293,-2.5742,-2.5742,-2.5322,-2.4707,-2.3848,0.0,0.0,0.0,0.0,0.0,0.0,0.0,0.0,0.0,0.0,0.0,0.0,0.0,0.0,0.0,0.0,0.0,0.0,0.0,0.0,0.0,0.0,0.0,0.0,0.0,0.0,0.0,0.0,0.0,0.0,0.0,0.0,0.0,0.0,0.0,0.0,0.0,0.0,0.0,0.0,0.0,0.0,0.0,0.0,0.0,0.0,0.0,0.0,0.0,0.0,0.0,0.0,0.0,0.0,0.0,0.0,0.0,0.0,0.0,0.0,0.0,0.0,0.0,0.0,0.0,0.0,0.0,0.0,0.0,0.0,0.0,0.0,0.0,0.0,0.0,0.0,0.0,0.0,0.0,0.0,0.0,0.0,0.0,0.0,0.0,0.0,0.0,0.0,0.0,0.0,0.0,0.0,0.0,0.0,0.0,0.0,0.0,0.0,0.0,0.0,0.0,0.0,0.0,0.0,-2.3916,-2.5381,-2.5654,-2.5742,-2.5742,-2.5322,-2.4707,-2.3848,0.0,0.0,0.0,0.0,0.0,0.0,0.0,0.0,0.0,0.0,0.0,0.0,0.0,0.0,0.0,0.0,0.0,0.0,0.0,0.0,0.0,0.0,0.0,0.0,0.0,0.0,0.0,0.0,0.0,0.0,0.0,0.0,0.0,0.0,0.0,0.0,0.0,0.0,0.0,0.0,0.0,0.0,0.0,0.0,0.0,0.0,0.0,0.0,0.0,0.0,0.0,0.0,0.0,0.0,0.0,0.0,0.0,0.0,0.0,0.0,0.0,0.0,0.0,0.0,0.0,0.0,0.0,0.0,0.0,0.0,0.0,0.0,0.0,0.0,0.0,0.0,0.0,0.0,0.0,0.0,0.0,0.0,0.0,0.0,0.0,0.0,0.0,0.0,0.0,0.0,0.0,0.0,0.0,0.0,0.0,0.0,0.0,0.0,0.0,0.0,0.0,0.0,0.0,-2.3516,-2.4072,-2.5576,-2.5742,-2.5742,-2.5742,-2.5322,-2.4707,-2.3848,-2.3174,0.0,0.0,0.0,0.0,0.0,0.0,0.0,0.0,0.0,0.0,0.0,0.0,0.0,0.0,0.0,0.0,0.0,0.0,0.0,0.0,0.0,0.0,0.0,0.0,0.0,0.0,0.0,0.0,0.0,0.0,0.0,0.0,0.0,0.0,0.0,0.0,0.0,0.0,0.0,0.0,0.0,0.0,0.0,0.0,0.0,0.0,0.0,0.0,0.0,0.0,0.0,0.0,0.0,0.0,0.0,0.0,0.0,0.0,0.0,0.0,0.0,0.0,0.0,0.0,0.0,0.0,0.0,0.0,0.0,0.0,0.0,0.0,0.0,0.0,0.0,0.0,0.0,0.0,0.0,0.0,0.0,0.0,0.0,0.0,0.0,0.0,0.0,0.0,0.0,0.0,0.0,0.0,0.0,0.0,0.0,0.0,0.0,0.0,0.0,0.0,0.0,0.0,-2.4189,-2.4629,-2.5635,-2.5742,-2.5742,-2.5742,-2.5234,-2.4551,-2.3691,-2.2842,0.0,0.0,0.0,0.0,0.0,0.0,0.0,0.0,0.0,0.0,0.0,0.0,0.0,0.0,0.0,0.0,0.0,0.0,0.0,0.0,0.0,0.0,0.0,0.0,0.0,0.0,0.0,0.0,0.0,0.0,0.0,0.0,0.0,0.0,0.0,0.0,0.0,0.0,0.0,0.0,0.0,0.0,0.0,0.0,0.0,0.0,0.0,0.0,0.0,0.0,0.0,0.0,0.0,0.0,0.0,0.0,0.0,0.0,0.0,0.0,0.0,0.0,0.0,0.0,0.0,0.0,0.0,0.0,0.0,0.0,0.0,0.0,0.0,0.0,0.0,0.0,0.0,0.0,0.0,0.0,0.0,0.0,0.0,0.0,0.0,0.0,0.0,0.0,0.0,0.0,0.0,0.0,0.0,0.0,0.0,0.0,0.0,0.0,0.0,0.0,0.0,0.0,-2.4619,-2.5635,-2.5723,-2.5742,-2.5742,-2.5742,-2.4951,-2.4102,-2.3242,-2.2393,0.0,0.0,0.0,0.0,0.0,0.0,0.0,0.0,0.0,0.0,0.0,0.0,0.0,0.0,0.0,0.0,0.0,0.0,0.0,0.0,0.0,0.0,0.0,0.0,0.0,0.0,0.0,0.0,0.0,0.0,0.0,0.0,0.0,0.0,0.0,0.0,0.0,0.0,0.0,0.0,0.0,0.0,0.0,0.0,0.0,0.0,0.0,0.0,0.0,0.0,0.0,0.0,0.0,0.0,0.0,0.0,0.0,0.0,0.0,0.0,0.0,0.0,0.0,0.0,0.0,0.0,0.0,0.0,0.0,0.0,0.0,0.0,0.0,0.0,0.0,0.0,0.0,0.0,0.0,0.0,0.0,0.0,0.0,0.0,0.0,0.0,0.0,0.0,0.0,0.0,0.0,0.0,0.0,0.0,0.0,0.0,0.0,0.0,0.0,0.0,0.0,0.0,-2.3945,-2.4834,0.0,-2.5742,-2.5742,-2.5742,-2.5176,-2.4453,-2.3603,0.0,0.0,0.0,0.0,0.0,0.0,0.0,0.0,0.0,0.0,0.0,0.0,0.0,0.0,0.0,0.0,0.0,0.0,0.0,0.0,0.0,0.0,0.0,0.0,0.0,0.0,0.0,0.0,0.0,0.0,0.0,0.0,0.0,0.0,0.0,0.0,0.0,0.0,0.0,0.0,0.0,0.0,0.0,0.0,0.0,0.0,0.0,0.0,0.0,0.0,0.0,0.0,0.0,0.0,0.0,0.0,0.0,0.0,0.0,0.0,0.0,0.0,0.0,0.0,0.0,0.0,0.0,0.0,0.0,0.0,0.0,0.0,0.0,0.0,0.0,0.0,0.0,0.0,0.0,0.0,0.0,0.0,0.0,0.0,0.0,0.0,0.0,0.0,0.0,0.0,0.0,0.0,0.0,0.0,0.0,0.0,0.0,0.0,0.0,0.0,0.0,0.0,-2.2998,-2.376,-2.459,0.0,-2.5742,-2.5742,-2.5742,-2.5078,-2.4355,-2.3643,0.0,0.0,0.0,0.0,0.0,0.0,0.0,0.0,0.0,0.0,0.0,0.0,0.0,0.0,0.0,0.0,0.0,0.0,0.0,0.0,0.0,0.0,0.0,0.0,0.0,0.0,0.0,0.0,0.0,0.0,0.0,0.0,0.0,0.0,0.0,0.0,0.0,0.0,0.0,0.0,0.0,0.0,0.0,0.0,0.0,0.0,0.0,0.0,0.0,0.0,0.0,0.0,0.0,0.0,0.0,0.0,0.0,0.0,0.0,0.0,0.0,0.0,0.0,0.0,0.0,0.0,0.0,0.0,0.0,0.0,0.0,0.0,0.0,0.0,0.0,0.0,0.0,0.0,0.0,0.0,0.0,0.0,0.0,0.0,0.0,0.0,0.0,0.0,0.0,0.0,0.0,0.0,0.0,0.0,0.0,0.0,0.0,0.0,0.0,0.0,0.0,0.0,-2.3027,-2.4258,-2.5234,-2.5684,-2.5742,-2.5742,-2.5742,-2.4551,-2.3613,0.0,0.0,0.0,0.0,0.0,0.0,0.0,0.0,0.0,0.0,0.0,0.0,0.0,0.0,0.0,0.0,0.0,0.0,0.0,0.0,0.0,0.0,0.0,0.0,0.0,0.0,0.0,0.0,0.0,0.0,0.0,0.0,0.0,0.0,0.0,0.0,0.0,0.0,0.0,0.0,0.0,0.0,0.0,0.0,0.0,0.0,0.0,0.0,0.0,0.0,0.0,0.0,0.0,0.0,0.0,0.0,0.0,0.0,0.0,0.0,0.0,0.0,0.0,0.0,0.0,0.0,0.0,0.0,0.0,0.0,0.0,0.0,0.0,0.0,0.0,0.0,0.0,0.0,0.0,0.0,0.0,0.0,0.0,0.0,0.0,0.0,0.0,0.0,0.0,0.0,0.0,0.0,0.0,0.0,0.0,0.0,0.0,0.0,0.0,0.0,0.0,0.0,0.0,-2.2588,-2.3818,-2.4902,-2.5654,-2.5742,-2.5742,-2.5742,-2.4814,-2.3799,-2.2773,0.0,0.0,0.0,0.0,0.0,0.0,0.0,0.0,0.0,0.0,0.0,0.0,0.0,0.0,0.0,0.0,0.0,0.0,0.0,0.0,0.0,0.0,0.0,0.0,0.0,0.0,0.0,0.0,0.0,0.0,0.0,0.0,0.0,0.0,0.0,0.0,0.0,0.0,0.0,0.0,0.0,0.0,0.0,0.0,0.0,0.0,0.0,0.0,0.0,0.0,0.0,0.0,0.0,0.0,0.0,0.0,0.0,0.0,0.0,0.0,0.0,0.0,0.0,0.0,0.0,0.0,0.0,0.0,0.0,0.0,0.0,0.0,0.0,0.0,0.0,0.0,0.0,0.0,0.0,0.0,0.0,0.0,0.0,0.0,0.0,0.0,0.0,0.0,0.0,0.0,0.0,0.0,0.0,0.0,0.0,0.0,0.0,0.0,0.0,0.0,0.0,0.0,-2.1938,-2.3405,-2.4756,-2.5644,-2.5742,-2.5742,-2.5742,-2.5198,-2.4435,-2.3305,0.0,0.0,0.0,0.0,0.0,0.0,0.0,0.0,0.0,0.0,0.0,0.0,0.0,0.0,0.0,0.0,0.0,0.0,0.0,0.0,0.0,0.0,0.0,0.0,0.0,0.0,0.0,0.0,0.0,0.0,0.0,0.0,0.0,0.0,0.0,0.0,0.0,0.0,0.0,0.0,0.0,0.0,0.0,0.0,0.0,0.0,0.0,0.0,0.0,0.0,0.0,0.0,0.0,0.0,0.0,0.0,0.0,0.0,0.0,0.0,0.0,0.0,0.0,0.0,0.0,0.0,0.0,0.0,0.0,0.0,0.0,0.0,0.0,0.0,0.0,0.0,0.0,0.0,0.0,0.0,0.0,0.0,0.0,0.0,0.0,0.0,0.0,0.0,0.0,0.0,0.0,0.0,0.0,0.0,0.0,0.0,0.0,0.0,0.0,0.0,0.0,0.0,-2.124,-2.315,-2.4746,-2.5644,-2.5742,-2.5742,-2.5742,-2.5694,-2.53,-2.4496,0.0,0.0,0.0,0.0,0.0,0.0,0.0,0.0,0.0,0.0,0.0,0.0,0.0,0.0,0.0,0.0,0.0,0.0,0.0,0.0,0.0,0.0,0.0,0.0,0.0,0.0,0.0,0.0,0.0,0.0,0.0,0.0,0.0,0.0,0.0,0.0,0.0,0.0,0.0,0.0,0.0,0.0,0.0,0.0,0.0,0.0,0.0,0.0,0.0,0.0,0.0,0.0,0.0,0.0,0.0,0.0,0.0,0.0,0.0,0.0,-1.9443,0.0,0.0,0.0,0.0,0.0,0.0,0.0,0.0,0.0,0.0,0.0,0.0,0.0,0.0,0.0,0.0,0.0,0.0,0.0,0.0,0.0,0.0,0.0,0.0,0.0,0.0,0.0,0.0,0.0,0.0,0.0,0.0,0.0,0.0,0.0,0.0,0.0,0.0,0.0,0.0,0.0,-2.1334,-2.2933,-2.451,-2.5538,-2.5742,-2.5742,-2.5742,-2.5694,-2.53,-2.4496,-2.2516,0.0,0.0,0.0,0.0,0.0,0.0,0.0,0.0,0.0,0.0,0.0,0.0,0.0,0.0,0.0,0.0,0.0,0.0,0.0,0.0,0.0,0.0,0.0,0.0,0.0,0.0,0.0,0.0,0.0,0.0,0.0,0.0,0.0,0.0,0.0,0.0,0.0,0.0,0.0,0.0,0.0,0.0,0.0,0.0,0.0,0.0,0.0,0.0,0.0,0.0,0.0,0.0,0.0,0.0,0.0,0.0,0.0,0.0,0.0,0.0,-2.0264,0.0,0.0,0.0,0.0,0.0,0.0,0.0,0.0,0.0,0.0,0.0,0.0,0.0,0.0,0.0,0.0,0.0,0.0,0.0,0.0,0.0,0.0,0.0,0.0,0.0,0.0,0.0,0.0,0.0,0.0,0.0,0.0,0.0,0.0,0.0,0.0,0.0,0.0,0.0,0.0,-1.9729,-2.2723,-2.5023,-2.5668,-2.5684,-2.567,-2.567,-2.5675,-2.5135,-2.3887,-2.2981,0.0,0.0,0.0,0.0,0.0,0.0,0.0,0.0,0.0,0.0,0.0,0.0,0.0,0.0,0.0,0.0,0.0,0.0,0.0,0.0,0.0,0.0,0.0,0.0,0.0,0.0,0.0,0.0,0.0,0.0,0.0,0.0,0.0,0.0,0.0,0.0,0.0,0.0,0.0,0.0,0.0,0.0,0.0,0.0,0.0,0.0,0.0,0.0,0.0,0.0,0.0,0.0,0.0,-2.1879,-2.1987,-2.2205,-2.2274,-2.2353,-2.2383,-2.187,-2.173,-2.1855,0.0,0.0,0.0,0.0,0.0,0.0,0.0,0.0,0.0,0.0,0.0,0.0,0.0,0.0,0.0,0.0,0.0,0.0,0.0,0.0,0.0,0.0,0.0,0.0,0.0,-2.3798,-2.3466,0.0,0.0,0.0,0.0,0.0,0.0,0.0,0.0,0.0,0.0,0.0,0.0,-1.8456,-2.2398,-2.5723,-2.6827,-2.7022,-2.7006,-2.7006,-2.6971,-2.6341,-2.4903,-2.4495,-2.3659,0.0,0.0,0.0,0.0,0.0,0.0,0.0,0.0,0.0,0.0,0.0,0.0,0.0,0.0,0.0,0.0,0.0,0.0,0.0,0.0,0.0,0.0,0.0,0.0,0.0,0.0,0.0,0.0,0.0,0.0,0.0,0.0,-1.8955,-1.9814,0.0,0.0,0.0,0.0,0.0,0.0,0.0,0.0,0.0,0.0,0.0,0.0,0.0,-2.1128,-2.2475,-2.328,-2.4015,-2.4692,-2.4477,-2.3971,-2.3283,-2.3679,-2.4169,-2.4619,-2.548,0.0,-2.1958,-2.2818,0.0,0.0,0.0,0.0,0.0,0.0,0.0,0.0,0.0,0.0,0.0,0.0,0.0,0.0,0.0,0.0,0.0,0.0,0.0,0.0,0.0,0.0,-2.3638,-2.7813,-2.8865,-2.8769,0.0,-2.4782,-2.1364,-2.0417,0.0,0.0,0.0,0.0,0.0,0.0,0.0,0.0,-2.0145,-2.2159,-2.5628,-3.1515,-3.213,-3.2094,-3.2094,-3.2136,-3.2007,-3.1796,-2.9977,-2.8793,-2.8621,-2.6518,0.0,0.0,0.0,0.0,0.0,0.0,0.0,0.0,0.0,0.0,0.0,0.0,0.0,0.0,0.0,0.0,0.0,0.0,0.0,0.0,0.0,0.0,0.0,0.0,0.0,0.0,0.0,0.0,0.0,-1.9092,-1.958,-2.0205,-2.0117,-1.9912,0.0,0.0,0.0,0.0,0.0,0.0,0.0,0.0,0.0,-2.2456,-2.268,-2.3382,-2.4533,-2.5223,-2.5853,-2.6422,-2.6532,-2.6472,-2.6056,-2.6012,-2.6089,-2.6275,-2.6512,-2.5744,-2.4541,-2.5011,-2.4649,-2.3817,0.0,0.0,0.0,0.0,-2.426,-2.4955,-2.5766,-2.61,0.0,0.0,0.0,0.0,0.0,0.0,0.0,0.0,0.0,0.0,0.0,0.0,0.0,-3.0873,-3.1622,-3.1301,-3.0061,-2.8025,-2.6363,0.0,-2.4169,-2.2783,-2.2786,0.0,0.0,0.0,0.0,-2.3913,-2.5572,-2.7459,-2.9816,-3.2832,-3.3076,-3.3118,-3.3118,-3.3146,-3.3083,-3.3101,-3.1008,-2.978,-2.9845,-2.89,-2.7765,0.0,0.0,0.0,0.0,0.0,0.0,0.0,0.0,0.0,0.0,0.0,0.0,0.0,0.0,0.0,0.0,0.0,0.0,0.0,0.0,0.0,0.0,0.0,0.0,0.0,0.0,0.0,0.0,-1.9648,-2.0078,-2.0508,-2.0771,-2.084,0.0,0.0,0.0,0.0,0.0,0.0,-2.2498,-2.281,-2.3569,-2.5,-2.5023,-2.5599,-2.677,-2.7241,-2.7702,-2.8333,-2.8459,-2.8545,-2.8545,-2.8083,-2.7912,-2.7889,-2.7845,-2.7696,-2.7487,-2.7174,-2.6495,-2.5779,-2.5812,-2.5661,-2.5547,-2.5547,-2.5793,-2.6352,-2.7435,-2.7799,-2.775,-2.766,0.0,-2.6459,-2.4522,0.0,0.0,0.0,0.0,-2.9827,-2.9811,-3.0263,-3.1022,-3.2694,-3.2655,-3.1791,-3.0143,-2.9777,-2.977,0.0,-2.8487,-2.7324,-2.7331,0.0,0.0,0.0,0.0,-2.7925,-2.9558,-3.1692,-3.3063,-3.3146,-3.3096,-3.3081,-3.3081,-3.3081,-3.3101,-3.311,-3.1547,-3.0362,-2.9833,-2.9795,-2.906,-2.7415,0.0,0.0,0.0,0.0,0.0,0.0,0.0,0.0,0.0,0.0,0.0,0.0,0.0,0.0,0.0,0.0,0.0,0.0,0.0,0.0,0.0,0.0,0.0,0.0,0.0,0.0,0.0,0.0,0.0,-2.0508,-2.1309,0.0,0.0,0.0,0.0,-2.4228,-2.4678,-2.4981,-2.4981,-2.5003,-2.5453,-2.6479,-2.6513,-2.7495,-2.9558,-2.9594,-3.0132,-3.1173,-3.0181,-2.9677,-2.9677,-2.9665,-2.9641,-2.9726,-3.0725,-3.0848,-3.0281,-2.8643,-2.7139,-2.5893,-2.6988,-2.7055,-2.6526,-2.6526,-2.7478,-2.8737,-2.8838,-2.8737,-2.8712,-2.9439,-2.9631,-2.9579,-2.9428,-2.931,0.0,0.0,-2.9529,-2.9789,-2.9811,-3.1373,-3.2989,-3.3049,-3.148,-2.9959,-2.9776,-2.9783,-2.9768,0.0,-2.9718,-2.9618,-2.9642,0.0,-2.6956,-2.9314,-2.9656,-2.9633,-2.9819,-3.1744,-3.3068,-3.3068,-3.3093,-3.3081,-3.3081,-3.3081,-3.3101,-3.311,-3.3033,-3.1951,-2.9845,-2.9779,-2.9729,-2.9628,-2.7591,0.0,0.0,0.0,0.0,0.0,0.0,0.0,0.0,0.0,0.0,0.0,0.0,0.0,0.0,0.0,0.0,0.0,0.0,0.0,0.0,0.0,0.0,0.0,0.0,0.0,0.0,0.0,0.0,-2.2025,-2.3477,0.0,-2.4161,-2.4923,-2.5367,-2.4977,-2.5974,-2.6574,-2.6663,-2.7284,-2.8066,-2.9129,-2.9525,-3.0053,-3.0787,-3.1144,-3.1568,-3.1926,-3.194,-3.1944,-3.1932,-3.1477,-3.1132,-3.0857,-3.086,-3.0583,-3.0068,-2.944,-2.8839,-2.8421,-2.8836,-2.8867,-2.8694,-2.8694,-2.8984,-2.9478,-2.9478,-2.9465,-2.9414,-2.9716,-2.9793,-2.977,-2.977,-2.977,-2.9821,-2.9764,-2.9783,-3.0132,-3.1556,-3.251,-3.3083,-3.3118,-3.141,-2.9801,-2.9808,-2.9802,-2.9831,-2.9795,-2.977,-2.9783,-2.9795,-2.9189,-2.8887,-2.9643,-2.9767,-3.0273,-3.1741,-3.2612,-3.314,-3.3129,-3.3081,-3.3081,-3.3081,-3.3136,-3.3127,-3.3097,-3.3127,-3.2781,-3.1996,-3.1941,-3.1241,-2.9796,-2.9001,-2.7494,0.0,0.0,0.0,0.0,0.0,0.0,0.0,0.0,0.0,0.0,0.0,0.0,0.0,0.0,0.0,0.0,0.0,0.0,0.0,0.0,0.0,0.0,0.0,0.0,0.0,0.0,-2.3115,-2.3576,-2.5068,-2.6029,-2.6011,-2.6647,-2.6984,-2.6788,-2.7651,-2.8167,-2.8256,-2.9003,-2.991,-3.0871,-3.1386,-3.1763,-3.1951,-3.2328,-3.2503,-3.2503,-3.2893,-3.3081,-3.3068,-3.2679,-3.2102,-3.1373,-3.1022,-3.047,-2.9792,-2.9792,-3.0125,-3.056,-3.0009,-2.9792,-2.9792,-2.9792,-2.9792,-2.9792,-2.9792,-2.9792,-2.9792,-2.9792,-2.9792,-2.9792,-2.9792,-2.9792,-2.9789,-2.9799,-3.0343,-3.1216,-3.2733,-3.3091,-3.2885,-3.2184,-3.0871,-2.9799,-2.9789,-2.9792,-2.9792,-2.9792,-2.9792,-2.9806,-2.9809,-2.9807,-2.9793,-2.9809,-2.9783,-3.0592,-3.2787,-3.3066,-3.3098,-3.3142,-3.3081,-3.3116,-3.3089,-3.314,-3.2739,-3.2072,-3.1983,-3.1996,-3.1996,-3.2005,-3.1267,-2.9807,-2.9776,-2.8324,-2.5351,0.0,0.0,0.0,0.0,0.0,0.0,0.0,0.0,0.0,0.0,0.0,0.0,0.0,0.0,0.0,0.0,0.0,0.0,0.0,0.0,0.0,0.0,0.0,-2.1688,-2.2412,-2.3554,-2.5048,-2.605,-2.6863,-2.7484,-2.7889,-2.8597,-2.9702,-2.9792,-2.9792,-2.9792,-3.0331,-3.0871,-3.1373,-3.1938,-3.2503,-3.3068,-3.3081,-3.3081,-3.3081,-3.3081,-3.3081,-3.3081,-3.3081,-3.2466,-3.1386,-3.1468,-3.0863,-2.9869,-2.9882,-3.0842,-3.2074,-3.0432,-2.9804,-2.9894,-2.9779,-2.9831,-2.9831,-2.9831,-2.9831,-2.9831,-2.9831,-2.9831,-2.9831,-2.9767,-2.9767,-2.9764,-2.9811,-3.1402,-3.3092,-3.3118,-3.3078,-3.2485,-3.0338,-2.9819,-2.9787,-2.9789,-2.9792,-2.9792,-2.9792,-2.9792,-2.9792,-2.9792,-2.9792,-2.9792,-2.9792,-2.9764,0.0,-3.2813,-3.3089,-3.3068,-3.3081,-3.3081,-3.3114,-3.3122,-3.3059,-3.2084,-2.9906,-2.9821,-2.9821,-2.9821,-2.9794,-2.9794,-2.9794,-2.9769,-2.7698,-2.331,0.0,0.0,0.0,0.0,0.0,0.0,0.0,0.0,0.0,0.0,0.0,0.0,0.0,0.0,0.0,0.0,0.0,0.0,0.0,0.0,0.0,0.0,-2.325,-2.3094,-2.4539,-2.5884,-2.6741,-2.8053,-2.8991,-2.9155,-2.9279,-2.9456,-2.9792,-2.9792,-2.9792,-2.9792,-3.067,-3.1248,-3.1386,-3.2328,-3.2918,-3.3081,-3.3081,-3.3081,-3.3081,-3.3081,-3.3081,-3.3081,-3.3081,-3.2466,-3.1468,-3.2143,-3.1811,-3.0934,-3.2078,-3.2521,-3.235,-3.0483,-3.0727,-3.1935,-3.034,-2.9799,-2.9809,-2.9809,-2.9809,-2.9809,-2.9809,-2.9809,-2.9788,-2.9766,-2.9794,-2.9834,-2.9801,-3.1405,-3.3127,-3.3102,-3.1943,-3.0565,-2.9902,-2.9794,-2.9827,-2.9817,-2.9792,-2.9792,-2.9792,-2.9792,-2.9792,-2.9792,-2.9792,-2.9792,-2.9792,-2.9829,0.0,-3.2856,-3.3136,-3.3073,-3.3142,-3.3081,-3.3114,-3.3122,-3.1585,-3.0441,-2.9807,-2.9787,-2.982,-2.982,-2.9811,-2.9774,-2.9774,-2.9804,-2.9186,0.0,0.0,0.0,0.0,0.0,0.0,0.0,0.0,0.0,0.0,0.0,0.0,0.0,0.0,0.0,0.0,0.0,0.0,0.0,0.0,0.0,0.0,-2.4038,-2.5075,-2.5799,-2.6491,-2.738,-2.8334,-2.9257,-2.9792,-2.9792,-2.9792,-2.9792,-2.9792,-2.9792,-2.9792,-2.9792,-3.0595,-3.1173,-3.1386,-3.2252,-3.283,-3.3081,-3.3556,-3.3797,-3.3797,-3.4178,-3.4415,-3.4415,-3.4415,-3.3773,0.0,-3.3194,-3.2979,-3.2253,-3.2663,-3.3334,0.0,0.0,0.0,0.0,0.0,-3.0461,-2.9763,-2.9763,-3.0824,-3.2187,-3.2187,-3.2187,-3.2157,-3.2214,-3.105,-2.9776,-2.9814,-3.1417,-3.3117,-3.3059,-3.2186,-3.0909,-3.0059,-2.9762,-2.9792,-2.9792,-2.9792,-2.9792,-2.9792,0.0,0.0,-2.9792,-2.9792,-2.9792,-2.9792,-2.9845,-3.0226,-3.1572,-3.2529,-3.3091,-3.3098,-3.3123,-3.3132,-3.311,-3.1038,0.0,0.0,0.0,-2.9792,-2.9792,-2.9792,0.0,0.0,0.0,0.0,0.0,0.0,0.0,0.0,-2.769,-2.7875,0.0,0.0,0.0,0.0,0.0,0.0,0.0,0.0,0.0,0.0,0.0,0.0,0.0,0.0,0.0,0.0,-2.6161,-2.7256,-2.8725,-2.8268,-2.8256,-2.9651,-2.9792,-2.9792,-2.9792,-2.9792,-2.9792,-2.9792,-2.9792,-2.9792,-2.9792,0.0,0.0,0.0,0.0,-3.2718,-3.3458,-3.4428,-3.4897,-3.4897,-3.5734,-3.6198,-3.6198,-3.6198,-3.5535,-3.4375,-3.4552,-3.415,-3.3415,-3.2621,-3.3931,-3.6171,-3.4794,-3.3135,-3.1575,-3.2552,-3.1869,0.0,0.0,0.0,0.0,-3.5522,-3.5522,-3.5466,-3.5481,-3.3137,-3.05,-3.083,-3.2269,-3.3836,-3.3847,-3.3476,-3.2541,-3.0344,-2.9774,-2.9781,-2.9781,-2.9831,-2.9792,-2.9792,-2.9792,-2.9792,-2.9792,-2.9792,-2.9792,-2.9792,-2.9808,0.0,-2.9806,-3.1546,-3.27,-3.2726,0.0,0.0,-3.3097,-3.1327,-3.0033,-2.9843,-2.977,-2.9789,-2.9814,-2.9814,-2.977,-2.9769,-3.0047,-3.0394,-3.0906,-3.0853,-3.1894,-3.3765,-3.1829,-3.087,0.0,0.0,0.0,0.0,0.0,0.0,0.0,0.0,0.0,0.0,0.0,0.0,0.0,0.0,0.0,-2.6171,-2.7498,-2.8561,-2.8888,-2.9174,-2.9499,-2.9779,-2.9792,-2.9792,-2.9792,-2.9792,-2.9792,-2.9792,-2.9792,-2.9792,-2.9792,-3.0319,0.0,-3.262,-3.3249,-3.4192,-3.5574,-3.5814,-3.5894,-3.5894,0.0,0.0,-3.6198,-3.6198,-3.5416,-3.4217,-3.5246,-3.4569,-3.2986,-3.5351,-3.6624,-3.7218,-3.7994,-3.4953,-3.0589,-3.3733,-3.4694,-3.4413,-3.4413,-3.489,-3.551,-3.551,-3.551,-3.5481,-3.547,-3.4979,0.0,-3.6935,-3.7887,-3.8188,-3.8218,-3.5654,-3.2524,-3.0355,-2.9782,-2.9804,-2.9804,-2.9821,-2.9792,-2.9792,-2.9792,-2.9792,-2.9792,-2.9792,-2.9792,-2.9792,-2.9764,-2.9824,-2.9782,-3.0176,-3.0456,-3.0445,-3.2068,-3.3097,-3.3097,-3.2701,-3.1675,-2.9893,-2.9836,-2.9819,-2.9824,-2.9837,-2.9838,-2.982,-3.1552,-3.4136,-3.7566,-3.751,-3.7785,-3.8194,-3.7723,-3.7512,0.0,0.0,0.0,0.0,0.0,0.0,0.0,0.0,0.0,0.0,0.0,-2.4542,-2.5469,0.0,-2.7055,-2.7607,-2.8386,-2.9038,-2.9315,-2.9616,-2.9792,-2.9792,-2.9792,-2.9792,-2.9792,-2.9792,-2.9792,-2.9792,-2.9792,-2.9792,-2.9792,-3.0471,-3.1526,-3.3,-3.3169,-3.4092,-3.5699,-3.6022,-3.6213,-3.6213,-3.7277,-3.78,-3.78,-3.78,-3.7428,-3.6765,-3.6731,-3.5685,-3.4283,-3.7203,-3.8372,-3.8467,-3.9169,-3.6652,-3.2903,-3.4835,-3.548,-3.5487,-3.5484,-3.5504,-3.5519,-3.5523,-3.5502,-3.5474,-3.5488,-3.6388,-3.7712,-3.9002,-3.9372,-3.9402,-3.944,-3.7854,-3.5609,-3.3252,-3.2636,-3.2141,-3.023,-2.9764,-2.9808,-2.9808,-2.9782,-2.9792,-2.9792,-2.9792,-2.9792,-2.9792,-2.9792,-2.9777,-2.9783,-2.9808,-2.9806,-2.9782,-3.1788,-3.3066,-3.3145,-3.3102,-3.2155,-2.9954,-3.0854,-3.1423,-3.1493,-3.1415,-3.1478,-3.1455,-3.4585,-3.7253,-3.9369,-3.9431,-3.9387,-3.9429,-3.9387,-3.9373,0.0,0.0,0.0,0.0,0.0,0.0,0.0,0.0,-2.5008,-2.5121,-2.5473,-2.5937,-2.6584,-2.7067,-2.777,-2.8762,-2.9026,-2.9252,-2.9729,-2.9792,-2.9792,-2.9792,-2.9792,-2.9792,-2.9792,-2.9792,-2.9869,-3.0075,-3.0075,-3.0139,-3.0355,-3.0917,-3.1915,-3.3319,-3.3206,-3.4094,-3.6031,-3.6533,-3.6853,-3.6853,-3.8561,-3.9424,-3.9424,-3.9424,-3.9403,-3.934,-3.7704,-3.6443,-3.5688,-3.8348,-3.9428,-3.9415,-3.939,-3.8098,-3.6251,-3.6283,-3.5941,-3.5533,-3.5463,-3.5469,-3.5493,-3.5503,-3.5867,-3.6276,-3.6271,-3.7754,-3.9415,-3.9405,-3.9375,-3.9289,-3.8765,-3.8665,-3.8093,-3.5985,-3.5497,-3.4668,-3.1607,-3.0943,-3.0721,-2.9951,-2.9834,-2.9792,-2.9792,-2.9792,-2.9792,-2.9792,-2.9792,-2.9792,-2.9792,-2.9764,-2.9791,-2.9797,-3.1776,-3.3098,-3.3116,-3.3119,-3.2357,-3.0593,-3.2143,-3.3088,-3.3131,-3.3064,-3.345,-3.4352,-3.7634,-3.9387,-3.94,-3.9415,-3.9424,-3.9424,-3.9424,-3.9424,-2.6314,-2.5159,-2.423,-2.5172,-2.4745,-2.4469,0.0,0.0,-2.5649,-2.6163,-2.6395,-2.6596,-2.708,-2.7645,-2.821,-2.8825,-2.9365,-2.9716,-2.9779,-2.9792,-2.9792,-2.9792,-2.9792,-2.9792,-2.9792,-2.9792,-3.0139,-3.097,-3.1044,-3.1389,-3.2249,-3.186,-3.2588,-3.4623,-3.451,-3.5856,-3.8928,-3.9015,-3.9015,-3.9015,-3.9307,-3.9424,-3.9424,-3.9424,-3.9403,-3.9239,-3.6823,-3.5644,-3.5703,-3.8337,-3.9385,-3.943,-3.9403,-3.9245,-3.8934,-3.897,-3.7474,-3.5533,-3.5463,-3.5523,-3.5533,-3.5496,-3.7053,-3.8956,-3.8952,-3.9179,-3.939,-3.9361,-3.9399,-3.8888,-3.6555,-3.5962,-3.5874,-3.5569,-3.5507,-3.5414,-3.4961,-3.4839,-3.3859,-3.0468,-2.9834,-2.9792,-2.9792,-2.9792,-2.9792,-2.9792,-2.9792,-2.9792,-2.9792,-2.982,-2.9801,-2.9821,-3.1813,-3.3102,-3.3129,-3.3119,-3.2992,-3.2719,-3.298,-3.3123,-3.3109,-3.314,-3.4861,-3.8649,-3.9188,-3.9431,-3.9442,-3.9382,-3.9424,-3.9424,-3.9424,-3.9424,-2.605,-2.5699,0.0,0.0,-2.5511,-2.5611,-2.637,-2.6264,-2.6163,-2.6483,-2.6716,-2.7105,-2.7657,-2.821,-2.8762,0.0,-2.9641,-2.9792,-2.9792,-2.9792,-2.9792,-2.9792,-2.9792,-2.9792,-2.9792,-2.9792,-3.0216,-3.1106,-3.0721,-3.0897,-3.2047,-3.2205,-3.2595,-3.3519,-3.4598,-3.6474,-3.9394,-3.9424,-3.9424,-3.9424,-3.9424,-3.9424,-3.9424,-3.9424,-3.9403,-3.9355,-3.8226,-3.7788,-3.7844,-3.8958,-3.9365,-3.9388,-3.9364,-3.9424,-3.9364,-3.9385,-3.7778,-3.5517,-3.5524,-3.551,-3.5775,-3.7276,-3.8476,-3.9434,-3.944,-3.9373,-3.9373,-3.9384,-3.9385,-3.878,-3.6197,-3.5488,-3.5472,-3.5472,-3.5466,-3.5474,-3.5474,-3.5517,-3.4384,-3.0569,-2.9823,-2.9783,-2.9783,-2.9792,-2.982,-2.982,-2.977,-2.9789,-2.982,-2.9811,-3.027,-3.1617,-3.2525,-3.3101,-3.3068,-3.3114,-3.3101,-3.3068,-3.3089,-3.3129,-3.3135,-3.5425,-3.7636,-3.9396,-3.9402,-3.943,-3.9424,-3.9424,-3.9424,-3.9424,-3.9424,-3.9424,-2.595,0.0,0.0,-2.5862,-2.6025,-2.6332,-2.6496,-2.6533,-2.6533,-2.6533,-2.6779,-2.7218,-2.777,-2.8335,-2.8888,-2.9465,-2.9691,-2.9792,-2.9792,-2.9792,-2.9792,-2.9792,-2.9792,-2.9934,-3.0139,-3.0216,-3.0607,-3.1775,-3.1248,-3.1415,-3.2709,-3.3127,-3.3408,-3.3395,-3.5493,-3.7511,-3.9409,-3.9424,-3.9424,-3.9424,-3.9424,-3.9424,-3.9409,-3.9406,-3.9017,-3.8362,-3.9092,-3.9373,-3.94,-3.9379,-3.942,-3.9379,-3.9405,-3.9375,-3.9395,-3.9367,-3.8219,-3.6566,-3.6573,-3.6559,-3.6888,-3.8801,-3.941,-3.941,-3.9376,-3.9424,-3.9379,-3.9369,-3.8883,-3.7886,-3.5969,-3.5466,-3.5487,-3.5469,-3.5499,-3.5529,-3.5519,-3.5481,-3.469,-3.1929,-3.136,-3.1402,-3.1402,-3.1389,-3.1027,-2.996,-2.9806,-2.9768,-2.9824,-3.0338,-3.1304,-3.2929,-3.3101,-3.3081,-3.3081,-3.3114,-3.311,-3.311,-3.3116,-3.3642,-3.4781,-3.7756,-3.9398,-3.9401,-3.94,-3.9424,-3.9424,-3.9424,-3.9424,-3.9424,-3.9424,-3.9424,0.0,0.0,-2.5121,-2.6176,-2.6025,-2.5774,-2.6395,-2.6533,-2.6533,-2.6533,-2.6546,-2.6653,-2.7205,-2.7758,-2.831,-2.8863,-2.9428,-2.9792,-2.9792,-2.9792,-2.9792,-2.9792,-2.9792,-3.0139,0.0,-3.118,-3.1834,-3.3403,-3.3525,-3.4018,-3.5344,-3.54,-3.5398,-3.539,-3.7918,-3.9294,-3.9409,-3.9424,-3.9424,-3.9424,-3.9424,-3.9424,-3.9409,-3.941,-3.8042,-3.5764,-3.8317,-3.94,-3.9385,-3.9413,-3.9434,-3.9376,-3.938,-3.9404,-3.9419,-3.938,-3.9334,-3.9256,-3.9271,-3.9297,-3.9282,-3.9352,-3.9397,-3.9383,-3.9373,-3.9424,-3.9424,-3.9409,-3.7559,-3.5604,-3.5492,-3.5473,-3.5477,-3.5493,-3.5502,-3.5489,-3.5499,-3.5481,-3.5458,-3.5372,-3.5368,-3.5336,-3.5336,-3.5356,-3.4085,-3.0328,-2.9822,-2.9841,-2.9762,-3.1669,-3.3005,-3.3104,-3.3068,-3.3081,-3.3081,-3.3122,-3.3065,-3.3065,-3.3143,-3.4917,-3.9037,-3.9291,-3.9386,-3.9382,-3.9424,-3.9424,-3.9424,-3.9424,-3.9424,-3.9424,-3.9424,-3.9424,-2.5887,0.0,-2.6,-2.6433,-2.6382,-2.6214,-2.6483,-2.6533,-2.6533,-2.6533,-2.6533,-2.6697,-2.718,-2.7431,-2.7858,-2.8775,-2.9089,-2.9352,-2.9741,-3.0355,-3.0771,-3.0771,-3.1267,0.0,0.0,0.0,0.0,-3.3443,-3.2024,-3.2334,-3.5365,-3.5526,-3.6265,-3.8054,-3.8978,-3.9391,-3.9424,-3.9424,-3.9424,-3.9409,-3.9434,-3.9375,-3.9412,-3.9408,-3.7984,-3.5525,-3.6396,-3.7801,-3.9383,-3.9431,-4.0774,-4.262,-4.0282,-4.0814,-4.2847,-4.2856,-4.2851,-4.2856,-4.2815,-4.1326,-3.9754,-4.2121,-4.1317,-3.9404,-3.9398,-3.9373,-3.9419,-3.942,-3.8762,-3.8083,-3.809,-3.6788,-3.5967,-3.7699,-3.6768,-3.5526,-3.548,-3.548,-3.5486,-3.5477,-3.6931,-3.8068,-3.8068,-3.6676,-3.5681,-3.6091,-3.2501,-3.0318,-3.1771,-3.2645,-3.3071,-3.3116,-3.3081,-3.3101,-3.3097,-3.3072,-3.4334,-3.7104,-3.7239,-3.7921,-3.9367,-3.9432,-3.9385,-3.9424,-3.9424,-3.9424,-3.9424,-3.9424,-3.9424,-3.9424,-3.9424,-3.9369,-2.585,-2.6025,-2.6201,-2.6483,-2.6533,-2.6533,-2.6533,-2.6533,-2.6471,-2.6189,-2.6151,-2.6251,-2.6615,-2.6854,-2.7356,-2.8448,-2.88,-2.9126,-2.9716,-3.062,-3.118,-3.118,-3.2033,-3.2933,0.0,0.0,0.0,-3.4085,-3.2773,-3.2915,-3.5379,-3.5526,-3.6716,-3.9305,-3.94,-3.9369,-3.937,-3.9403,-3.9376,-3.9436,-3.9379,-3.9497,-3.9714,-4.0737,-4.0338,-3.8763,-3.8764,-3.9708,-4.1178,-3.9929,-4.1422,-4.4365,-4.2118,-4.2639,-4.4628,-4.4614,-4.4591,-4.4616,-4.462,-4.3157,-4.1633,-4.3846,-4.3103,-4.1246,-4.1236,-4.0386,-3.9375,-3.9382,-3.9385,-3.942,-3.9428,-3.8147,-3.7337,-3.9032,-3.8122,-3.6663,-3.5727,-3.6259,-3.6858,-3.6852,-3.8256,-3.9436,-3.9436,-3.8012,-3.743,-3.9149,-3.59,-3.3751,-3.5178,-3.402,-3.3144,-3.3066,-3.3104,-3.3129,-3.3122,-3.4446,-3.654,-3.9266,-3.9396,-3.9417,-3.9417,-3.9385,-3.9424,-3.9424,-3.9424,-3.9424,-3.9424,-3.9424,-3.9424,-3.9424,-3.9369,-3.943,-2.6264,-2.6038,-2.5774,-2.6395,-2.6533,-2.6533,-2.6533,-2.6508,-2.6264,-2.5711,-2.5573,-2.5548,0.0,0.0,-2.6779,-2.7883,-2.8524,-2.9164,-2.9768,-3.0696,-3.1315,0.0,0.0,0.0,0.0,0.0,0.0,-3.5329,0.0,-3.5504,-3.5504,-3.5495,-3.6633,-3.9139,-3.9215,-3.9245,-3.94,-3.9395,-3.9491,-3.9656,-3.9651,-3.9897,-4.0451,-4.329,-4.4591,-4.4591,-4.4577,-4.4489,-4.4131,-4.0811,-4.1406,-4.4397,-4.4575,-4.4626,-4.4597,-4.4603,-4.4587,-4.4598,-4.4599,-4.4624,-4.4586,-4.4624,-4.4607,-4.46,-4.4587,-4.228,-3.964,-3.9428,-3.937,-3.9421,-3.942,-3.9429,-3.9433,-3.9382,-3.9373,-3.8722,-3.6207,-3.7653,-3.939,-3.937,-3.943,-3.943,-3.943,-3.943,-3.943,-3.943,-3.9388,-3.9387,-3.9419,-3.5903,-3.341,-3.3436,-3.3449,-3.3436,-3.341,-3.7119,-3.9381,-3.9427,-3.9401,-3.9424,-3.9424,-3.9424,-3.9424,-3.9424,-3.9424,-3.9424,-3.9424,-3.9424,-3.9424,-3.9424,-3.9401,-3.9491,-2.5774,-2.6025,-2.6276,-2.6496,-2.6533,-2.6533,-2.6533,-2.6126,-2.5774,-2.5624,-2.5285,-2.5021,0.0,0.0,0.0,-2.7306,-2.8556,0.0,-3.069,-3.2249,0.0,-3.331,0.0,-3.4839,-3.5008,-3.4853,0.0,0.0,-3.5504,-3.5504,-3.5504,-3.5495,-3.5822,-3.6462,-3.6522,-3.7396,-3.9396,-3.938,-4.0716,-4.325,-4.3272,-4.3317,-4.3497,-4.4286,-4.4609,-4.4592,-4.4598,-4.332,-4.1173,-4.0271,-4.0479,-4.1484,-4.3693,-4.4601,-4.4587,-4.4587,-4.4587,-4.4604,-4.4626,-4.4575,-4.4621,-4.4623,-4.4623,-4.4606,-4.4583,-4.4003,-4.2732,-4.0142,-3.937,-3.9394,-3.9391,-3.9436,-3.9379,-3.9388,-3.938,-3.9199,-3.8534,-3.8892,-3.9385,-3.9403,-3.9376,-3.9376,-3.9376,-3.9376,-3.9376,-3.9376,-3.9364,-3.9399,-3.9402,-3.8431,-3.7776,-3.7769,-3.7797,-3.7813,-3.7816,-3.8739,-3.9385,-3.943,-3.9427,-3.9424,-3.9424,-3.9424,-3.9424,-3.9424,-3.9424,-3.9424,-3.9424,-3.9424,-3.9424,-3.9424,-3.9401,-4.0457,-2.6402,-2.6565,-2.6766,-2.6584,-2.6533,-2.6458,-2.6138,-2.5824,-2.546,-2.4983,-2.4669,0.0,-2.4456,-2.4895,0.0,0.0,0.0,0.0,-3.0692,-3.2653,-3.4027,0.0,-3.4905,0.0,-3.5504,-3.5504,-3.5504,0.0,-3.5504,-3.5504,-3.5504,-3.5523,-3.5532,-3.5532,-3.5496,-3.6839,-3.9661,-4.1042,-4.2637,-4.461,-4.4613,-4.3895,-4.2665,-4.4028,-4.457,-4.4514,0.0,-4.1661,-4.0078,-4.0093,-4.0104,-4.0271,-4.1963,-4.3403,-4.4618,-4.4592,-4.4587,-4.4587,-4.4587,-4.4587,-4.4587,-4.4587,-4.4587,-4.4632,-4.4606,-4.4607,-4.3897,-4.0386,-3.937,-3.9424,-3.9424,-3.9424,-3.9424,-3.9424,-3.9433,-3.9429,-3.9379,-3.9433,-3.9373,-3.9379,-3.9424,-3.9424,-3.9424,-3.9424,-3.9424,-3.9424,-3.9424,-3.9397,-3.9385,-3.9402,-3.9386,-3.944,-3.9393,-3.9427,-3.9372,-3.9432,-3.9372,-3.9367,-3.9424,-3.9424,-3.9424,-3.9424,-3.9424,-3.9424,-3.9424,-3.9424,-3.9424,-3.9424,-3.9412,-3.9385,-3.9432,-4.08,-2.7306,-2.7168,-2.7055,-2.6647,-2.6533,-2.637,-2.5724,-2.5536,-2.5209,-2.4205,0.0,-2.3891,-2.3891,-2.4343,-2.5071,-2.6367,0.0,-2.9757,-3.0601,-3.2666,-3.4076,-3.4163,-3.4986,-3.5504,-3.5504,-3.5504,-3.5504,-3.5504,-3.5504,-3.5504,-3.5504,-3.5504,-3.5489,-3.5509,-3.5915,-3.7405,-4.0043,-4.2696,-4.4011,-4.3984,-4.3994,-4.263,-4.0191,-4.2802,-4.4023,-4.385,0.0,0.0,-4.0068,-4.0104,-4.012,-4.0144,-4.0531,-4.2274,-4.4614,-4.4609,-4.4587,-4.4587,-4.4587,-4.4587,-4.4587,-4.4587,-4.4587,-4.4615,-4.4582,-4.4278,-4.3251,-4.0251,-3.9388,-3.9391,-3.9394,-3.9424,-3.9424,-3.9424,-3.9424,-3.9424,-3.9424,-3.9424,-3.9424,-3.9424,-3.9424,-3.9424,-3.9424,-3.9424,-3.9424,-3.9424,-3.9424,-3.9424,-3.9424,-3.9424,-3.9424,-3.9424,-3.9424,-3.9424,-3.9424,-3.9424,-3.9424,-3.9424,-3.9424,-3.9424,-3.9424,-3.9424,-3.9424,-3.9424,-3.9424,-3.9424,-3.9424,-3.9382,-3.9371,-3.9387,-3.974,-4.1095,-2.6628,-2.6672,-2.6647,-2.6546,-2.6533,-2.637,-2.5724,-2.5259,0.0,0.0,-2.3615,-2.3288,-2.3288,-2.3753,-2.4735,-2.6531,-2.8136,-2.9975,-3.2277,-3.3682,-3.4639,0.0,-3.5359,-3.5504,-3.5504,0.0,0.0,0.0,0.0,-3.5504,-3.5504,-3.5504,-3.5529,-3.5465,-3.7941,-3.9564,-4.0073,-4.0638,-4.0875,-4.0896,-4.0875,-4.0622,-4.0141,-4.0639,-4.0914,-4.0828,-4.0303,0.0,-4.0071,-4.0087,-4.0121,-4.0341,-4.2856,-4.4158,-4.4602,-4.458,-4.4587,-4.4587,-4.4587,-4.4587,-4.4587,-4.4587,-4.4587,-4.4604,-4.4575,-4.26,-4.019,-3.9548,-3.9375,-3.9397,-3.9433,-3.9424,-3.9424,-3.9424,-3.9424,-3.9424,-3.9424,-3.9424,-3.9424,-3.9424,-3.9424,-3.9424,-3.9424,-3.9424,-3.9424,-3.9424,-3.9424,-3.9424,-3.9424,-3.9424,-3.9424,-3.9424,-3.9424,-3.9424,-3.9424,-3.9424,-3.9424,-3.9424,-3.9424,-3.9424,-3.9424,-3.9424,-3.9424,-3.9424,-3.9424,-3.9424,-3.9424,-3.943,-3.9402,-3.9417,-4.1609,-4.2906,-2.6967,-2.6892,-2.6816,-2.6596,-2.6533,-2.6239,-2.5385,0.0,0.0,0.0,-2.3326,-2.3078,-2.3078,-2.3602,0.0,-2.5627,-2.7628,-2.963,-3.1279,-3.3235,0.0,-3.4936,-3.5295,-3.5504,0.0,0.0,0.0,0.0,0.0,-3.5504,-3.5504,-3.5504,-3.551,-3.5476,-3.8462,-4.009,-4.008,-4.01,-4.0104,-4.0085,-4.0104,-4.012,-4.0085,-4.0104,-4.0101,-4.0074,-4.0085,0.0,-4.0081,-4.0087,-4.0086,-4.0244,-4.1707,-4.3254,-4.4592,-4.4626,-4.4587,-4.4587,-4.4587,-4.4587,-4.4621,-4.4565,-4.4579,-4.4581,-4.4582,-4.3429,-4.2106,-4.214,-4.0805,-3.9398,-3.9403,-3.9424,-3.9424,-3.9424,-3.9424,-3.9424,-3.9424,-3.9424,-3.9424,-3.9424,-3.9424,-3.9424,-3.9424,-3.9424,-3.9424,-3.9424,-3.9424,-3.9424,-3.9424,-3.9424,-3.9424,-3.9424,-3.9424,-3.9424,-3.9424,-3.9424,-3.9424,-3.9424,-3.9424,-3.9424,-3.9424,-3.9424,-3.9424,-3.9424,-3.9424,-3.9424,-3.9424,-3.9401,-4.007,-4.146,-4.2757,-4.3283,-2.7218,-2.7105,-2.7005,-2.6634,-2.6433,-2.6013,-2.5046,-2.4732,0.0,0.0,-2.3078,-2.3078,-2.3078,0.0,-2.4092,0.0,-2.7,-2.8878,-3.0085,-3.2309,-3.3973,0.0,-3.4895,0.0,0.0,0.0,0.0,0.0,0.0,0.0,-3.5504,-3.5504,-3.5518,-3.5466,-3.8518,-4.01,-4.0087,-4.0087,-4.0087,-4.0087,-4.0086,-4.0086,-4.0087,-4.0103,-4.0077,-4.0043,-3.9385,0.0,0.0,-4.0093,-4.0084,-4.0005,-3.9391,-4.1332,-4.4616,-4.4592,-4.4621,-4.4575,-4.4626,-4.4609,-4.4619,-4.4577,-4.4608,-4.4632,-4.4606,-4.4571,-4.4627,-4.461,-4.211,-3.9419,-3.942,-3.9391,-3.9424,-3.9424,-3.9424,-3.9424,-3.9424,-3.9424,-3.9424,-3.9424,-3.9424,-3.9424,-3.9424,-3.9424,-3.9424,-3.9424,-3.9424,-3.9424,-3.9424,-3.9424,-3.9424,-3.9424,-3.9424,-3.9424,-3.9424,-3.9424,-3.9424,-3.9424,-3.9424,-3.9424,-3.9424,-3.9424,-3.9424,-3.9424,-3.9424,-3.9382,-3.9427,-3.9402,-4.0741,-4.329,-4.3333,-4.3262,-2.6622,-2.6596,-2.6596,-2.6546,-2.6063,-2.5523,-2.4946,0.0,0.0,-2.3203,-2.3078,-2.3078,-2.3078,-2.3175,0.0,0.0,0.0,0.0,-3.0654,-3.1325,-3.2167,-3.4029,0.0,0.0,0.0,0.0,0.0,0.0,0.0,0.0,-3.5504,-3.5504,-3.5518,-3.5466,-3.8518,-4.01,-4.0087,-4.0113,-4.0113,-4.0087,-4.0111,-4.0117,-4.0104,-4.0128,-4.0104,-3.9939,-3.7151,0.0,0.0,-4.0067,-4.0083,-3.9821,-3.7029,-3.9451,-4.461,-4.4579,-4.4603,-4.4616,-4.458,-4.4573,-4.4599,-4.4598,-4.461,-4.4632,-4.4606,-4.4599,-4.4603,-4.4577,-4.212,-3.9414,-3.9404,-3.9415,-3.9424,-3.9424,-3.9424,-3.9424,-3.9424,-3.9424,-3.9424,-3.9424,-3.9424,-3.9424,-3.9424,-3.9424,-3.9424,-3.9424,-3.9424,-3.9424,-3.9424,-3.9424,-3.9424,-3.9424,-3.9424,-3.9424,-3.9424,-3.9424,-3.9424,-3.9424,-3.9424,-3.9424,-3.9424,-3.9424,-3.9424,-3.9424,-3.9424,-3.9399,-3.9417,-3.9385,-4.0721,-4.3333,-4.3307,-4.3314,-2.6433,-2.6533,-2.6533,-2.6533,-2.6025,-2.546,-2.4946,0.0,-2.3841,-2.319,-2.3078,-2.3078,-2.3078,-2.3078,0.0,0.0,0.0,0.0,-2.8082,-2.9522,-3.087,-3.2152,-3.3217,0.0,0.0,0.0,0.0,0.0,0.0,0.0,-3.5492,-3.5479,-3.548,-3.5504,-3.8504,-4.012,-4.0113,-4.0101,-3.9163,-3.7352,-3.9182,-3.9139,-3.7402,-3.9231,-3.9097,-3.7263,-3.6032,0.0,0.0,-3.734,-3.7329,-3.7207,-3.5994,-3.9233,-4.4341,-4.2227,-4.2818,-4.4348,-4.2512,-4.1678,-4.1488,-4.1453,-4.1437,-4.1868,-4.3961,-4.462,-4.4615,-4.4625,-4.3603,-4.2023,-3.9923,-3.9373,-3.9424,-3.9424,-3.9424,-3.9424,-3.9424,-3.9424,-3.9424,-3.9424,-3.9424,-3.9424,-3.9424,-3.9424,-3.9424,-3.9424,-3.9424,-3.9424,-3.9424,-3.9424,-3.9424,-3.9424,-3.9424,-3.9424,-3.9424,-3.9424,-3.9424,-3.9424,-3.9424,-3.9424,-3.9424,-3.9424,-3.9424,-3.9424,-4.0184,-4.0633,-4.0591,-4.1399,-4.2269,-4.3285,-4.3274,-4.3329,-2.6101,-2.6327,-2.6533,-2.6533,-2.6025,-2.546,0.0,-2.4406,-2.3853,-2.3263,-2.3078,-2.3078,-2.3078,-2.3078,-2.3107,0.0,0.0,0.0,0.0,-2.7828,-2.9408,0.0,0.0,0.0,0.0,0.0,0.0,0.0,0.0,0.0,0.0,-3.5477,-3.548,-3.5508,-3.7638,-3.9185,-4.0089,-4.0071,-3.857,-3.5554,-3.8624,-3.8463,-3.5619,-3.8689,-3.8428,-3.5494,0.0,0.0,0.0,-3.5522,-3.5523,-3.5521,-3.5492,-3.8107,-4.1707,-4.0039,-4.0959,-4.2735,-4.0658,-3.9141,-3.8276,-3.8264,-3.8739,-3.9844,-4.2346,-4.304,-4.3057,-4.3065,-4.3087,-4.2516,-4.0066,-3.9424,-3.9424,-3.9424,-3.9424,-3.9424,-3.9424,-3.9424,-3.9424,-3.9424,-3.9424,-3.9424,-3.9424,-3.9424,-3.9424,-3.9424,-3.9424,-3.9424,-3.9424,-3.9424,-3.9424,-3.9424,-3.9424,-3.9424,-3.9424,-3.9424,-3.9424,-3.9424,-3.9424,-3.9424,-3.9424,-3.9424,-3.9424,-3.9424,-4.0751,-4.1593,-4.197,-4.2879,-4.3331,-4.3265,-4.3319,-4.3329,-2.5598,-2.6025,-2.6533,-2.6533,-2.6025,-2.546,-2.4946,-2.4507,-2.3966,-2.3263,-2.3078,-2.3078,-2.3078,-2.3078,-2.3107,0.0,0.0,0.0,0.0,-2.6554,0.0,0.0,0.0,0.0,0.0,0.0,0.0,0.0,0.0,0.0,0.0,-3.5505,-3.552,-3.5508,-3.5508,-3.704,-4.0049,-4.0096,-3.8559,-3.5524,-3.8623,-3.8482,-3.5571,-3.8686,-3.8385,0.0,0.0,0.0,0.0,-3.5489,-3.5489,-3.5524,-3.5513,-3.5514,-3.5881,-3.8434,-3.9392,-3.9479,-3.9386,-3.7686,-3.5544,-3.5545,-3.7302,-3.9385,-3.9415,-3.9477,-3.9421,-3.9437,-3.9451,-3.9429,-3.9403,-3.9424,-3.9424,-3.9424,-3.9424,-3.9424,-3.9424,-3.9424,-3.9424,-3.9424,-3.9424,-3.9424,-3.9424,-3.9424,-3.9424,-3.9424,-3.9424,-3.9424,-3.9424,-3.9424,-3.9424,-3.9424,-3.9424,-3.9424,-3.9424,-3.9424,-3.9424,-3.9424,-3.9424,-3.9424,-3.9424,-3.9424,-3.9424,-3.9424,-4.0751,-4.2016,-4.3259,-4.3304,-4.328,-4.3329,-4.3329,-4.3329,-2.5059,-2.5785,-2.6362,-2.5876,-2.5985,-2.6168,-2.6022,-2.4658,-2.3406,-2.3165,-2.3078,-2.3078,-2.3078,-2.3078,-2.3107,-2.3079,0.0,0.0,0.0,0.0,0.0,-2.7944,0.0,0.0,0.0,0.0,0.0,0.0,0.0,0.0,0.0,-3.2746,-3.36,-3.5412,-3.5523,-3.5952,-3.6948,-3.6938,-3.644,-3.5509,-3.6474,-3.646,-3.5556,-3.652,0.0,0.0,0.0,0.0,0.0,-3.5504,-3.5504,-3.5489,-3.5529,-3.5514,-3.5592,-3.6431,-3.6737,-3.7029,-3.8772,-3.7721,-3.5501,-3.5511,-3.6084,-3.7075,-3.8841,-3.9436,-3.9419,-3.9419,-3.94,-3.9384,-3.9364,-3.9424,-3.9424,-3.9424,-3.9424,-3.9424,-3.9424,-3.9424,-3.9424,-3.9424,-3.9424,-3.9424,-3.9424,-3.9424,-3.9424,-3.9424,-3.9424,-3.9424,-3.9424,-3.9424,-3.9424,-3.9424,-3.9424,-3.9424,-3.9424,-3.9424,-3.9424,-3.9424,-3.9424,-3.9424,-3.9424,-3.9424,-3.9634,-4.0083,-4.0935,-4.1791,-4.2726,-4.3097,-4.3319,-4.3344,-4.3793,-4.4003,0.0,-2.5338,-2.5777,-2.5266,-2.5511,-2.5936,-2.6364,-2.5402,-2.4153,-2.3276,-2.3078,-2.3078,-2.3078,-2.3078,-2.3131,-2.3101,0.0,0.0,0.0,0.0,0.0,-2.822,0.0,0.0,0.0,0.0,0.0,0.0,0.0,0.0,0.0,-3.1499,-3.2284,-3.3967,-3.4987,-3.5522,-3.5522,-3.5505,-3.5522,-3.5507,-3.551,-3.548,-3.5522,-3.551,0.0,0.0,0.0,0.0,0.0,-3.5504,-3.5504,-3.5504,-3.5504,-3.5478,-3.5495,-3.5495,-3.5486,-3.5842,-3.847,-3.8357,-3.6813,-3.5828,-3.6142,-3.7292,-3.8919,-3.9424,-3.9424,-3.9424,-3.9424,-3.9424,-3.9424,-3.9424,-3.9424,-3.9424,-3.9424,-3.9424,-3.9424,-3.9424,-3.9424,-3.9424,-3.9424,-3.9424,-3.9424,-3.9424,-3.9424,-3.9424,-3.9424,-3.9424,-3.9424,-3.9424,-3.9424,-3.9424,-3.9424,-3.9424,-3.9424,-3.9424,-3.9424,-3.9424,-3.9424,-3.9424,-3.9424,-3.9424,-3.9723,-4.0382,-4.1055,-4.1698,-4.2357,-4.3015,-4.3329,-4.3344,-4.4003,-4.4317,0.0,-2.4616,-2.491,-2.4693,-2.4668,-2.4963,-2.6041,-2.6281,0.0,-2.3571,-2.3078,-2.3078,-2.3078,-2.3078,-2.3117,-2.3083,0.0,0.0,0.0,-2.6498,0.0,0.0,0.0,0.0,0.0,0.0,0.0,0.0,0.0,0.0,0.0,-3.1471,-3.1486,-3.1486,-3.3937,-3.5301,-3.5516,-3.5484,-3.5504,-3.5504,-3.5504,-3.5504,-3.5504,-3.5504,0.0,0.0,0.0,0.0,0.0,-3.5504,-3.5504,-3.5504,-3.5504,-3.5504,-3.5504,-3.5504,-3.5503,-3.5854,-3.8528,-3.939,-3.9028,-3.6552,-3.7421,-3.942,-3.9406,-3.9424,-3.9424,-3.9424,-3.9424,-3.9424,-3.9424,-3.9424,-3.9424,-3.9424,-3.9424,-3.9424,-3.9424,-3.9424,-3.9424,-3.9424,-3.9424,-3.9424,-3.9424,-3.9424,-3.9424,-3.9424,-3.9424,-3.9424,-3.9424,-3.9424,-3.9424,-3.9424,-3.9424,-3.9424,-3.9424,-3.9424,-3.9424,-3.9424,-3.9424,-3.9424,-3.9424,-3.9469,-3.9798,-4.0457,-4.116,-4.1818,-4.2432,-4.3045,-4.3359,-4.3419,-4.4077,-4.4407,-1.9829,0.0,-2.5679,-2.3928,-2.3516,-2.3542,0.0,-2.3901,0.0,0.0,0.0,0.0,0.0,0.0,0.0,0.0,0.0,0.0,-2.6225,0.0,0.0,0.0,0.0,0.0,0.0,0.0,0.0,0.0,0.0,0.0,0.0,-3.1483,-3.1513,-3.1513,-3.2124,-3.344,-3.5501,-3.5484,-3.5504,-3.5504,-3.5504,-3.5504,-3.5504,-3.5504,0.0,0.0,0.0,0.0,-3.5504,-3.5504,-3.5504,-3.5504,-3.5504,-3.5504,-3.5504,-3.5504,-3.5517,-3.5904,-3.8463,-3.9421,-3.9275,-3.8702,-3.8923,-3.9391,-3.9394,-3.9424,-3.9424,-3.9424,-3.9424,-3.9424,-3.9424,-3.9424,-3.9424,-3.9424,-3.9424,-3.9424,-3.9424,-3.9424,-3.9424,-3.9424,-3.9424,-3.9424,-3.9424,-3.9424,-3.9424,-3.9424,-3.9424,-3.9424,-3.9424,-3.9424,-3.9424,-3.9424,-3.9424,-3.9424,-3.9424,-3.9424,-3.9424,-3.9424,-3.9424,-3.9424,-3.9424,-3.9903,-4.0472,-4.113,-4.2282,-4.2955,-4.3105,-4.3254,-4.3584,-4.4092,-4.4751,-4.5349,-1.824,-2.0221,-2.2714,-2.3003,-2.3123,-2.3103,-2.307,0.0,0.0,0.0,0.0,0.0,0.0,0.0,0.0,0.0,-2.3098,0.0,0.0,0.0,0.0,0.0,0.0,0.0,0.0,0.0,0.0,0.0,0.0,0.0,0.0,-3.1482,-3.1482,-3.1482,-3.1501,-3.2765,-3.5491,-3.548,-3.5499,-3.5504,-3.5504,-3.5504,-3.5504,-3.5504,-3.5504,0.0,0.0,0.0,-3.5504,-3.5504,-3.5504,-3.5504,-3.5504,-3.5504,-3.5504,-3.5504,-3.5495,-3.5686,-3.7127,-3.8376,-3.9415,-3.9425,-3.9433,-3.9424,-3.9424,-3.9424,-3.9424,-3.9424,-3.9424,-3.9424,-3.9424,-3.9424,-3.9424,-3.9424,-3.9424,-3.9424,-3.9424,-3.9424,-3.9424,-3.9424,-3.9424,-3.9424,-3.9424,-3.9424,-3.9424,-3.9424,-3.9424,-3.9424,-3.9424,-3.9424,-3.9424,-3.9424,-3.9424,-3.9424,-3.9424,-3.9424,-3.9424,-3.9424,-3.9424,-3.9559,-3.9858,-4.0217,-4.0846,-4.1818,-4.2821,-4.3329,-4.3329,-4.3329,-4.3673,-4.4332,-4.499,-4.5663,-1.8,-1.7988,-1.8871,-2.2683,-2.3168,-2.2645,0.0,0.0,0.0,0.0,0.0,0.0,0.0,0.0,0.0,0.0,0.0,0.0,-2.6195,-2.6533,0.0,0.0,0.0,0.0,0.0,0.0,0.0,0.0,0.0,0.0,0.0,-3.1482,-3.1482,-3.1482,-3.1515,-3.2572,-3.4866,-3.5305,-3.551,-3.5494,-3.5489,-3.5504,-3.5504,-3.5504,-3.5504,0.0,0.0,0.0,-3.5504,-3.5504,-3.5504,-3.5504,-3.5504,-3.5504,-3.5504,-3.5504,-3.5489,-3.5541,-3.5933,-3.7549,-3.9424,-3.9424,-3.9424,-3.9424,-3.9424,-3.9424,-3.9424,-3.9424,-3.9424,-3.9424,-3.9424,-3.9424,-3.9424,-3.9424,-3.9424,-3.9424,-3.9424,-3.9424,-3.9424,-3.9424,-3.9424,-3.9424,-3.9424,-3.9424,-3.9424,-3.9424,-3.9424,-3.9424,-3.9424,-3.9424,-3.9424,-3.9424,-3.9424,-3.9454,-3.9559,-3.9574,-3.9619,-3.9709,-3.9634,-3.9903,-4.0666,-4.0696,-4.1265,-4.2491,-4.3045,-4.3329,-4.3329,-4.3434,-4.3823,-4.4481,-4.514,-4.5813,-1.8014,-1.7999,-1.931,-2.4664,-2.3484,-2.0567,0.0,0.0,0.0,0.0,0.0,0.0,0.0,0.0,0.0,0.0,0.0,0.0,0.0,0.0,0.0,0.0,0.0,0.0,0.0,0.0,0.0,0.0,0.0,0.0,0.0,-3.1482,-3.1482,-3.1482,-3.1511,-3.1722,-3.2109,-3.4345,-3.5468,-3.5513,-3.5514,-3.5504,-3.5504,-3.5504,-3.5504,0.0,0.0,-3.5504,-3.5504,-3.5504,-3.5504,-3.5504,-3.5504,-3.5504,-3.5504,-3.5504,-3.5502,-3.5807,-3.8027,-3.9088,-3.9424,-3.9424,-3.9424,-3.9424,-3.9424,-3.9424,-3.9424,-3.9424,-3.9424,-3.9424,-3.9424,-3.9424,-3.9424,-3.9424,-3.9424,-3.9424,-3.9424,-3.9424,-3.9424,-3.9424,-3.9424,-3.9424,-3.9424,-3.9424,-3.9424,-3.9424,-3.9424,-3.9424,-3.9424,-3.9424,-3.9424,-3.9424,-3.9424,-3.9649,-4.0202,-4.0247,-4.0487,-4.1055,-4.0561,-4.0786,-4.2013,-4.2058,-4.2417,-4.3165,-4.3284,-4.3329,-4.3329,-4.3898,-4.4496,-4.5155,-4.5843,-4.6516,-1.7995,-1.8675,-2.0019,-2.2685,-2.1224,0.0,0.0,0.0,0.0,0.0,0.0,0.0,0.0,0.0,0.0,0.0,0.0,0.0,0.0,0.0,0.0,0.0,0.0,0.0,0.0,0.0,0.0,0.0,0.0,0.0,0.0,0.0,-3.1482,-3.1482,-3.1482,-3.1483,-3.1485,-3.2691,-3.4072,-3.5516,-3.5525,-3.5484,-3.5504,-3.5504,-3.5504,-3.5504,0.0,-3.5504,-3.5504,-3.5504,-3.5504,-3.5504,-3.5504,-3.5504,-3.5594,-3.6282,-3.6971,-3.7788,-3.8968,-3.9376,-3.9424,-3.9424,-3.9424,-3.9424,-3.9424,-3.9424,-3.9424,-3.9424,-3.9424,-3.9424,-3.9424,-3.9424,-3.9424,-3.9424,-3.9424,-3.9424,-3.9424,-3.9424,-3.9424,-3.9424,-3.9424,-3.9424,-3.9424,-3.9424,-3.9424,-3.9424,-3.9424,-3.9424,-3.9424,-3.9424,-3.9424,-3.9424,-3.9738,-4.0068,-4.0367,-4.0726,-4.1055,-4.1354,-4.1429,-4.1728,-4.2327,-4.2701,-4.303,-4.3329,-4.3329,-4.3329,-4.3329,-4.3988,-4.4646,-4.5304,-4.6007,-4.6681,-1.7977,-1.8964,-2.001,0.0,0.0,0.0,0.0,0.0,0.0,0.0,0.0,0.0,0.0,0.0,0.0,0.0,0.0,0.0,0.0,0.0,0.0,0.0,0.0,0.0,0.0,0.0,0.0,0.0,0.0,0.0,0.0,0.0,-3.15,-3.1482,-3.1513,-3.1513,-3.1482,-3.15,-3.2557,-3.4587,-3.5211,-3.551,-3.5529,-3.5474,-3.5504,-3.5504,-3.5504,-3.5504,-3.5504,-3.5504,-3.5504,-3.5504,-3.5504,-3.5654,-3.6079,-3.7368,-3.8497,-3.9375,-3.9391,-3.9424,-3.9424,-3.9424,-3.9424,-3.9424,-3.9424,-3.9424,-3.9424,-3.9424,-3.9424,-3.9424,-3.9424,-3.9424,-3.9424,-3.9424,-3.9424,-3.9424,-3.9424,-3.9424,-3.9424,-3.9424,-3.9424,-3.9424,-3.9424,-3.9424,-3.9424,-3.9424,-3.9424,-3.9424,-3.9424,-3.9559,-3.9649,-3.9649,-4.0232,-4.0696,-4.0846,-4.1459,-4.1833,-4.1833,-4.2312,-4.2581,-4.2581,-4.306,-4.3329,-4.3329,-4.3329,-4.3404,-4.3569,-4.4227,-4.4885,-4.5544,-4.6232,-4.683,-1.7976,-1.8075,-1.818,0.0,0.0,0.0,0.0,0.0,0.0,0.0,0.0,0.0,0.0,0.0,0.0,0.0,0.0,0.0,0.0,0.0,0.0,0.0,0.0,0.0,0.0,0.0,0.0,0.0,0.0,0.0,0.0,0.0,0.0,-3.1497,-3.1486,-3.1501,-3.1482,-3.1497,-3.1589,-3.1827,-3.4314,-3.5516,-3.5483,-3.5514,-3.5504,-3.5504,-3.5504,-3.5504,-3.5504,-3.5504,-3.5504,-3.5504,-3.5504,-3.6205,-3.7412,-3.8726,-3.934,-3.9375,-3.9391,-3.9424,-3.9424,-3.9424,-3.9424,-3.9424,-3.9424,-3.9424,-3.9424,-3.9424,-3.9424,-3.9424,-3.9424,-3.9424,-3.9424,-3.9424,-3.9424,-3.9424,-3.9424,-3.9424,-3.9424,-3.9424,-3.9424,-3.9424,-3.9424,-3.9424,-3.9424,-3.9424,-3.9424,-3.9424,-3.9424,-3.9948,-4.0337,-4.0337,-4.092,-4.1549,-4.2162,-4.2821,-4.3195,-4.3195,-4.324,-4.3269,-4.3269,-4.3314,-4.3329,-4.3329,-4.3329,-4.3629,-4.4242,-4.49,-4.5574,-4.6262,-4.6935,-4.7249,-1.7987,-1.7992,-1.8024,0.0,0.0,0.0,0.0,0.0,0.0,0.0,0.0,0.0,0.0,0.0,0.0,0.0,0.0,0.0,0.0,0.0,0.0,0.0,0.0,0.0,0.0,0.0,0.0,0.0,0.0,0.0,0.0,0.0,0.0,-2.8455,-3.0384,-3.1465,-3.1535,-3.1501,-3.1471,-3.1529,-3.254,-3.386,-3.5516,-3.551,-3.5533,-3.5504,-3.5504,-3.5504,-3.5504,-3.5504,-3.5504,-3.5549,-3.6109,-3.7248,-3.8674,-3.8722,-3.9028,-3.9403,-3.9379,-3.9424,-3.9424,-3.9424,-3.9424,-3.9424,-3.9424,-3.9424,-3.9424,-3.9424,-3.9424,-3.9424,-3.9424,-3.9424,-3.9424,-3.9424,-3.9424,-3.9424,-3.9424,-3.9424,-3.9424,-3.9424,-3.9424,-3.9424,-3.9424,-3.9424,-3.9424,-3.9424,-3.9424,-3.9574,-3.9978,-4.0247,-4.0561,-4.0965,-4.1594,-4.2252,-4.291,-4.3195,-4.3329,-4.3329,-4.3329,-4.3329,-4.3329,-4.3329,-4.3329,-4.3329,-4.3733,-4.4062,-4.4317,-4.5409,-4.6067,-4.6337,-4.6995,-4.7309,-1.7969,-1.8036,-1.812,0.0,0.0,0.0,0.0,0.0,0.0,0.0,0.0,0.0,0.0,0.0,0.0,0.0,0.0,0.0,0.0,0.0,0.0,0.0,0.0,0.0,0.0,0.0,0.0,0.0,0.0,0.0,0.0,0.0,0.0,0.0,-2.8712,-3.0458,-3.1501,-3.0427,-3.0464,-3.1503,-3.1523,-3.2476,-3.428,-3.5118,-3.5477,-3.5504,-3.5504,-3.5504,-3.5504,-3.5504,-3.5624,-3.5893,-3.6678,-3.788,-3.9063,-3.8807,-3.902,-3.9424,-3.9424,-3.9424,-3.9424,-3.9424,-3.9424,-3.9424,-3.9424,-3.9424,-3.9424,-3.9424,-3.9424,-3.9424,-3.9424,-3.9424,-3.9424,-3.9424,-3.9424,-3.9424,-3.9424,-3.9424,-3.9424,-3.9424,-3.9424,-3.9424,-3.9424,-3.9424,-3.9484,-3.9694,-3.9723,-3.9963,-4.0621,-4.0891,-4.1265,-4.1923,-4.2402,-4.2851,-4.3284,-4.3329,-4.3329,-4.3329,-4.3329,-4.3329,-4.3329,-4.3329,-4.3434,-4.3643,-4.4092,-4.4526,-4.4945,-4.5873,-4.6426,-4.6651,-4.71,-4.7309,-1.8018,-1.8008,0.0,0.0,0.0,0.0,0.0,0.0,0.0,0.0,0.0,0.0,0.0,0.0,0.0,0.0,0.0,0.0,0.0,0.0,0.0,0.0,0.0,0.0,0.0,0.0,0.0,0.0,0.0,0.0,0.0,0.0,0.0,0.0,-2.6518,-2.8103,-3.1409,-2.8148,-2.8148,-3.1424,-3.1473,-3.1454,-3.1562,-3.4295,-3.5477,-3.5439,-3.5504,-3.5504,-3.5439,-3.5504,-3.5893,-3.6552,-3.7165,-3.7808,-3.8482,-3.917,-3.9424,-3.9424,-3.9424,-3.9424,-3.9424,-3.9424,-3.9424,-3.9424,-3.9424,-3.9424,-3.9424,-3.9424,-3.9424,-3.9424,-3.9424,-3.9424,-3.9424,-3.9424,-3.9424,-3.9424,-3.9424,-3.9424,-3.9424,-3.9424,-3.9424,-3.9424,-3.9424,-3.9424,-3.9649,-4.0307,-4.0412,-4.0651,-4.1309,-4.1968,-4.2611,-4.3175,-4.325,-4.3329,-4.325,-4.325,-4.325,-4.325,-4.325,-4.325,-4.3329,-4.3344,-4.3643,-4.4302,-4.4332,-4.499,-4.6322,-4.6337,-4.6666,-4.7309,-4.7309,-4.7309,-1.7067,-1.7549,0.0,0.0,0.0,0.0,0.0,0.0,0.0,0.0,0.0,0.0,0.0,0.0,0.0,0.0,0.0,0.0,0.0,0.0,0.0,0.0,0.0,0.0,0.0,0.0,0.0,0.0,0.0,0.0,0.0,0.0,0.0,0.0,-2.6486,-2.6958,-2.7958,-2.6999,-2.6982,-2.7998,-2.8012,-2.8817,-3.0401,-3.3918,-3.4728,-3.3547,-3.492,-3.4507,-3.2876,-3.4023,-3.5539,-3.715,-3.7345,-3.8108,-3.914,-3.9349,-3.9424,-3.9424,-3.9424,-3.9424,-3.9424,-3.9424,-3.9424,-3.9424,-3.9424,-3.9424,-3.9424,-3.9424,-3.9424,-3.9424,-3.9424,-3.8855,-3.8472,-3.9192,-3.9424,-3.9424,-3.9424,-3.9424,-3.9424,-3.9424,-3.9424,-3.9574,-4.0023,-4.0113,-4.0337,-4.0995,-4.1085,-4.1324,-4.1983,-4.2641,-4.2773,-4.2179,-4.2805,-4.2981,-4.2193,-4.2111,-4.2111,-4.2111,-4.1737,-4.2048,-4.3265,-4.3778,-4.4122,-4.4317,-4.5244,-4.5918,-4.6322,-4.6785,-4.7115,-4.7309,-4.7309,-4.7309,-1.7181,0.0,0.0,0.0,0.0,0.0,0.0,0.0,0.0,0.0,0.0,0.0,0.0,0.0,0.0,0.0,0.0,0.0,0.0,0.0,0.0,0.0,0.0,0.0,0.0,0.0,0.0,0.0,0.0,0.0,0.0,0.0,0.0,0.0,-2.6498,-2.6485,-2.6533,-2.6511,-2.6515,-2.6506,-2.6515,-2.7352,-2.9048,-3.1924,-3.272,-3.1887,-3.3582,-3.3502,-3.2132,-3.3087,-3.4552,-3.6199,-3.6199,-3.6997,-3.813,-3.813,-3.813,-3.813,-3.813,-3.813,-3.813,-3.813,-3.813,-3.813,-3.813,-3.813,-3.813,-3.813,-3.813,-3.813,-3.813,-3.7648,-3.7572,-3.9017,-3.9104,-3.887,-3.9337,-3.9424,-3.9265,-3.887,-3.8782,-3.8825,-3.9062,-3.9102,-3.9392,-4.0292,-4.0641,-4.112,-4.1995,-4.1974,-4.1864,-4.1601,-4.1782,-4.1699,-4.1,-4.0916,-4.1015,-4.1241,-4.09,-4.1229,-4.2519,-4.3416,-4.3837,-4.3559,-4.4892,-4.571,-4.5961,-4.5872,-4.6344,-4.7309,-4.6741,-4.6829,-1.7793,0.0,0.0,0.0,0.0,0.0,0.0,0.0,0.0,0.0,0.0,0.0,0.0,0.0,0.0,0.0,0.0,0.0,0.0,0.0,0.0,0.0,0.0,0.0,0.0,0.0,0.0,0.0,0.0,0.0,0.0,0.0,0.0,-2.6533,-2.6533,-2.6533,-2.6533,-2.6533,-2.6533,0.0,-2.6533,-2.6836,-2.7544,-2.9143,-3.0242,-3.0813,-3.1924,-3.2464,-3.2593,-3.2536,-3.3239,-3.4402,-3.4402,-3.5134,-3.6198,-3.6198,-3.6198,-3.6198,-3.6198,-3.6198,-3.6198,-3.6198,-3.6198,-3.6198,-3.6198,-3.6198,-3.6198,-3.6198,-3.6198,-3.6198,-3.6198,-3.6119,-3.6604,-3.8605,-3.8383,-3.7904,-3.8929,-3.9104,-3.8855,-3.7829,-3.772,-3.7642,-3.7218,-3.7194,-3.7621,-3.8778,-3.9526,-4.0232,-4.1337,-4.0575,-4.0232,-4.1155,-4.049,-3.9899,-3.9724,-3.9766,-4.0027,-4.0536,-4.0508,-4.0704,-4.1251,-4.2561,-4.3022,-4.2499,-4.3673,-4.4647,-4.5207,-4.4069,-4.4734,-4.7121,-4.5779,-4.5973,0.0,-1.7559,0.0,0.0,0.0,0.0,0.0,0.0,0.0,0.0,0.0,0.0,0.0,0.0,0.0,0.0,0.0,0.0,0.0,0.0,0.0,0.0,0.0,0.0,0.0,0.0,0.0,0.0,0.0,0.0,0.0,0.0,0.0,-2.6533,-2.6533,-2.6533,-2.6533,-2.6533,-2.6533,0.0,-2.6533,-2.6596,-2.6842,-2.9283,-3.1072,-3.2077,-3.0904,-3.1267,-3.2522,-3.1815,-3.2664,-3.4402,-3.4402,-3.5134,-3.6198,-3.6198,-3.6198,-3.6198,-3.6198,-3.6198,-3.6198,-3.6198,-3.6198,-3.6198,-3.6198,-3.6198,-3.6198,-3.6198,-3.6198,-3.6198,-3.6198,-3.5588,-3.5359,-3.6604,-3.6682,-3.6604,-3.6838,-3.6916,-3.6838,-3.6604,-3.693,-3.7393,-3.7744,-3.8172,-3.8822,-3.9581,-3.9816,-3.9986,-4.0232,-4.0073,-3.9623,-3.8903,-3.9448,-3.9536,-3.8559,-3.8882,-3.9201,-3.9321,-3.9303,-3.9299,-3.9428,-4.1558,-4.2639,-4.2499,-4.3249,-4.3742,-4.3882,-4.3598,-4.4256,-4.5779,-4.4549,-4.5115,0.0,0.0,0.0,0.0,0.0,0.0,0.0,0.0,0.0,0.0,0.0,0.0,0.0,0.0,0.0,0.0,0.0,0.0,0.0,0.0,0.0,0.0,0.0,0.0,0.0,0.0,0.0,0.0,0.0,0.0,0.0,-2.5963,-2.5912,-2.6508,-2.6506,-2.6506,-2.6533,-2.6533,-2.6533,-2.6533,-2.6533,-2.6741,-2.7339,-2.8763,-3.0066,-3.1193,-3.0216,-3.0355,-3.1193,-3.0696,-3.1511,-3.2974,-3.2974,-3.3688,-3.4719,-3.4719,-3.4719,-3.4719,-3.4719,-3.4719,-3.4719,-3.4719,-3.4719,-3.4719,-3.4719,-3.4719,-3.4719,-3.4719,-3.4719,-3.4719,-3.4719,-3.4345,-3.4037,-3.4568,-3.5116,-3.5588,-3.6132,-3.6198,-3.6136,-3.5873,-3.6115,-3.6448,-3.6743,-3.7276,-3.7854,-3.8172,-3.8225,-3.8392,-3.9006,-3.8572,-3.8211,-3.8107,-3.8211,-3.7952,-3.7322,-3.7758,-3.8196,-3.8466,-3.8764,-3.8994,-3.9258,-4.0491,-4.1155,-4.1155,-4.2105,-4.2544,-4.2544,-4.1985,-4.2641,-4.4456,-4.3218,-4.3598,0.0,0.0,0.0,0.0,0.0,0.0,0.0,0.0,0.0,0.0,0.0,0.0,0.0,0.0,0.0,0.0,0.0,0.0,0.0,0.0,0.0,0.0,0.0,0.0,0.0,0.0,0.0,0.0,0.0,0.0,-2.5896,-2.524,-2.536,-2.6264,-2.6308,-2.6413,-2.6521,-2.6533,-2.6533,-2.6533,-2.6533,-2.703,-2.8109,-2.8109,-2.8725,-2.9792,-2.9792,-2.9792,-2.9792,-2.9792,-3.0419,-3.1386,-3.1386,-3.2077,-3.3081,-3.3081,-3.3081,-3.3081,-3.3081,-3.3081,-3.3081,-3.3081,-3.3081,-3.3081,-3.3081,-3.3081,-3.3081,-3.3081,-3.3081,-3.3081,-3.3081,-3.3081,-3.3081,-3.3081,-3.3797,-3.4664,-3.5507,-3.5654,-3.5602,-3.5247,-3.5365,-3.5499,-3.5688,-3.6056,-3.6358,-3.6358,-3.6358,-3.6709,-3.7678,-3.6977,-3.6803,-3.7678,-3.6977,-3.6408,-3.6496,-3.701,-3.7563,-3.8115,-3.8693,-3.922,-3.9672,-3.9697,-3.9697,-3.9697,-4.0743,-4.1319,-4.1319,-4.0173,-4.0932,-4.3122,-4.1887,-4.207,0.0,0.0,0.0,0.0,0.0,0.0,0.0,0.0,0.0,0.0,0.0,0.0,0.0,0.0,0.0,0.0,0.0,0.0,0.0,0.0,0.0,0.0,0.0,0.0,0.0,0.0,0.0,0.0,0.0,0.0,-2.3645,-2.4681,-2.5419,-2.5569,-2.5649,-2.598,-2.6521,-2.6533,-2.6533,-2.6533,-2.6533,-2.703,-2.8109,-2.8109,-2.8725,-2.9792,-2.9792,-2.9792,-2.9792,-2.9792,-3.0419,-3.1386,-3.1386,-3.2077,-3.3081,-3.3081,-3.3081,-3.3081,-3.3081,-3.3081,-3.3081,-3.3081,-3.3081,-3.3081,-3.3081,-3.3081,-3.3081,-3.3081,-3.3081,-3.3081,-3.3081,-3.3081,-3.3081,-3.3081,-3.324,-3.3313,-3.3471,-3.3543,-3.3636,-3.4034,-3.483,-3.5701,-3.6238,-3.632,-3.6358,-3.6358,-3.6358,-3.6452,-3.6628,-3.6452,-3.6452,-3.6628,-3.6452,-3.6558,-3.7036,-3.7575,-3.814,-3.8718,-3.9283,-3.9622,-3.9697,-3.9697,-3.9697,-3.9697,-3.989,-3.9981,-3.9981,-3.9788,-4.0465,-4.1789,-4.0554,-4.1219,-1.3715,0.0,0.0,0.0,0.0,0.0,0.0,0.0,0.0,0.0,0.0,0.0,0.0,0.0,0.0,0.0,0.0,0.0,0.0,0.0,0.0,0.0,0.0,0.0,0.0,0.0,0.0,0.0,0.0,-2.4318,-2.4198,-2.3917,-2.4455,-2.5945,-2.5473,-2.5586,-2.6521,-2.6533,-2.6533,-2.6533,-2.6533,-2.703,-2.8109,-2.8109,-2.8725,-2.9792,-2.9792,-2.9792,-2.9817,-3.0131,-3.0696,-3.1424,-3.1725,-3.2353,-3.3081,-3.3081,-3.3081,-3.3081,-3.3081,-3.3081,-3.3081,-3.3081,-3.3081,-3.3081,-3.3081,-3.3081,-3.3081,-3.3081,-3.3081,-3.3081,-3.3081,-3.3081,-3.3081,-3.3081,-3.3081,-3.3181,-3.3596,-3.337,-3.3332,-3.4198,-3.524,-3.6081,-3.632,-3.6358,-3.6358,-3.6358,-3.6358,-3.6358,-3.6358,-3.6358,-3.6358,-3.6358,-3.6358,-3.6584,-3.7136,-3.7688,-3.8253,-3.8831,-3.9383,-3.9697,-3.9697,-3.9697,-3.9697,-3.9697,-3.9697,-3.9697,-3.9697,-3.9697,-3.9981,-4.0554,-3.9981,-4.0262,0.0,0.0,-1.4737,0.0,0.0,0.0,0.0,0.0,0.0,0.0,0.0,0.0,0.0,0.0,0.0,0.0,0.0,0.0,0.0,0.0,0.0,0.0,0.0,0.0,0.0,0.0,0.0,0.0,0.0,-2.3267,-2.434,-2.3214,-2.3651,-2.6,-2.5247,-2.5347,-2.6521,-2.6533,-2.6533,-2.6533,-2.6533,-2.6967,-2.7896,-2.8047,-2.8649,-2.9578,-2.9729,-2.9792,-2.9829,-3.0382,-3.0922,-3.1449,-3.2001,-3.2566,-3.3081,-3.3081,-3.3081,-3.3081,-3.3081,-3.3081,-3.3081,-3.3081,-3.3081,-3.3081,-3.3081,-3.3081,-3.3081,-3.3081,-3.3081,-3.3081,-3.3081,-3.3081,-3.3081,-3.3081,-3.3181,-3.3432,-3.3985,-3.3897,-3.3947,-3.4776,-3.5705,-3.6358,-3.6358,-3.6358,-3.6358,-3.6358,-3.6358,-3.6358,-3.6358,-3.6358,-3.6358,-3.6358,-3.6358,-3.6634,-3.7337,-3.7764,-3.8316,-3.9032,-3.9471,-3.9697,-3.9697,-3.9697,-3.9697,-3.9697,-3.9697,-3.9697,-3.9697,-3.9697,-3.9697,-3.9697,-3.9697,-3.9697,0.0,0.0,0.0,0.0,0.0,0.0,0.0,0.0,0.0,0.0,0.0,0.0,0.0,0.0,0.0,0.0,0.0,0.0,0.0,0.0,0.0,0.0,0.0,0.0,0.0,0.0,0.0,0.0,0.0,-2.2891,-2.2829,-2.2762,-2.3389,-2.4818,-2.4845,-2.5347,-2.6521,-2.6533,-2.6533,-2.6533,-2.6533,-2.6766,-2.7344,-2.7871,-2.8423,-2.9001,-2.9553,-2.9792,-2.9829,-3.0382,-3.0922,-3.1449,-3.2001,-3.2566,-3.3081,-3.3081,-3.3081,-3.3081,-3.3081,-3.3081,-3.3081,-3.3081,-3.3081,-3.3081,-3.3081,-3.3081,-3.3081,-3.3081,-3.3081,-3.3081,-3.3081,-3.3081,-3.3081,-3.3081,-3.3483,-3.3872,-3.3909,-3.47,-3.5429,-3.5491,-3.5968,-3.6358,-3.6358,-3.6358,-3.6358,-3.6358,-3.6358,-3.6358,-3.6358,-3.6358,-3.6358,-3.6358,-3.6358,-3.6797,-3.7877,-3.799,-3.8479,-3.9584,-3.9672,-3.9697,-3.9697,-3.9697,-3.9697,-3.9697,-3.9697,-3.9697,-3.9697,-3.9697,-3.9697,-3.9697,-3.9697,-3.9697,0.0,0.0,0.0,0.0,0.0,0.0,0.0,0.0,0.0,0.0,0.0,0.0,0.0,0.0,0.0,0.0,0.0,0.0,0.0,0.0,0.0,0.0,0.0,0.0,0.0,0.0,0.0,0.0,0.0,0.0,-2.1481,-2.1083,-2.1756,-2.3501,-2.3185,-2.3798,-2.5511,-2.6176,-2.6533,-2.6533,-2.6533,-2.6753,-2.7306,-2.7858,-2.8411,-2.8963,-2.9541,-2.9792,-2.9867,-3.0746,-3.1223,-3.1486,-3.2403,-3.2893,-3.3081,-3.3081,-3.3081,-3.3081,-3.3081,-3.3081,-3.3081,-3.3081,-3.3081,-3.3081,-3.3081,-3.3081,-3.3081,-3.3081,-3.3081,-3.3081,-3.3081,-3.3081,-3.3169,-3.352,-3.4562,-3.5391,-3.5027,-3.5265,-3.5542,-3.5542,-3.5994,-3.6358,-3.6358,-3.6358,-3.6358,-3.6358,-3.6358,-3.6358,-3.6358,-3.6358,-3.6358,-3.6358,-3.6684,-3.7199,-3.7939,-3.8341,-3.8881,-3.9647,-3.9697,-3.9697,-3.9697,-3.9697,-3.9697,-3.9697,-3.9697,-3.9697,-3.9697,-3.9697,-3.9697,-3.9697,-3.9697,-3.9697,-1.0795,0.0,0.0,0.0,0.0,0.0,0.0,0.0,0.0,0.0,0.0,0.0,0.0,0.0,0.0,0.0,0.0,0.0,0.0,0.0,0.0,0.0,0.0,0.0,0.0,0.0,0.0,0.0,0.0,0.0,-2.0453,-2.0296,-2.0979,-2.2775,-2.2629,-2.329,-2.5004,-2.5358,-2.5791,-2.6465,-2.5987,-2.6257,-2.7306,-2.7656,-2.8188,-2.8963,-2.9541,-2.9792,-2.988,-3.0947,-3.1386,-3.1499,-3.2629,-3.3081,-3.3081,-3.3081,-3.3081,-3.3081,-3.3081,-3.3081,-3.3081,-3.3081,-3.3081,-3.3081,-3.3081,-3.3081,-3.3081,-3.3081,-3.3081,-3.3119,-3.3307,-3.3483,-3.3771,-3.4324,-3.529,-3.6031,-3.5855,-3.5818,-3.5818,-3.5818,-3.6119,-3.6358,-3.6358,-3.6358,-3.6358,-3.6358,-3.6358,-3.6358,-3.6358,-3.6358,-3.6433,-3.6621,-3.696,-3.7487,-3.8228,-3.8642,-3.9107,-3.9659,-3.9697,-3.9697,-3.9697,-3.9697,-3.9697,-3.9697,-3.9697,-3.9697,-3.9697,-3.9697,-3.9697,-3.9697,-3.9697,-3.9798,0.0,0.0,0.0,0.0,0.0,0.0,0.0,0.0,0.0,0.0,0.0,0.0,0.0,0.0,0.0,0.0,0.0,0.0,0.0,0.0,0.0,0.0,0.0,0.0,0.0,0.0,0.0,0.0,0.0,-1.9441,-1.9885,-2.0302,-2.1179,-2.255,-2.3184,-2.3891,-2.4933,-2.3963,-2.4469,-2.6396,-2.4908,-2.5226,-2.7247,-2.7215,-2.7863,-2.8963,-2.9464,-2.9714,-2.988,-3.0934,-3.1373,-3.1499,-3.2616,-3.3056,-3.3081,-3.3081,-3.3081,-3.3081,-3.3081,-3.3081,-3.3081,-3.3081,-3.3081,-3.3081,-3.3081,-3.3081,-3.3081,-3.3081,-3.3081,-3.3232,-3.3784,-3.4336,-3.4876,-3.5416,-3.5554,-3.5717,-3.6245,-3.6358,-3.6358,-3.6358,-3.6358,-3.6358,-3.6358,-3.6358,-3.6358,-3.6358,-3.6358,-3.6358,-3.6358,-3.637,-3.6584,-3.7123,-3.7211,-3.7676,-3.8781,-3.8881,-3.9132,-3.9659,-3.9697,-3.9697,-3.9697,-3.9697,-3.9697,-3.9697,-3.9697,-3.9697,-3.9697,-3.9697,-3.9697,-3.9697,-3.971,-4.0011,-1.0624,0.0,0.0,0.0,0.0,0.0,0.0,0.0,0.0,0.0,0.0,0.0,0.0,0.0,0.0,0.0,0.0,0.0,0.0,0.0,0.0,0.0,0.0,0.0,0.0,0.0,0.0,0.0,-1.9531,-1.9374,-1.9461,-1.9859,-2.0296,-2.0629,-2.1796,-2.2553,-2.285,-2.3294,-2.3806,-2.4325,-2.3881,-2.4572,-2.6227,-2.5826,-2.6813,-2.88,-2.7814,-2.8303,-2.9842,-3.0545,-3.1047,-3.1461,-3.2164,-3.2704,-3.3081,-3.3081,-3.3081,-3.3081,-3.3081,-3.3081,-3.3081,-3.3081,-3.3081,-3.3081,-3.3081,-3.3081,-3.3081,-3.3081,-3.337,-3.3796,-3.4349,-3.4901,-3.5353,-3.5411,-3.5843,-3.6182,-3.632,-3.6358,-3.6358,-3.6358,-3.6358,-3.6358,-3.6358,-3.6358,-3.6358,-3.6358,-3.6358,-3.6358,-3.6358,-3.6709,-3.701,-3.7161,-3.7914,-3.853,-3.8843,-3.9233,-3.9534,-3.9685,-3.9697,-3.9697,-3.9697,-3.9697,-3.9697,-3.9697,-3.9697,-3.9697,-3.9697,-3.9697,-3.9697,-3.9697,-4.0111,-4.0375,0.0,0.0,0.0,0.0,0.0,0.0,0.0,-1.1623,0.0,0.0,0.0,0.0,0.0,0.0,0.0,0.0,0.0,0.0,0.0,0.0,0.0,0.0,0.0,0.0,0.0,0.0,0.0,-2.0176,-1.9795,-1.9629,-1.9814,-1.9883,-2.0,-2.0185,-2.1024,-2.1593,-2.2027,-2.2188,-2.2713,-2.3514,-2.3048,-2.3755,-2.5414,-2.5115,-2.5995,-2.7837,-2.692,-2.7464,-2.9064,-2.9108,-3.0049,-3.1449,-3.2001,-3.2566,-3.3081,-3.3081,-3.3081,-3.3081,-3.3081,-3.3081,-3.3081,-3.3081,-3.3081,-3.3081,-3.3081,-3.3081,-3.3081,-3.3081,-3.3633,-3.4374,-3.4914,-3.5466,-3.5893,-3.5893,-3.6119,-3.6358,-3.6358,-3.6358,-3.6358,-3.6358,-3.6358,-3.6358,-3.6358,-3.6358,-3.6358,-3.6358,-3.6358,-3.6445,-3.6671,-3.6985,-3.7362,-3.7839,-3.8479,-3.8956,-3.9195,-3.9509,-3.9697,-3.9697,-3.9697,-3.9697,-3.9697,-3.9697,-3.9697,-3.9697,-3.9697,-3.9697,-3.9697,-3.9697,-3.9697,-3.971,-4.0262,-4.0639,0.0,0.0,0.0,0.0,0.0,0.0,-1.1563,-1.175,-1.1917,0.0,0.0,0.0,0.0,0.0,0.0,0.0,0.0,0.0,0.0,0.0,0.0,0.0,0.0,0.0,0.0,-1.9961,-2.0146,-2.0537,-2.0205,-2.0156,-2.0547,-2.0195,-2.0166,-2.0557,-2.0566,-2.1001,-2.1811,-2.1011,-2.1451,-2.3158,-2.2259,-2.2848,-2.4792,-2.4647,-2.5251,-2.6483,-2.6224,-2.6789,-2.7891,-2.7155,-2.8594,-3.1272,-3.1822,-3.2384,-3.2896,-3.3081,-3.3081,-3.3081,-3.3081,-3.3081,-3.3081,-3.3081,-3.3081,-3.3081,-3.3081,-3.3081,-3.3106,-3.3219,-3.396,-3.4864,-3.5479,-3.5994,-3.6358,-3.6358,-3.6358,-3.6358,-3.6358,-3.6358,-3.6358,-3.6358,-3.6358,-3.6358,-3.6358,-3.6358,-3.6358,-3.6358,-3.6358,-3.6558,-3.7111,-3.7236,-3.7688,-3.8755,-3.8931,-3.9157,-3.9647,-3.9697,-3.9697,-3.9697,-3.9697,-3.9697,-3.9697,-3.9697,-3.9697,-3.9697,-3.9697,-3.9697,-3.9697,-3.9697,-3.9697,-3.971,-4.0325,-4.0865,0.0,0.0,0.0,0.0,0.0,0.0,-1.0882,-1.0995,-1.1196,0.0,0.0,0.0,0.0,0.0,0.0,0.0,0.0,0.0,0.0,0.0,0.0,0.0,0.0,0.0,0.0,-2.0234,-2.0478,-2.0557,-2.0488,-2.0478,-2.0634,-2.0478,-2.0478,-2.0566,-2.0566,-2.0722,-2.0857,-2.0712,-2.0789,-2.1165,-2.1263,-2.2231,-2.3753,-2.3193,-2.422,-2.64,-2.4563,-2.4893,-2.6764,-2.6076,-2.7394,-2.9966,-3.0493,-3.112,-3.1677,-3.2698,-3.3081,-3.3081,-3.3081,-3.3081,-3.3081,-3.3081,-3.3081,-3.3081,-3.3081,-3.3081,-3.3269,-3.4148,-3.4562,-3.4951,-3.5943,-3.6282,-3.6358,-3.6358,-3.6358,-3.6358,-3.6358,-3.6358,-3.6358,-3.6358,-3.6358,-3.6358,-3.6358,-3.6358,-3.6358,-3.6358,-3.6358,-3.6558,-3.7111,-3.7575,-3.8115,-3.8793,-3.927,-3.9584,-3.9685,-3.9697,-3.9697,-3.9697,-3.9697,-3.9697,-3.9697,-3.9697,-3.9697,-3.9697,-3.9697,-3.9697,-3.9697,-3.9697,-3.9697,-3.9722,-4.0714,-4.1229,0.0,0.0,0.0,-1.0775,0.0,0.0,0.0,-1.0995,-1.1035,-1.1182,0.0,0.0,0.0,0.0,0.0,0.0,0.0,0.0,0.0,0.0,0.0,0.0,0.0,0.0,0.0,-2.012,-2.0566,-2.0566,-2.0566,-2.0566,-2.0566,-2.0566,-2.0566,-2.0566,-2.0566,-2.0566,-2.0566,-2.0566,-2.0674,-2.0908,-2.1348,-2.2086,-2.299,-2.2873,-2.3523,-2.4723,-2.3637,-2.4049,-2.56,-2.5124,-2.6062,-2.7973,-2.9095,-2.9866,-3.0496,-3.1689,-3.2152,-3.2239,-3.2884,-3.3081,-3.3081,-3.3081,-3.3081,-3.3081,-3.3081,-3.3269,-3.3658,-3.4487,-3.4914,-3.5328,-3.6144,-3.6358,-3.6358,-3.6358,-3.6358,-3.6358,-3.6358,-3.6358,-3.6358,-3.6358,-3.6358,-3.6358,-3.6358,-3.6358,-3.6358,-3.6358,-3.6596,-3.6973,-3.7525,-3.809,-3.8655,-3.922,-3.9534,-3.9697,-3.9697,-3.9697,-3.9697,-3.9697,-3.9697,-3.9697,-3.9697,-3.9697,-3.9697,-3.9697,-3.9697,-3.9697,-3.9697,-3.9697,-3.9835,-4.0124,-4.0953,-4.148,0.0,0.0,0.0,0.0,0.0,-1.0889,0.0,0.0,0.0,-1.1223,0.0,0.0,0.0,0.0,0.0,0.0,0.0,0.0,0.0,0.0,0.0,0.0,0.0,0.0,0.0,-1.939,-2.0071,-2.0557,-2.0324,-2.0314,-2.0566,-2.0566,-2.0566,-2.0566,-2.0566,-2.0566,-2.0566,-2.0654,-2.0879,-2.124,-2.1758,-2.2187,-2.2529,-2.2949,-2.3135,-2.3135,-2.3135,-2.3677,-2.4578,-2.4445,-2.5005,-2.6111,-2.7735,-2.8696,-2.9223,-3.0406,-3.0855,-3.1045,-3.2052,-3.2426,-3.2426,-3.2426,-3.2525,-3.2723,-3.2835,-3.3358,-3.3946,-3.4313,-3.5007,-3.5667,-3.6219,-3.6358,-3.6358,-3.6358,-3.6358,-3.6358,-3.6358,-3.6358,-3.6358,-3.6358,-3.6358,-3.6358,-3.6358,-3.6358,-3.6395,-3.6508,-3.6897,-3.7425,-3.809,-3.858,-3.9082,-3.9634,-3.9697,-3.9697,-3.9697,-3.9697,-3.9697,-3.9697,-3.9697,-3.9697,-3.9697,-3.9697,-3.9697,-3.9697,-3.9697,-3.9697,-3.9697,-3.9798,-4.0086,-4.0526,-4.1078,-4.163,0.0,0.0,0.0,0.0,-1.1356,0.0,0.0,0.0,-1.0929,-1.0701,0.0,0.0,0.0,0.0,0.0,0.0,0.0,0.0,0.0,0.0,0.0,0.0,0.0,0.0,0.0,0.0,-1.8231,-2.045,-1.9418,-1.9294,-2.0547,-2.0566,-2.0566,-2.0566,-2.0566,-2.0566,-2.0566,-2.0957,-2.1182,-2.125,-2.2051,-2.2471,-2.2529,-2.2949,-2.3135,-2.3135,-2.3135,-2.3448,-2.3919,-2.431,-2.4741,-2.5407,-2.7045,-2.7725,-2.7955,-2.9131,-2.959,-2.959,-2.9772,-2.9863,-2.9863,-2.9863,-3.0496,-3.1496,-3.1872,-3.291,-3.3831,-3.369,-3.4511,-3.5667,-3.6219,-3.6358,-3.6358,-3.6358,-3.6358,-3.6358,-3.6358,-3.6358,-3.6358,-3.6358,-3.6358,-3.6358,-3.6358,-3.6358,-3.6521,-3.7023,-3.7149,-3.7575,-3.863,-3.8831,-3.9082,-3.9634,-3.9697,-3.9697,-3.9697,-3.9697,-3.9697,-3.9697,-3.9697,-3.9697,-3.9697,-3.9697,-3.9697,-3.9697,-3.9697,-3.9697,-3.9697,-4.0187,-4.0463,-4.0526,-4.1078,-4.163,0.0,0.0,0.0,0.0,0.0,0.0,-1.0895,0.0,-1.0708,0.0,0.0,0.0,0.0,0.0,0.0,0.0,0.0,0.0,0.0,0.0,0.0,0.0,0.0,0.0,0.0,0.0,0.0,0.0,0.0,-1.9084,-2.0537,-2.0566,-2.0566,-2.0566,-2.0566,-2.0684,-2.0947,-2.1143,-2.1484,-2.1982,-2.2344,-2.2637,-2.2881,-2.3057,-2.3135,-2.3135,-2.3135,-2.3389,-2.3828,-2.4248,-2.4668,-2.5202,-2.6114,-2.6476,-2.6668,-2.7861,-2.8319,-2.8495,-2.9131,-2.9407,-2.9407,-2.9407,-2.9761,-3.0227,-3.0629,-3.1472,-3.2347,-3.3268,-3.4198,-3.5098,-3.6106,-3.5858,-3.5463,-3.625,-3.5775,-3.5463,-3.6263,-3.6358,-3.6358,-3.6358,-3.6358,-3.6458,-3.6784,-3.6571,-3.6546,-3.7098,-3.745,-3.7952,-3.8768,-3.9145,-3.9433,-3.9672,-3.9697,-3.9697,-3.9697,-3.9697,-3.9697,-3.9697,-3.9697,-3.9697,-3.9697,-3.9697,-3.9697,-3.9697,-3.9697,-3.9848,-4.0174,-4.04,-4.084,-4.1467,-4.1706,-4.2108,-1.1724,0.0,0.0,0.0,0.0,0.0,0.0,0.0,0.0,0.0,0.0,0.0,0.0,0.0,0.0,0.0,0.0,0.0,0.0,0.0,0.0,0.0,0.0,0.0,0.0,0.0,0.0,0.0,0.0,0.0,-1.965,-2.0001,-2.0215,-2.032,-2.0585,-2.0967,-2.1406,-2.1523,-2.1894,-2.251,-2.2627,-2.2842,-2.3135,-2.3135,-2.3135,-2.3144,-2.3262,-2.3564,-2.3994,-2.4424,-2.4853,-2.5283,-2.5605,-2.5742,-2.583,-2.6754,-2.703,-2.722,-2.8121,-2.8402,-2.8391,-2.8762,-2.8943,-2.914,-2.9518,-3.0289,-3.1274,-3.2357,-3.3175,-3.4068,-3.5041,-3.4557,-3.4068,-3.5054,-3.4557,-3.4068,-3.5054,-3.5246,-3.5246,-3.5246,-3.5368,-3.5697,-3.6492,-3.6643,-3.6822,-3.7538,-3.799,-3.8454,-3.9019,-3.9446,-3.9697,-3.9697,-3.9697,-3.9697,-3.9697,-3.9697,-3.9697,-3.9697,-3.9697,-3.9697,-3.9697,-3.9697,-3.9697,-3.9697,-3.9697,-3.9961,-4.0513,-4.0664,-4.1229,-4.2158,-4.2158,-4.2446,0.0,0.0,0.0,-1.157,0.0,0.0,0.0,0.0,-1.0982,0.0,0.0,0.0,0.0,0.0,0.0,0.0,0.0,0.0,0.0,0.0,0.0,0.0,0.0,0.0,0.0,0.0,0.0,0.0,0.0,0.0,-1.7301,-1.847,-1.9208,-1.9589,-2.0619,-2.1426,-2.1865,-2.2266,-2.248,-2.2519,-2.292,-2.3125,-2.3135,-2.3135,-2.3135,-2.3164,-2.3584,-2.4004,-2.4434,-2.4863,-2.5312,-2.5713,-2.5732,-2.5742,-2.5742,-2.5732,-2.5732,-2.5732,-2.583,-2.583,-2.6014,-2.722,-2.7883,-2.8324,-2.8676,-3.011,-3.1285,-3.0561,-3.1316,-3.2331,-3.2431,-3.2431,-3.2331,-3.2431,-3.2431,-3.2331,-3.2431,-3.2431,-3.2431,-3.2431,-3.2825,-3.3572,-3.5011,-3.6333,-3.7538,-3.8655,-3.8831,-3.9044,-3.9597,-3.9685,-3.9697,-3.9697,-3.9697,-3.9697,-3.9697,-3.9697,-3.9697,-3.9697,-3.9697,-3.9697,-3.9697,-3.9697,-3.9697,-3.9697,-3.9697,-3.9961,-4.0513,-4.1053,-4.1605,-4.2158,-4.2158,-4.2446,0.0,0.0,-1.2204,-1.1817,0.0,0.0,0.0,0.0,0.0,0.0,0.0,0.0,0.0,0.0,0.0,0.0,0.0,0.0,0.0,0.0,0.0,0.0,0.0,0.0,0.0,0.0,0.0,0.0,0.0,0.0,0.0,-1.7893,-1.8252,-1.8379,-1.9543,-2.0458,-2.1135,-2.1997,-2.2646,-2.293,-2.3066,-2.3135,-2.3135,-2.3135,-2.3301,-2.3574,-2.3721,-2.4189,-2.4863,-2.501,-2.5332,-2.5742,-2.5742,-2.5742,-2.5742,-2.5742,-2.5742,-2.5742,-2.5742,-2.5742,-2.5732,-2.6197,-2.6691,-2.7132,-2.7462,-2.8289,-2.9137,-3.0088,-3.0618,-3.1224,-3.2028,-3.1622,-3.1224,-3.2129,-3.1622,-3.1224,-3.2129,-3.2331,-3.2432,-3.2654,-3.2867,-3.3387,-3.4448,-3.5097,-3.6173,-3.8591,-3.8868,-3.9069,-3.9622,-3.9697,-3.9697,-3.9697,-3.9697,-3.9697,-3.9697,-3.9697,-3.9697,-3.9697,-3.9697,-3.9697,-3.9697,-3.9697,-3.9697,-3.9697,-4.0061,-4.0513,-4.1065,-4.1605,-4.2158,-4.2698,-4.2698,-4.2798,-1.2305,-1.2305,0.0,-1.1944,-1.1724,0.0,-1.1216,0.0,0.0,0.0,0.0,0.0,0.0,0.0,0.0,0.0,0.0,0.0,0.0,0.0,0.0,0.0,0.0,0.0,0.0,0.0,-1.3474,-1.5541,0.0,0.0,0.0,0.0,-1.7453,-1.7572,-1.8676,-1.9659,-2.0298,-2.1475,-2.2225,-2.2492,-2.2862,-2.3135,-2.3144,-2.3301,-2.3525,-2.3809,-2.4111,-2.456,-2.5078,-2.5244,-2.5478,-2.5742,-2.5742,-2.5742,-2.5742,-2.5742,-2.5742,-2.5742,-2.5742,-2.5742,-2.5762,-2.5918,-2.626,-2.6689,-2.7119,-2.7549,-2.815,-2.9221,-2.9608,-2.9817,-3.0618,-3.0214,-2.9817,-3.0721,-3.0214,-2.9807,-3.0721,-3.0952,-3.1155,-3.1464,-3.1795,-3.2309,-3.3454,-3.3814,-3.4795,-3.7199,-3.7641,-3.7762,-3.8101,-3.8582,-3.8699,-3.8149,-3.8582,-3.8908,-3.8908,-3.8908,-3.9129,-3.9697,-3.9697,-3.9697,-3.9697,-3.9697,-3.9697,-3.9697,-4.0237,-4.0789,-4.1342,-4.1894,-4.2434,-4.2974,-4.2974,-4.2974]}]]